Date StartTime U_cm/s V_cm/s W_cm/s Ustd_cm/s Vstd_cm/s Wstd_cm/s Uvar_(cm/s)^2 Vvar_(cm/s)^2 Wvar_(cm/s)^2 KE_(m/s)^2 TurbulentKE_(m/s)^2 HorizWindSpeed_cm/s FrictionSpeec_cm/s DragCoef SpeedOfSound_m/s SonicTemperature_C Pressure_mb 
06/18/2013  00:00:00       69.311       86.602       11.212       54.676       43.397       44.272     2989.485     1883.262     1959.977        0.963        0.342      110.923       29.928        0.073      342.368       17.729      860.181
06/18/2013  00:01:00      121.996      100.647       -0.112       54.876       42.545       34.604     3011.398     1810.095     1197.442        1.551        0.301      158.154       24.171        0.023      342.292       17.599      860.142
06/18/2013  00:02:00      147.179       92.181       14.527       55.061       48.582       41.048     3031.708     2360.178     1684.944        1.872        0.354      173.663       20.265        0.014      342.160       17.374      860.096
06/18/2013  00:03:00       98.362       51.829       11.385       39.752       49.768       26.213     1580.241     2476.847      687.132        0.862        0.237      111.181       21.356        0.037      342.320       17.646      860.093
06/18/2013  00:04:00       18.288       21.172       -0.167       37.693       19.832       20.043     1420.739      393.304      401.709        0.150        0.111       27.977       15.880        0.322      342.234       17.499      860.120
06/18/2013  00:05:00      -11.543       56.570       -6.471       27.724       17.117       10.493      768.647      293.001      110.111        0.227        0.059       57.735        7.093        0.015      342.271       17.563      860.121
06/18/2013  00:06:00      -42.101       43.049       -6.682       14.906       11.450        8.299      222.194      131.100       68.867        0.205        0.021       60.214        2.887        0.002      342.186       17.419      860.113
06/18/2013  00:07:00       -0.523       93.537      -12.661       20.232       41.454       12.710      409.318     1718.416      161.532        0.560        0.114       93.538       14.642        0.025      342.232       17.498      860.115
06/18/2013  00:08:00       15.709      177.674      -18.508       23.438       29.685       20.361      549.326      881.227      414.558        1.700        0.092      178.367       15.965        0.008      342.278       17.575      860.112
06/18/2013  00:09:00       35.737       51.133        5.679       31.072       55.193       28.898      965.464     3046.257      835.067        0.438        0.242       62.383       28.672        0.211      341.994       17.093      860.095
06/18/2013  00:10:00       93.544       42.612        9.329       43.373       24.329       25.513     1881.227      591.891      650.900        0.689        0.156      102.792       15.785        0.024      341.959       17.035      860.090
06/18/2013  00:11:00       75.842       40.624       26.960       42.951       30.011       24.827     1844.781      900.634      616.391        0.574        0.168       86.037       20.081        0.054      341.978       17.065      860.091
06/18/2013  00:12:00        7.606       43.326       62.487       26.068       35.279       20.887      679.521     1244.575      436.268        0.410        0.118       43.989       21.541        0.240      341.948       17.015      860.097
06/18/2013  00:13:00       14.324       46.932       68.376       37.253       38.626       33.959     1387.766     1491.943     1153.238        0.556        0.202       49.070       32.972        0.452      342.028       17.151      860.100
06/18/2013  00:14:00      107.992       63.986       49.275       43.610       28.999       33.885     1901.862      840.946     1148.199        1.104        0.195      125.525       30.954        0.061      342.143       17.347      860.095
06/18/2013  00:15:00       85.245       60.193       32.127       24.235       20.360       24.525      587.342      414.540      601.487        0.676        0.080      104.355       14.016        0.018      342.160       17.376      860.100
06/18/2013  00:16:00       76.368       43.639       11.331       17.853       17.724       16.091      318.729      314.128      258.924        0.438        0.045       87.957        9.055        0.011      342.200       17.443      860.104
06/18/2013  00:17:00       64.648       32.872       20.917       17.034       18.270       16.163      290.145      333.782      261.239        0.329        0.044       72.525       11.510        0.025      342.088       17.254      860.105
06/18/2013  00:18:00       52.939        9.661       11.699       30.010       25.560       16.567      900.596      653.331      274.454        0.243        0.091       53.813       17.285        0.103      342.147       17.354      860.109
06/18/2013  00:19:00       61.660       39.146       14.565       16.590       16.891       14.671      275.230      285.307      215.233        0.316        0.039       73.037        8.684        0.014      342.195       17.435      860.080
06/18/2013  00:20:00       51.709       51.453        6.325       20.863       15.572       15.112      435.275      242.498      228.359        0.313        0.045       72.947       12.160        0.028      342.068       17.217      860.043
06/18/2013  00:21:00       10.645       75.636       -4.078       21.572       41.479       21.086      465.359     1720.489      444.637        0.424        0.132       76.382       21.530        0.079      341.896       16.926      860.037
06/18/2013  00:22:00       59.407       39.664        7.629       34.341       29.383       21.426     1179.292      863.380      459.095        0.383        0.125       71.431       13.866        0.038      341.895       16.926      860.032
06/18/2013  00:23:00      112.769       54.152       16.984       34.824       21.350       19.984     1212.694      455.824      399.367        0.900        0.103      125.097       12.449        0.010      341.979       17.066      860.042
06/18/2013  00:24:00      128.098       77.388       27.862       34.092       29.772       35.500     1162.283      886.391     1260.273        1.324        0.165      149.660       22.037        0.022      342.065       17.214      860.044
06/18/2013  00:25:00      119.418       57.577       45.158       38.756       37.618       40.584     1502.062     1415.119     1647.039        1.209        0.228      132.573       31.747        0.057      342.042       17.174      860.059
06/18/2013  00:26:00      116.163       23.502       20.795       55.023       37.279       35.381     3027.580     1389.732     1251.802        1.007        0.283      118.516       22.596        0.036      342.031       17.156      860.052
06/18/2013  00:27:00       94.097       34.384       34.242       59.299       25.234       29.302     3516.392      636.736      858.625        0.811        0.251      100.182       27.135        0.073      341.892       16.920      860.049
06/18/2013  00:28:00       84.763       36.245       35.901       47.258       30.384       36.767     2233.282      923.176     1351.848        0.715        0.225       92.187       21.761        0.056      341.892       16.920      860.039
06/18/2013  00:29:00       70.848       41.016       49.744       45.364       34.365       27.839     2057.925     1180.950      775.029        0.659        0.201       81.864       15.614        0.036      341.934       16.990      860.045
06/18/2013  00:30:00       18.062       22.390       45.698       26.528       32.692       16.328      703.737     1068.748      266.608        0.248        0.102       28.767       13.549        0.222      341.916       16.962      860.065
06/18/2013  00:31:00       -3.936       45.281       76.706       18.252       31.364       17.088      333.151      983.731      291.999        0.478        0.080       45.452       12.018        0.070      341.848       16.845      860.078
06/18/2013  00:32:00       21.662       47.304       68.765       36.311       46.515       36.223     1318.480     2163.689     1312.104        0.611        0.240       52.028       34.880        0.449      341.915       16.959      860.076
06/18/2013  00:33:00        9.756       36.044       63.604       31.044       35.148       21.192      963.708     1235.395      449.100        0.404        0.132       37.341       20.702        0.307      341.949       17.018      860.066
06/18/2013  00:34:00        8.709       45.512       36.178       21.506       21.852       28.325      462.529      477.494      802.304        0.260        0.087       46.338       16.609        0.128      341.954       17.027      860.068
06/18/2013  00:35:00       63.305       37.477        4.271       37.838       29.309       27.725     1431.731      859.037      768.688        0.424        0.153       73.567       18.103        0.061      341.874       16.890      860.060
06/18/2013  00:36:00       20.654       51.012       68.880       36.542       37.495       31.360     1335.303     1405.908      983.449        0.575        0.186       55.034       24.586        0.200      342.183       17.415      860.068
06/18/2013  00:37:00        0.569       12.809       39.829       24.748       51.857       30.545      612.479     2689.137      932.967        0.299        0.212       12.822       29.894        5.436      342.133       17.330      860.095
06/18/2013  00:38:00       24.365      -25.969       11.349       46.262       59.509       27.289     2140.200     3541.311      744.680        0.391        0.321       35.609       27.103        0.579      342.403       17.788      860.100
06/18/2013  00:39:00       33.916       -8.042       28.803       34.595       36.956       24.167     1196.843     1365.780      584.027        0.259        0.157       34.856       24.895        0.510      342.239       17.510      860.128
06/18/2013  00:40:00        5.911       37.165       40.016       18.634       24.298       16.023      347.218      590.373      256.736        0.211        0.060       37.632        9.836        0.068      342.063       17.212      860.140
06/18/2013  00:41:00       61.702       32.898       12.268       23.659       22.774       14.695      559.732      518.638      215.933        0.317        0.065       69.924       11.303        0.026      342.179       17.406      860.106
06/18/2013  00:42:00       79.004       50.572       27.485       27.606       26.977       26.243      762.096      727.760      688.719        0.587        0.109       93.804        8.648        0.009      342.082       17.240      860.077
06/18/2013  00:43:00       84.372       38.347       24.591       43.665       35.472       30.767     1906.648     1258.282      946.595        0.665        0.206       92.677       19.750        0.045      341.986       17.080      860.073
06/18/2013  00:44:00      143.951       68.036       12.469       40.493       30.778       27.093     1639.651      947.255      734.031        1.441        0.166      159.219       19.554        0.015      342.100       17.272      860.069
06/18/2013  00:45:00      155.677       85.326       30.194       53.145       30.824       31.108     2824.429      950.089      967.709        1.858        0.237      177.527       17.763        0.010      342.248       17.525      860.063
06/18/2013  00:46:00      135.417       82.655       37.868       41.367       27.246       28.285     1711.225      742.329      800.029        1.493        0.163      158.650       20.904        0.017      342.080       17.240      860.073
06/18/2013  00:47:00      113.529      103.980       63.630       62.704       41.435       53.146     3931.819     1716.897     2824.482        1.811        0.424      153.950       41.586        0.073      341.851       16.850      860.077
06/18/2013  00:48:00       57.689       55.061       64.259       69.192       44.215       43.039     4787.583     1954.949     1852.317        0.954        0.430       79.748       38.984        0.239      341.919       16.965      860.092
06/18/2013  00:49:00       27.519       65.973       84.153       46.827       41.727       24.928     2192.767     1741.142      621.392        0.837        0.228       71.483       26.538        0.138      341.888       16.913      860.120
06/18/2013  00:50:00       20.071       53.600       82.457       48.647       56.130       41.933     2366.502     3150.617     1758.385        0.867        0.364       57.234       41.295        0.521      342.165       17.384      860.137
06/18/2013  00:51:00       51.227      -38.485       30.622       45.323       94.894       57.794     2054.189     9004.884     3340.143        0.972        0.720       64.072       71.507        1.246      342.240       17.510      860.157
06/18/2013  00:52:00       41.689      -27.769       26.537       36.635       65.910       43.105     1342.130     4344.175     1858.010        0.538        0.377       50.090       50.365        1.011      342.146       17.350      860.125
06/18/2013  00:53:00       15.013       86.268       93.398       40.047       47.634       28.735     1603.778     2269.024      825.695        1.054        0.235       87.565       21.530        0.060      342.199       17.443      860.067
06/18/2013  00:54:00       78.847       92.831       93.873       52.283       64.508       50.007     2733.500     4161.230     2500.659        1.652        0.470      121.797       49.104        0.163      342.225       17.485      860.044
06/18/2013  00:55:00       41.054       55.208       80.592       45.083       53.786       35.619     2032.474     2892.913     1268.748        0.871        0.310       68.799       40.382        0.345      342.165       17.383      860.061
06/18/2013  00:56:00        7.257       48.033       71.230       38.824       38.733       30.392     1507.301     1500.234      923.693        0.568        0.197       48.578       20.759        0.183      342.258       17.542      860.061
06/18/2013  00:57:00        3.191       43.119       69.122       24.596       57.342       36.291      604.944     3288.120     1317.023        0.593        0.261       43.237       40.966        0.898      342.415       17.809      860.068
06/18/2013  00:58:00       64.102     -100.713        4.373       67.991       77.735       39.974     4622.819     6042.668     1597.934        1.326        0.613      119.382       54.341        0.207      342.219       17.476      860.094
06/18/2013  00:59:00       76.420      -69.989       10.811       53.790       63.156       40.834     2893.375     3988.677     1667.393        0.970        0.427      103.626       41.188        0.158      342.172       17.395      860.095
06/18/2013  01:00:00       45.381       38.878       84.683       59.311       96.595       61.615     3517.776     9330.554     3796.362        1.369        0.832       59.757       70.697        1.400      341.983       17.075      860.081
06/18/2013  01:01:00       93.758       43.875       85.922       86.621       73.435       65.969     7503.277     5392.730     4351.951        1.767        0.862      103.516       66.573        0.414      342.139       17.338      860.045
06/18/2013  01:02:00       84.280       55.922       61.326       57.316       57.930       57.074     3285.114     3355.852     3257.415        1.194        0.495      101.145       40.348        0.159      342.071       17.223      860.005
06/18/2013  01:03:00      219.455       68.667       33.163       94.084       73.667       57.920     8851.765     5426.761     3354.721        3.580        0.882      229.948       46.782        0.041      342.203       17.446      859.994
06/18/2013  01:04:00       99.431       75.193       87.539       92.621       68.230       63.131     8578.637     4655.367     3985.515        2.021        0.861      124.662       53.913        0.187      342.147       17.351      860.011
06/18/2013  01:05:00       75.346       83.371       81.509       84.203       51.683       55.472     7090.197     2671.163     3077.172        1.605        0.642      112.373       41.800        0.138      342.183       17.414      860.006
06/18/2013  01:06:00      183.447       97.445       52.703       86.171       75.233       64.107     7425.380     5659.972     4109.675        3.156        0.860      207.721       42.103        0.041      342.118       17.301      859.974
06/18/2013  01:07:00       99.448       60.581       78.053      112.119       66.629       58.432    12570.600     4439.488     3414.292        2.003        1.021      116.448       59.201        0.258      342.151       17.357      859.955
06/18/2013  01:08:00      100.472       59.089       52.003      100.360       54.775       49.880    10072.159     3000.290     2488.030        1.592        0.778      116.559       10.366        0.008      342.015       17.129      859.943
06/18/2013  01:09:00      130.189       12.722       31.626       91.138      110.864       53.361     8306.134    12290.878     2847.420        2.077        1.172      130.809       47.693        0.133      341.992       17.088      859.949
06/18/2013  01:10:00      154.873       85.536       46.371       74.944       63.084       54.484     5616.605     3979.627     2968.482        2.301        0.628      176.924       18.916        0.011      342.006       17.111      859.995
06/18/2013  01:11:00      107.662       53.062       55.129       61.486       55.786       40.812     3780.491     3112.129     1665.648        1.300        0.428      120.028       38.865        0.105      342.089       17.253      860.017
06/18/2013  01:12:00      107.832       36.840       24.018       76.168       65.542       55.301     5801.583     4295.726     3058.149        1.336        0.658      113.951       39.435        0.120      342.130       17.324      860.011
06/18/2013  01:13:00       39.780       18.583       33.360       55.257       51.968       35.572     3053.324     2700.663     1265.361        0.503        0.351       43.907       25.938        0.349      342.123       17.313      860.026
06/18/2013  01:14:00       14.243      -67.660        2.544       34.937       44.198       33.387     1220.599     1953.445     1114.670        0.454        0.214       69.143       27.190        0.155      342.132       17.328      860.045
06/18/2013  01:15:00       21.398       27.126       48.813       40.239       35.760       26.071     1619.147     1278.795      679.720        0.358        0.179       34.550       13.939        0.163      342.154       17.366      860.043
06/18/2013  01:16:00       25.628       -1.288       37.460       33.280       34.324       22.223     1107.546     1178.114      493.843        0.242        0.139       25.661       21.645        0.712      342.187       17.421      860.011
06/18/2013  01:17:00       10.986      -60.433        7.101       21.147       27.813       22.624      447.198      773.583      511.858        0.278        0.087       61.423       18.379        0.090      342.228       17.491      859.989
06/18/2013  01:18:00       39.966      -42.591       14.506       47.248       61.099       29.124     2232.407     3733.032      848.194        0.522        0.341       58.406       36.469        0.390      342.145       17.349      859.998
06/18/2013  01:19:00       74.865     -115.571        9.292       52.209       56.486       46.036     2725.805     3190.657     2119.324        1.354        0.402      137.701       40.608        0.087      342.350       17.697      860.022
06/18/2013  01:20:00       70.858     -135.130       -0.785       44.690       54.755       34.598     1997.221     2998.099     1197.039        1.474        0.310      152.581       26.988        0.031      342.328       17.659      860.040
06/18/2013  01:21:00        9.140      -71.533       -2.653       33.063       48.650       34.928     1093.194     2366.845     1219.951        0.494        0.234       72.115       18.927        0.069      342.232       17.498      860.014
06/18/2013  01:22:00       52.201     -124.352       -9.811       56.970       63.546       42.096     3245.577     4038.119     1772.092        1.367        0.453      134.864       38.064        0.080      342.299       17.611      860.002
06/18/2013  01:23:00        2.227      -56.561       -4.242       36.124       40.234       18.959     1304.934     1618.751      359.457        0.325        0.164       56.605       13.499        0.057      342.235       17.501      860.026
06/18/2013  01:24:00       50.379      -71.337       -8.887       50.248       50.024       30.635     2524.818     2502.405      938.477        0.683        0.298       87.333       29.478        0.114      342.250       17.528      860.049
06/18/2013  01:25:00       54.475      -95.483      -21.003       45.899       48.408       36.388     2106.734     2343.300     1324.114        0.915        0.289      109.929       31.178        0.080      342.242       17.515      860.051
06/18/2013  01:26:00       25.642      -59.924      -10.758       31.071       40.309       24.842      965.394     1624.840      617.104        0.379        0.160       65.180       17.239        0.070      342.108       17.287      860.045
06/18/2013  01:27:00        8.518        3.761       11.323       13.086       18.543       12.095      171.247      343.828      146.297        0.044        0.033        9.311       12.041        1.672      341.945       17.011      860.025
06/18/2013  01:28:00      -14.628      -21.545        1.005       16.560       10.371        9.100      274.250      107.557       82.809        0.057        0.023       26.041        5.164        0.039      342.060       17.205      860.030
06/18/2013  01:29:00      -15.627      -14.500        2.536       35.696       24.350       12.796     1274.186      592.912      163.743        0.125        0.102       21.318        8.157        0.146      342.064       17.213      860.048
06/18/2013  01:30:00      -22.956       -7.922       14.400       36.922       31.364       15.750     1363.263      983.712      248.077        0.170        0.130       24.284       21.852        0.810      342.023       17.142      860.054
06/18/2013  01:31:00     -105.432      -41.533      -13.571       18.191       24.879       16.172      330.915      618.972      261.520        0.712        0.061      113.317       11.826        0.011      342.249       17.527      860.036
06/18/2013  01:32:00     -103.197       58.026       -5.182       29.992       41.453       19.091      899.495     1718.369      364.453        0.851        0.149      118.392       13.631        0.013      342.397       17.778      859.987
06/18/2013  01:33:00     -102.641       69.114      -19.599       48.469       37.799       27.949     2349.244     1428.782      781.120        1.013        0.228      123.741       28.208        0.052      342.387       17.762      859.909
06/18/2013  01:34:00      -42.690       84.274      -13.353       29.168       30.964       17.543      850.763      958.787      307.765        0.561        0.106       94.470       15.016        0.025      342.335       17.672      859.866
06/18/2013  01:35:00      -68.309       10.019       -3.499       23.163       35.825       12.870      536.511     1283.429      165.635        0.338        0.099       69.040       14.000        0.041      342.220       17.478      859.885
06/18/2013  01:36:00        1.877      -66.252       17.345       38.983       27.333       19.370     1519.662      747.116      375.180        0.367        0.132       66.279       22.204        0.112      342.278       17.576      859.872
06/18/2013  01:37:00        1.230      -32.724        6.386        9.987       16.927       12.384       99.738      286.536      153.371        0.083        0.027       32.747        7.428        0.051      342.234       17.501      859.889
06/18/2013  01:38:00        7.701       -9.672       25.850       14.998       46.094       31.372      224.937     2124.649      984.193        0.208        0.167       12.364       30.551        6.106      341.849       16.847      859.919
06/18/2013  01:39:00       -3.293        3.160       40.406       18.530       39.197       28.974      343.354     1536.372      839.479        0.219        0.136        4.564       28.622       39.324      341.592       16.412      859.916
06/18/2013  01:40:00        6.022      -21.075       28.448       18.682       44.876       19.893      349.028     2013.814      395.722        0.202        0.138       21.919       21.393        0.953      341.604       16.433      859.924
06/18/2013  01:41:00       16.410       11.991       19.794       16.036       16.663        9.533      257.160      277.658       90.879        0.072        0.031       20.324        7.388        0.132      341.578       16.388      859.901
06/18/2013  01:42:00       60.996       38.258        5.844       18.417       15.928        9.722      339.203      253.706       94.523        0.295        0.034       72.001        2.998        0.002      341.962       17.037      859.875
06/18/2013  01:43:00       93.695       52.035       15.436       24.528       16.200       15.921      601.609      262.450      253.487        0.642        0.056      107.175       11.061        0.011      341.950       17.019      859.835
06/18/2013  01:44:00      103.769       58.369        6.085       32.715       30.894       19.603     1070.294      954.456      384.261        0.831        0.120      119.058       19.363        0.026      341.752       16.683      859.786
06/18/2013  01:45:00       72.150       34.769        9.074       30.381       27.469       19.748      923.031      754.565      389.969        0.428        0.103       80.090       13.535        0.029      341.575       16.382      859.813
06/18/2013  01:46:00       -1.414       10.414        8.475       26.986       18.884       16.507      728.234      356.615      272.468        0.077        0.068       10.510       15.355        2.135      341.405       16.094      859.884
06/18/2013  01:47:00       23.975      -18.207        4.347       22.796       25.622       14.546      519.643      656.484      211.586        0.116        0.069       30.105       15.273        0.257      341.562       16.361      859.934
06/18/2013  01:48:00       47.476      -59.382        1.137       28.883       23.625       16.280      834.236      558.127      265.038        0.372        0.083       76.028       16.699        0.048      341.696       16.588      859.975
06/18/2013  01:49:00       60.493      -36.906        8.004       27.185       45.985       22.863      739.002     2114.592      522.698        0.423        0.169       70.862       25.642        0.131      341.581       16.394      859.985
06/18/2013  01:50:00       76.167       47.089       37.718       40.411       22.153       22.278     1633.014      490.739      496.302        0.603        0.131       89.548       15.694        0.031      341.477       16.217      859.941
06/18/2013  01:51:00      125.618       72.002        9.485       37.358       25.551       24.585     1395.641      652.867      604.434        1.185        0.133      144.790       18.252        0.016      341.743       16.666      859.860
06/18/2013  01:52:00       91.540       45.383       17.241       47.608       35.124       30.033     2266.562     1233.671      901.998        0.757        0.220      102.172        9.218        0.008      341.715       16.620      859.841
06/18/2013  01:53:00       11.525       17.534       51.596       24.474       26.398       15.529      598.963      696.863      241.140        0.232        0.077       20.982       11.629        0.307      341.655       16.519      859.883
06/18/2013  01:54:00        7.168       38.077       64.925       24.854       38.100       29.985      617.731     1451.586      899.080        0.434        0.148       38.745       28.155        0.528      341.729       16.645      859.908
06/18/2013  01:55:00        2.746       41.612       74.198       21.210       35.365       23.110      449.863     1250.665      534.054        0.474        0.112       41.703       24.123        0.335      341.667       16.537      859.903
06/18/2013  01:56:00       29.908       59.423       73.406       42.674       34.514       22.509     1821.085     1191.188      506.666        0.667        0.176       66.525       22.758        0.117      341.594       16.415      859.881
06/18/2013  01:57:00       19.115       97.827       98.714       41.740       41.079       35.776     1742.218     1687.507     1279.901        1.219        0.235       99.677       35.945        0.130      341.528       16.302      859.881
06/18/2013  01:58:00       64.078       27.103       66.986       57.449       64.003       43.442     3300.356     4096.353     1887.210        0.930        0.464       69.575       47.894        0.474      341.633       16.480      859.896
06/18/2013  01:59:00       18.721       -4.490       36.311       23.014       22.261       20.146      529.639      495.546      405.862        0.156        0.072       19.252       13.071        0.461      341.510       16.271      859.902
06/18/2013  02:00:00       43.699       26.289       15.052       32.003       23.483       25.194     1024.195      551.472      634.738        0.252        0.111       50.997       20.847        0.167      341.381       16.054      859.890
06/18/2013  02:01:00       40.256        3.247        6.811       20.304       15.602       12.911      412.234      243.408      166.698        0.125        0.041       40.387        8.873        0.048      341.351       16.004      859.879
06/18/2013  02:02:00       18.635        5.740       13.606       14.625       11.896       14.378      213.894      141.524      206.729        0.056        0.028       19.499        9.004        0.213      341.355       16.011      859.894
06/18/2013  02:03:00       66.289      -30.785        0.326       45.524       22.599       18.632     2072.405      510.701      347.144        0.414        0.147       73.088       17.169        0.055      341.591       16.411      859.888
06/18/2013  02:04:00       20.505       -6.226        2.321       19.172       28.382       15.753      367.564      805.556      248.165        0.094        0.071       21.429       16.578        0.598      341.452       16.173      859.865
06/18/2013  02:05:00       29.764       55.563       86.139       47.613       69.304       52.983     2266.978     4802.996     2807.206        1.063        0.494       63.033       53.501        0.720      341.514       16.280      859.842
06/18/2013  02:06:00      -48.488      -34.926       20.976       39.600       72.910       58.365     1568.193     5315.797     3406.433        0.715        0.515       59.757       55.498        0.863      341.772       16.717      859.863
06/18/2013  02:07:00      -59.868      -39.886      -11.844       42.451       19.306       13.775     1802.063      372.722      189.746        0.384        0.118       71.938       13.926        0.037      341.465       16.196      859.894
06/18/2013  02:08:00      -40.016      -42.935       11.629       53.178       59.454       23.862     2827.899     3534.732      569.379        0.525        0.347       58.691       31.085        0.281      341.584       16.398      859.898
06/18/2013  02:09:00      -34.216       28.535       29.513       42.453       34.639       36.201     1802.285     1199.845     1310.500        0.358        0.216       44.554       27.257        0.374      341.529       16.305      859.856
06/18/2013  02:10:00      -87.929       13.559       -7.059       51.641       28.157       19.073     2666.753      792.798      363.784        0.589        0.191       88.969       17.257        0.038      341.265       15.858      859.810
06/18/2013  02:11:00      -28.907       13.090       -1.320       23.558       16.235       11.563      554.959      263.579      133.704        0.098        0.048       31.733       10.756        0.115      341.366       16.027      859.784
06/18/2013  02:12:00      -39.756      -15.634       -7.519       24.366        9.290        7.635      593.709       86.308       58.301        0.131        0.037       42.720        9.429        0.049      341.457       16.183      859.799
06/18/2013  02:13:00      -21.698      -10.605       -3.373       28.555       18.340        8.967      815.401      336.370       80.400        0.091        0.062       24.151       13.310        0.304      341.487       16.231      859.796
06/18/2013  02:14:00       31.041       36.598        8.947       12.193       10.657       11.041      148.679      113.565      121.894        0.138        0.019       47.990        6.905        0.021      341.479       16.219      859.742
06/18/2013  02:15:00      -29.205       17.307       -4.104       13.001       11.634        7.327      169.023      135.350       53.691        0.076        0.018       33.948        6.431        0.036      341.763       16.701      859.745
06/18/2013  02:16:00      -92.481      -24.447       -6.709       35.647       18.376       10.442     1270.692      337.681      109.040        0.546        0.086       95.658       12.350        0.017      341.619       16.458      859.778
06/18/2013  02:17:00     -101.476      -63.117       -0.444       54.791       37.296       25.119     3002.090     1390.984      630.957        0.965        0.251      119.504       18.310        0.023      341.210       15.766      859.812
06/18/2013  02:18:00      -52.689       -5.816        1.921       10.413       20.246        7.980      108.421      409.902       63.673        0.170        0.029       53.009        4.773        0.008      341.602       16.428      859.818
06/18/2013  02:19:00      -28.205       -1.331       -0.142       17.848        8.943        8.974      318.563       79.972       80.540        0.064        0.024       28.237        8.964        0.101      341.378       16.050      859.817
06/18/2013  02:20:00      -56.835       16.577       -2.936       22.645       16.176        6.705      512.804      261.653       44.956        0.217        0.041       59.203        7.196        0.015      341.291       15.901      859.798
06/18/2013  02:21:00      -57.007       39.833       -9.277       26.153       17.817       15.072      684.003      317.451      227.173        0.308        0.061       69.545        7.508        0.012      341.154       15.669      859.762
06/18/2013  02:22:00      -37.636       74.406       -7.379       31.051       30.787       18.371      964.191      947.823      337.492        0.463        0.112       83.383       21.986        0.070      341.224       15.789      859.712
06/18/2013  02:23:00       -1.832       25.233       -1.200       18.008       31.985       11.819      324.287     1023.037      139.692        0.106        0.074       25.300       13.955        0.304      341.381       16.055      859.699
06/18/2013  02:24:00      -23.028      -15.878       -6.226       38.875       18.635       12.616     1511.260      347.278      159.155        0.142        0.101       27.972       11.809        0.178      341.354       16.008      859.758
06/18/2013  02:25:00      -93.473      -27.343       -8.553       14.914       18.713       12.513      222.429      350.184      156.572        0.514        0.036       97.390        7.979        0.007      341.155       15.673      859.817
06/18/2013  02:26:00     -115.458      -34.589       -5.462       16.868       18.854       11.527      284.515      355.469      132.882        0.766        0.039      120.528        7.615        0.004      341.001       15.411      859.835
06/18/2013  02:27:00     -100.989        7.412      -10.099       40.571       31.644       18.106     1646.012     1001.359      327.834        0.666        0.149      101.260       17.865        0.031      340.678       14.863      859.814
06/18/2013  02:28:00      -55.217       42.328       -1.109       31.051       26.906       24.330      964.141      723.935      591.964        0.356        0.114       69.574       14.633        0.044      340.805       15.079      859.769
06/18/2013  02:29:00      -38.608       66.066       -8.865       22.732       25.552       14.709      516.734      652.899      216.351        0.366        0.069       76.520       12.331        0.026      341.117       15.607      859.716
06/18/2013  02:30:00      -33.590       62.740      -13.464       20.925       19.630       12.545      437.870      385.344      157.388        0.311        0.049       71.166       12.022        0.029      341.267       15.860      859.699
06/18/2013  02:31:00      -31.953       34.631       -8.746       21.848       17.974        8.153      477.319      323.079       66.468        0.158        0.043       47.120        9.934        0.044      341.272       15.870      859.733
06/18/2013  02:32:00      -51.419        5.325       -6.713       16.083       18.534       10.342      258.658      343.501      106.952        0.171        0.035       51.694        9.909        0.037      341.200       15.749      859.766
06/18/2013  02:33:00      -34.015        5.074       -5.418       13.952       11.819        9.983      194.654      139.688       99.654        0.082        0.022       34.391       10.046        0.085      341.167       15.693      859.773
06/18/2013  02:34:00      -24.349       45.820      -10.294       18.331       14.027        8.137      336.012      196.743       66.214        0.170        0.030       51.888        6.953        0.018      341.433       16.141      859.777
06/18/2013  02:35:00       21.438       48.371       -6.152       17.984       17.339        7.716      323.433      300.625       59.532        0.176        0.034       52.909        8.328        0.025      341.675       16.554      859.778
06/18/2013  02:36:00       36.758       31.622        2.262       10.996       11.947        8.699      120.921      142.723       75.675        0.135        0.017       48.488        3.492        0.005      341.393       16.072      859.761
06/18/2013  02:37:00       49.975       30.902       -3.014       17.555       16.119       17.670      308.183      259.814      312.227        0.217        0.044       58.757        8.635        0.022      341.237       15.811      859.734
06/18/2013  02:38:00       23.965       38.007       -1.287       18.550       12.710       10.512      344.092      161.534      110.504        0.132        0.031       44.932        9.172        0.042      341.124       15.619      859.726
06/18/2013  02:39:00       -0.888       27.237       -3.488       21.288       11.612        7.640      453.168      134.849       58.365        0.070        0.032       27.251        4.744        0.030      341.343       15.990      859.736
06/18/2013  02:40:00      -32.443       11.096       -3.681       28.949       18.450        7.858      838.065      340.392       61.741        0.121        0.062       34.288       11.266        0.108      341.404       16.093      859.754
06/18/2013  02:41:00      -61.609       16.755      -10.724        9.795       12.381        9.569       95.944      153.294       91.574        0.227        0.017       63.846        7.252        0.013      341.081       15.546      859.750
06/18/2013  02:42:00       -0.792       94.589      -13.385       22.448       46.554       13.758      503.913     2167.298      189.271        0.599        0.143       94.593       10.646        0.013      341.624       16.467      859.682
06/18/2013  02:43:00       60.754       48.536        7.498       61.872       59.512       35.498     3828.125     3541.630     1260.074        0.736        0.431       77.761       34.257        0.194      341.415       16.112      859.598
06/18/2013  02:44:00       -6.755      -10.464       -3.449       57.250       36.774       27.244     3277.518     1352.362      742.251        0.277        0.269       12.455       21.974        3.113      341.277       15.879      859.572
06/18/2013  02:45:00      -71.391      -25.372      -11.111       31.690       30.152       27.544     1004.229      909.161      758.679        0.427        0.134       75.766        6.757        0.008      340.706       14.911      859.625
06/18/2013  02:46:00      -93.134      -46.221       -5.208       41.926       43.468       24.252     1757.762     1889.438      588.146        0.754        0.212      103.972       16.670        0.026      340.516       14.591      859.698
06/18/2013  02:47:00      -55.162      -31.513        0.340       37.550       21.102       14.918     1410.028      445.288      222.558        0.306        0.104       63.529       14.558        0.053      340.640       14.801      859.738
06/18/2013  02:48:00      -26.535      -20.790       13.100       36.656       20.311       27.764     1343.631      412.531      770.844        0.192        0.126       33.710       24.786        0.541      340.909       15.255      859.738
06/18/2013  02:49:00       14.227        4.358       11.210       20.758        7.417        9.252      430.891       55.007       85.605        0.046        0.029       14.879       10.733        0.520      340.820       15.105      859.706
06/18/2013  02:50:00       28.569       13.601        6.886       11.852        7.058        9.996      140.469       49.809       99.910        0.067        0.015       31.641        8.369        0.070      340.900       15.241      859.670
06/18/2013  02:51:00        1.579       24.106       -6.904        9.407       11.679        6.822       88.494      136.407       46.539        0.045        0.014       24.158        6.982        0.084      341.165       15.688      859.642
06/18/2013  02:52:00       -0.263       22.572       -2.149       11.305       23.917        6.846      127.799      572.021       46.873        0.063        0.037       22.573        4.831        0.046      341.082       15.547      859.611
06/18/2013  02:53:00      -25.312       71.036       -0.717       22.701       31.269       17.292      515.336      977.728      299.017        0.374        0.090       75.411       16.409        0.047      341.372       16.040      859.585
06/18/2013  02:54:00      -40.240        7.347       -2.269       25.939       16.630       14.403      672.827      276.542      207.437        0.142        0.058       40.905        8.100        0.039      340.915       15.265      859.586
06/18/2013  02:55:00      -69.615       -0.353      -10.896       14.217       20.006        9.742      202.135      400.240       94.904        0.283        0.035       69.616        5.664        0.007      340.835       15.129      859.600
06/18/2013  02:56:00     -118.119      -32.120      -17.468       20.214       23.674       11.300      408.625      560.441      127.681        0.819        0.055      122.408        5.118        0.002      340.684       14.876      859.628
06/18/2013  02:57:00     -121.540      -36.337      -11.370       30.251       29.780       18.855      915.101      886.846      355.496        0.919        0.108      126.856       16.467        0.017      340.424       14.435      859.665
06/18/2013  02:58:00      -66.999      -22.885       -0.918       31.192       25.334       15.584      972.969      641.797      242.857        0.344        0.093       70.800       16.506        0.054      340.415       14.420      859.695
06/18/2013  02:59:00      -13.925        0.036        5.583       17.421       14.653       11.921      303.481      214.709      142.114        0.044        0.033       13.925       12.833        0.849      340.410       14.412      859.693
06/18/2013  03:00:00       -4.792       -0.577       -0.531       12.198       11.402       10.516      148.797      130.002      110.578        0.021        0.019        4.827        8.291        2.950      340.482       14.532      859.672
06/18/2013  03:01:00      -44.021       22.821       -8.053       27.862       17.942       13.677      776.266      321.927      187.053        0.190        0.064       49.585       15.581        0.099      340.708       14.915      859.634
06/18/2013  03:02:00     -106.398       13.970      -13.584       27.015       11.782       10.412      729.815      138.815      108.420        0.634        0.049      107.311        9.381        0.008      340.741       14.970      859.614
06/18/2013  03:03:00     -122.782        7.396      -19.696       23.086       16.963       14.114      532.940      287.754      199.216        0.827        0.051      123.005       13.003        0.011      340.736       14.963      859.627
06/18/2013  03:04:00      -74.084      -19.653       -9.008       20.192       21.750       14.894      407.697      473.076      221.819        0.353        0.055       76.646        8.547        0.012      340.701       14.903      859.653
06/18/2013  03:05:00       -7.661      -10.449       -7.032       17.348       14.592       13.891      300.954      212.927      192.973        0.046        0.035       12.957       10.789        0.693      340.690       14.885      859.655
06/18/2013  03:06:00       -4.874       21.810        1.916       22.549       10.684        8.786      508.438      114.157       77.188        0.060        0.035       22.348        5.580        0.062      341.019       15.441      859.631
06/18/2013  03:07:00       45.883       33.265        5.587       13.512       15.757       13.101      182.576      248.284      171.635        0.192        0.030       56.673        6.885        0.015      340.827       15.117      859.601
06/18/2013  03:08:00       13.745       93.117       -3.355       16.543       37.886       14.280      273.682     1435.372      203.914        0.539        0.096       94.126       15.636        0.028      341.058       15.508      859.570
06/18/2013  03:09:00      -14.341       72.844      -10.937       23.472       16.896       11.940      550.941      285.466      142.552        0.331        0.049       74.242        9.378        0.016      340.769       15.018      859.562
06/18/2013  03:10:00      -61.075        2.622       -6.841       17.590       29.836       12.258      309.394      890.209      150.260        0.257        0.067       61.131        9.008        0.022      340.547       14.643      859.563
06/18/2013  03:11:00     -139.495      -32.688      -22.056       36.490       23.162       16.059     1331.512      536.478      257.906        1.157        0.106      143.274        8.734        0.004      340.239       14.121      859.566
06/18/2013  03:12:00     -131.697      -51.066       -6.334       33.465       28.773       18.219     1119.881      827.859      331.922        1.114        0.114      141.251       17.060        0.015      340.215       14.081      859.561
06/18/2013  03:13:00     -112.466      -35.583       -6.254       30.648       32.388       16.177      939.321     1048.956      261.684        0.810        0.112      117.961       12.285        0.011      340.152       13.974      859.537
06/18/2013  03:14:00      -73.737      -31.325       -4.448       26.884       19.303       15.933      722.741      372.617      253.851        0.389        0.067       80.115       14.048        0.031      340.250       14.140      859.527
06/18/2013  03:15:00       31.032        4.517        7.176       27.517       18.493       10.435      757.183      341.983      108.897        0.112        0.060       31.359        5.450        0.030      340.383       14.365      859.523
06/18/2013  03:16:00       43.736       37.702       -1.743       16.404       13.337       10.180      269.088      177.863      103.636        0.194        0.028       57.743        8.333        0.021      341.260       15.850      859.524
06/18/2013  03:17:00       35.851       35.960        5.043       19.844       11.276        8.485      393.769      127.138       71.991        0.160        0.030       50.778        7.528        0.022      341.132       15.634      859.536
06/18/2013  03:18:00       17.460       -0.046       -2.055       13.726       25.963       11.493      188.406      674.098      132.087        0.065        0.050       17.460        8.756        0.252      340.966       15.351      859.547
06/18/2013  03:19:00        6.075      -29.639      -13.165       24.928       12.573        9.280      621.408      158.071       86.126        0.098        0.043       30.255       11.575        0.146      340.654       14.825      859.551
06/18/2013  03:20:00      -56.979       -7.859      -12.313        9.185        6.924        6.620       84.367       47.943       43.829        0.182        0.009       57.519        4.629        0.006      340.437       14.457      859.537
06/18/2013  03:21:00      -77.755       -1.853       -6.215        8.298       11.898        7.816       68.858      141.555       61.088        0.318        0.014       77.777        5.266        0.005      340.486       14.540      859.518
06/18/2013  03:22:00      -85.540       28.776      -16.585       16.602       12.435       11.643      275.614      154.629      135.555        0.449        0.028       90.251        5.846        0.004      340.466       14.506      859.494
06/18/2013  03:23:00      -31.849       13.526       -6.701       22.878       11.558        9.513      523.386      133.578       90.498        0.099        0.037       34.602        8.704        0.063      340.544       14.639      859.481
06/18/2013  03:24:00      -40.459       -5.947       -8.970       12.337       17.009        7.967      152.199      289.296       63.473        0.113        0.025       40.894        6.108        0.022      340.540       14.631      859.494
06/18/2013  03:25:00      -33.295      -15.877      -10.429       17.371       19.272       16.901      301.760      371.393      285.656        0.121        0.048       36.887        5.464        0.022      340.456       14.490      859.509
06/18/2013  03:26:00      -71.693      -24.718      -10.936       12.861       11.404        7.229      165.408      130.056       52.262        0.311        0.017       75.835        5.153        0.005      340.375       14.354      859.502
06/18/2013  03:27:00     -106.395      -15.996      -14.476       34.920       14.594       12.459     1219.429      212.980      155.222        0.669        0.079      107.591       15.908        0.022      340.280       14.193      859.479
06/18/2013  03:28:00     -100.333      -18.935       -5.093       53.918       39.290       27.767     2907.127     1543.729      771.002        0.784        0.261      102.104       26.242        0.066      340.057       13.815      859.471
06/18/2013  03:29:00      -86.381      -19.149       -6.783       35.672       25.381       15.339     1272.479      644.198      235.295        0.501        0.108       88.478       14.648        0.027      339.942       13.623      859.501
06/18/2013  03:30:00       -9.213      -13.554        6.774       10.938       10.920        9.489      119.634      119.247       90.034        0.032        0.016       16.389        6.936        0.179      340.018       13.750      859.494
06/18/2013  03:31:00      -57.445      -25.888       -3.733       23.605        8.949        8.186      557.183       80.082       67.007        0.234        0.035       63.009        5.673        0.008      340.192       14.043      859.484
06/18/2013  03:32:00      -81.956      -19.837      -12.981       13.790       11.017        7.828      190.170      121.372       61.272        0.383        0.019       84.322        5.658        0.005      340.156       13.981      859.480
06/18/2013  03:33:00      -96.734      -42.189       -9.963       14.691       18.328       12.246      215.829      335.920      149.961        0.597        0.035      105.534        7.412        0.005      340.212       14.076      859.473
06/18/2013  03:34:00      -94.666      -57.778      -11.227       33.045       26.714       21.113     1091.999      713.632      445.774        0.734        0.113      110.905       12.848        0.013      340.090       13.870      859.472
06/18/2013  03:35:00      -75.145      -41.652      -16.330       38.566       26.272       25.262     1487.348      690.233      638.171        0.523        0.141       85.916       21.903        0.065      340.060       13.821      859.468
06/18/2013  03:36:00      -51.779      -26.008       -5.921       28.217       19.639       13.841      796.227      385.695      191.570        0.238        0.069       57.944        8.377        0.021      340.085       13.863      859.456
06/18/2013  03:37:00      -57.548      -31.782      -12.031       23.587       17.590        9.890      556.328      309.395       97.810        0.271        0.048       65.741        8.384        0.016      340.178       14.019      859.457
06/18/2013  03:38:00      -68.630      -31.437      -13.055       17.838       10.370        9.714      318.209      107.530       94.361        0.319        0.026       75.488        6.580        0.008      340.115       13.911      859.454
06/18/2013  03:39:00     -120.212      -27.639      -16.350       19.644       12.465       10.122      385.883      155.385      102.451        0.806        0.032      123.349        4.733        0.001      340.051       13.804      859.457
06/18/2013  03:40:00     -116.534      -49.820      -22.050       30.262       32.307       16.325      915.796     1043.732      266.502        0.939        0.111      126.737       16.751        0.017      339.889       13.531      859.469
06/18/2013  03:41:00      -90.832      -32.366        3.020       70.044       37.393       25.194     4906.205     1398.246      634.756        0.812        0.347       96.426       34.174        0.126      339.765       13.323      859.471
06/18/2013  03:42:00     -136.747      -12.516        0.526       50.933       48.451       27.566     2594.176     2347.540      759.864        1.228        0.285      137.318       29.786        0.047      339.777       13.342      859.479
06/18/2013  03:43:00     -159.753      -33.477      -11.241       42.072       31.393       26.041     1770.070      985.526      678.143        1.510        0.172      163.223       11.324        0.005      339.709       13.226      859.485
06/18/2013  03:44:00     -119.830        4.882       -7.040       52.946       37.871       23.972     2803.241     1434.175      574.637        0.962        0.241      119.929       27.467        0.052      339.699       13.212      859.481
06/18/2013  03:45:00      -88.341       24.523       -4.186       38.268       25.155       18.948     1464.431      632.762      359.025        0.544        0.123       91.681       18.331        0.040      339.772       13.336      859.479
06/18/2013  03:46:00      -19.957       -0.998        2.887       43.359       15.661       21.380     1879.976      245.270      457.107        0.149        0.129       19.982       22.061        1.219      339.768       13.328      859.468
06/18/2013  03:47:00      -61.748      -23.695       -8.561       23.812       27.898       15.654      567.002      778.291      245.050        0.302        0.080       66.138       12.218        0.034      339.846       13.459      859.463
06/18/2013  03:48:00      -43.030      -50.926        0.341       31.861       22.989       20.123     1015.133      528.493      404.918        0.320        0.097       66.671       14.810        0.049      339.835       13.440      859.454
06/18/2013  03:49:00      -66.797      -41.727       -5.794       13.171       17.015        8.744      173.478      289.507       76.460        0.339        0.027       78.759        5.726        0.005      339.833       13.439      859.462
06/18/2013  03:50:00      -97.913      -42.233      -10.190       31.879       16.654       10.652     1016.259      277.348      113.468        0.644        0.070      106.633       11.415        0.011      339.889       13.533      859.472
06/18/2013  03:51:00     -163.993      -66.445      -11.883       21.374       23.281       14.058      456.842      542.015      197.620        1.632        0.060      176.943       10.569        0.004      339.805       13.391      859.472
06/18/2013  03:52:00     -119.913      -40.769        0.774       38.130       23.311       18.484     1453.909      543.397      341.647        0.919        0.117      126.654       16.547        0.017      339.805       13.391      859.472
06/18/2013  03:53:00      -67.375      -26.274       -6.972       28.141       25.446       15.150      791.920      647.478      229.516        0.347        0.083       72.316       13.848        0.037      339.855       13.474      859.462
06/18/2013  03:54:00      -56.604      -38.251        0.240       19.110       16.187       12.068      365.209      262.014      145.640        0.272        0.039       68.316        8.895        0.017      339.993       13.707      859.459
06/18/2013  03:55:00      -29.163      -32.247        0.636       39.348       20.062       16.638     1548.275      402.465      276.823        0.206        0.111       43.478       18.133        0.174      339.984       13.691      859.459
06/18/2013  03:56:00      -62.378      -41.445       -4.770       39.822       30.625       22.879     1585.773      937.885      523.444        0.434        0.152       74.891       20.162        0.072      339.899       13.549      859.460
06/18/2013  03:57:00     -138.906      -21.760       -9.550       46.801       32.729       22.776     2190.370     1071.184      518.746        1.182        0.189      140.600       27.970        0.040      339.916       13.577      859.444
06/18/2013  03:58:00     -107.360      -58.951       -0.455       31.798       28.591       17.838     1011.086      817.423      318.209        0.857        0.107      122.480       16.555        0.018      339.829       13.432      859.435
06/18/2013  03:59:00     -121.143      -37.083       -7.452       18.703       24.231       14.594      349.798      587.140      212.989        0.863        0.057      126.692        7.862        0.004      339.887       13.527      859.434
06/18/2013  04:00:00     -131.866      -39.487      -18.937       13.216       16.809       14.634      174.665      282.544      214.156        0.999        0.034      137.651        6.469        0.002      339.799       13.380      859.435
06/18/2013  04:01:00     -132.122      -26.246      -11.251       11.064       15.235       10.944      122.408      232.120      119.761        0.937        0.024      134.704        5.773        0.002      339.913       13.571      859.424
06/18/2013  04:02:00     -144.312      -42.381      -12.908       16.179       17.022       10.997      261.766      289.742      120.937        1.173        0.034      150.406       10.175        0.005      339.833       13.439      859.420
06/18/2013  04:03:00     -109.928      -18.960       -8.310       37.022       25.914       17.103     1370.663      671.553      292.526        0.742        0.117      111.551       12.739        0.013      339.711       13.231      859.418
06/18/2013  04:04:00      -83.867      -61.665       -6.122       19.273       30.678       14.779      371.446      941.110      218.410        0.620        0.077      104.097       10.856        0.011      339.864       13.489      859.405
06/18/2013  04:05:00      -90.554      -64.251       -5.146       65.771       30.836       23.271     4325.767      950.832      541.553        0.909        0.291      111.033       27.593        0.062      339.771       13.334      859.370
06/18/2013  04:06:00     -190.493       40.801      -14.218       49.944       39.670       19.682     2494.428     1573.702      387.386        2.130        0.223      194.813       20.451        0.011      339.910       13.566      859.336
06/18/2013  04:07:00     -146.066       48.340       -7.861       59.839       30.246       20.984     3580.663      914.809      440.345        1.433        0.247      153.858       17.996        0.014      339.821       13.417      859.311
06/18/2013  04:08:00     -106.521      -30.715       -3.379       39.185       34.877       19.569     1535.495     1216.426      382.943        0.772        0.157      110.861       20.236        0.033      339.800       13.382      859.303
06/18/2013  04:09:00      -69.358      -39.748        1.175       49.468       25.016       21.157     2447.094      625.791      447.629        0.496        0.176       79.940       27.442        0.118      339.733       13.268      859.313
06/18/2013  04:10:00      -64.602      -37.463        3.187       38.170       30.907       19.016     1456.941      955.250      361.611        0.418        0.139       74.679       16.574        0.049      339.650       13.129      859.333
06/18/2013  04:11:00      -64.352      -28.305       -4.492       23.312       20.904        9.212      543.452      436.972       84.860        0.301        0.053       70.302        6.875        0.010      339.696       13.207      859.334
06/18/2013  04:12:00      -97.496      -45.945       -9.523       27.951       21.432       15.282      781.260      459.317      233.554        0.659        0.074      107.780       13.596        0.016      339.722       13.251      859.328
06/18/2013  04:13:00      -80.806      -65.569       -7.508       29.261       30.150       19.605      856.194      908.998      384.360        0.652        0.107      104.062       14.188        0.019      339.722       13.250      859.329
06/18/2013  04:14:00     -106.711      -45.870       -7.077       24.035       23.893       13.289      577.674      570.859      176.605        0.743        0.066      116.152       11.474        0.010      339.676       13.174      859.334
06/18/2013  04:15:00     -117.368      -11.604       -9.952       41.006       28.301       19.982     1681.461      800.922      399.266        0.844        0.144      117.940       22.857        0.038      339.565       12.984      859.339
06/18/2013  04:16:00     -100.717      -24.012       -5.132       40.958       34.200       21.634     1677.529     1169.649      468.041        0.703        0.166      103.540       20.937        0.041      339.479       12.841      859.334
06/18/2013  04:17:00      -85.029      -14.632        1.089       45.940       30.337       19.523     2110.445      920.315      381.128        0.543        0.171       86.279       23.178        0.072      339.503       12.880      859.324
06/18/2013  04:18:00      -39.114      -32.587        1.151       41.420       28.308       23.156     1715.634      801.358      536.198        0.282        0.153       50.910       21.583        0.180      339.618       13.076      859.331
06/18/2013  04:19:00      -97.982      -71.277      -11.126       60.903       43.584       27.313     3709.126     1899.564      745.997        1.058        0.318      121.165        5.361        0.002      339.534       12.933      859.324
06/18/2013  04:20:00     -139.460      -50.051        3.307       69.020       49.615       26.179     4763.769     2461.605      685.314        1.494        0.396      148.170       18.938        0.016      339.385       12.680      859.321
06/18/2013  04:21:00     -113.142      -30.599       -3.236       52.367       32.250       22.930     2742.309     1040.031      525.774        0.903        0.215      117.207       26.386        0.051      339.341       12.608      859.328
06/18/2013  04:22:00      -46.256      -69.817       -3.716       34.894       29.098       20.693     1217.586      846.669      428.191        0.476        0.125       83.750       19.486        0.054      339.526       12.918      859.322
06/18/2013  04:23:00      -65.767      -48.974       -2.702       41.961       22.987       26.844     1760.713      528.406      720.619        0.487        0.150       81.998       23.173        0.080      339.580       13.010      859.315
06/18/2013  04:24:00      -62.896      -47.119       -4.093       29.873       19.653       13.629      892.386      386.231      185.752        0.383        0.073       78.588       10.170        0.017      339.554       12.968      859.302
06/18/2013  04:25:00      -88.334      -62.253       -1.420       33.494       20.764       19.510     1121.850      431.138      380.621        0.681        0.097      108.066        8.058        0.006      339.596       13.035      859.282
06/18/2013  04:26:00      -81.713      -30.547       -4.598       45.823       29.074       27.064     2099.769      845.280      732.468        0.565        0.184       87.236       27.492        0.099      339.543       12.948      859.247
06/18/2013  04:27:00      -96.987      -27.592       -0.502       37.047       31.829       22.006     1372.509     1013.087      484.260        0.652        0.143      100.835       21.801        0.047      339.420       12.740      859.203
06/18/2013  04:28:00     -136.699      -16.812      -12.496       45.195       24.097       22.446     2042.590      580.683      503.801        1.113        0.156      137.729       22.113        0.026      339.379       12.671      859.191
06/18/2013  04:29:00     -135.972      -31.536        2.226       55.096       41.888       25.112     3035.564     1754.642      630.628        1.245        0.271      139.581       24.262        0.030      339.289       12.519      859.206
06/18/2013  04:30:00     -124.085      -25.192       -1.313       50.615       40.165       25.656     2561.831     1613.216      658.233        1.043        0.242      126.616       23.876        0.036      339.375       12.665      859.206
06/18/2013  04:31:00     -151.121      -43.966       -2.812       47.062       44.743       24.897     2214.793     2001.910      619.870        1.481        0.242      157.386       21.895        0.019      339.303       12.544      859.217
06/18/2013  04:32:00     -164.773       35.964       -7.281       39.534       28.026       22.942     1562.920      785.481      526.317        1.569        0.144      168.652       19.838        0.014      339.319       12.570      859.210
06/18/2013  04:33:00     -130.551       28.170      -13.937       43.133       29.544       21.947     1860.455      872.858      481.682        1.062        0.161      133.555       16.778        0.016      339.369       12.655      859.181
06/18/2013  04:34:00      -93.680       37.173       -1.060       52.489       37.172       29.587     2755.145     1381.772      875.412        0.758        0.251      100.785       22.428        0.050      339.392       12.693      859.161
06/18/2013  04:35:00      -53.538       -1.313        6.765       39.756       35.762       25.442     1580.512     1278.948      647.283        0.321        0.175       53.554       21.381        0.159      339.328       12.586      859.159
06/18/2013  04:36:00      -32.681      -14.308       18.346       46.172       38.695       26.595     2131.836     1497.270      707.312        0.297        0.217       35.676       30.708        0.741      339.286       12.516      859.168
06/18/2013  04:37:00      -52.680      -13.995       -7.657       33.785       23.235       16.416     1141.447      539.850      269.488        0.249        0.098       54.507       18.374        0.114      339.259       12.469      859.218
06/18/2013  04:38:00       -8.981      -78.896       -8.278       36.134       27.075       15.938     1305.683      733.064      254.007        0.433        0.115       79.406        4.353        0.003      339.532       12.929      859.260
06/18/2013  04:39:00      -23.844      -42.262        4.871       34.532       36.341       18.961     1192.436     1320.649      359.513        0.262        0.144       48.525       19.846        0.167      339.527       12.923      859.250
06/18/2013  04:40:00      -82.010       -0.828       -7.869       17.748       13.540       13.018      315.008      183.325      169.474        0.373        0.033       82.015        9.551        0.014      339.442       12.778      859.183
06/18/2013  04:41:00     -145.405      -19.466      -18.841       23.761       14.481       12.293      564.583      209.696      151.122        1.140        0.046      146.702        9.689        0.004      339.450       12.791      859.131
06/18/2013  04:42:00     -162.885      -80.555       -5.265       57.139       42.518       29.143     3264.871     1807.820      849.330        1.948        0.296      181.716       21.138        0.014      339.312       12.557      859.138
06/18/2013  04:43:00     -178.752     -103.520      -10.068       95.906       41.749       35.080     9197.996     1742.939     1230.637        2.747        0.609      206.564       19.556        0.009      339.302       12.539      859.179
06/18/2013  04:44:00     -133.865      -61.303        7.681       51.405       48.261       29.724     2642.451     2329.083      883.489        1.379        0.293      147.234       26.494        0.032      339.207       12.381      859.200
06/18/2013  04:45:00     -116.963       22.732       -6.300       36.097       23.614       20.325     1302.976      557.631      413.090        0.825        0.114      119.152       12.323        0.011      339.169       12.320      859.186
06/18/2013  04:46:00     -104.936       18.963       -4.212       39.459       33.057       15.736     1557.010     1092.733      247.625        0.714        0.145      106.635       12.681        0.014      339.293       12.526      859.152
06/18/2013  04:47:00      -87.254      -14.728       -2.946       60.726       36.429       25.325     3687.603     1327.051      641.378        0.675        0.283       88.488       27.280        0.095      339.233       12.427      859.124
06/18/2013  04:48:00     -156.521        8.026      -14.976       48.646       52.527       25.905     2366.472     2759.058      671.067        1.529        0.290      156.726       16.152        0.011      339.085       12.176      859.126
06/18/2013  04:49:00     -244.423      -47.782      -20.864       61.969       46.784       32.034     3840.204     2188.709     1026.199        3.476        0.353      249.049       31.205        0.016      338.919       11.894      859.151
06/18/2013  04:50:00     -190.181      -36.914       -6.745       80.880       61.347       35.699     6541.596     3763.462     1274.390        2.458        0.579      193.731       40.330        0.043      338.941       11.932      859.176
06/18/2013  04:51:00     -147.585      -57.041       -4.710       60.218       30.019       24.766     3626.189      901.164      613.379        1.510        0.257      158.224       28.314        0.032      339.091       12.186      859.195
06/18/2013  04:52:00     -115.974      -60.684       -5.858       39.202       32.349       26.680     1536.825     1046.430      711.811        1.023        0.165      130.891       20.099        0.024      339.062       12.137      859.205
06/18/2013  04:53:00      -77.823      -25.964       -4.613       27.082       32.601       14.050      733.442     1062.802      197.415        0.437        0.100       82.040       12.806        0.024      339.086       12.177      859.183
06/18/2013  04:54:00     -107.937       -7.966       -9.084       19.392       17.121       11.712      376.045      293.119      137.171        0.630        0.040      108.230        8.330        0.006      339.163       12.307      859.146
06/18/2013  04:55:00     -118.132       16.784       -2.873       38.441       32.156       26.483     1477.743     1033.987      701.360        0.873        0.161      119.318       16.003        0.018      339.168       12.317      859.115
06/18/2013  04:56:00     -125.493       53.099       -6.966       42.902       32.736       23.500     1840.553     1071.627      552.235        1.104        0.173      136.264       19.363        0.020      339.209       12.385      859.096
06/18/2013  04:57:00     -152.170       22.249       -8.758       49.009       34.717       27.891     2401.865     1205.278      777.905        1.406        0.219      153.788       23.296        0.023      339.202       12.374      859.074
06/18/2013  04:58:00     -143.128      -15.455      -15.348       44.771       47.166       24.364     2004.447     2224.674      593.609        1.289        0.241      143.960       19.812        0.019      339.150       12.284      859.050
06/18/2013  04:59:00     -155.523      -37.595      -11.654       41.651       30.140       21.334     1734.775      908.417      455.151        1.442        0.155      160.002       15.097        0.009      339.021       12.071      859.053
06/18/2013  05:00:00     -166.813      -24.338       -8.789       32.722       38.672       23.543     1070.711     1495.491      554.274        1.581        0.156      168.579       19.814        0.014      339.009       12.050      859.075
06/18/2013  05:01:00     -101.632      -11.560       -2.771       50.230       37.685       25.389     2523.018     1420.164      644.578        0.753        0.229      102.287       28.185        0.076      338.924       11.904      859.103
06/18/2013  05:02:00     -162.341        0.544      -16.284       43.421       36.915       28.974     1885.394     1362.705      839.479        1.535        0.204      162.342       25.967        0.026      339.023       12.073      859.122
06/18/2013  05:03:00     -150.141       14.284      -11.577       32.106       30.590       20.917     1030.782      935.721      437.504        1.264        0.120      150.819       15.778        0.011      338.965       11.975      859.144
06/18/2013  05:04:00     -141.577       12.062       -9.626       49.737       33.355       21.627     2473.808     1112.539      467.729        1.217        0.203      142.090       17.731        0.016      338.915       11.890      859.148
06/18/2013  05:05:00     -143.785       10.041      -15.961       33.431       32.364       23.830     1117.648     1047.444      567.879        1.188        0.137      144.135       20.295        0.020      338.900       11.865      859.140
06/18/2013  05:06:00     -164.999       31.493      -17.617       29.685       37.120       20.446      881.189     1377.863      418.025        1.560        0.134      167.978       12.600        0.006      338.883       11.838      859.139
06/18/2013  05:07:00     -169.740       48.033      -11.751       52.423       35.009       23.616     2748.214     1225.625      557.698        1.789        0.227      176.405       15.212        0.007      338.855       11.788      859.125
06/18/2013  05:08:00     -109.054       21.729       -6.356       60.428       38.432       24.876     3651.531     1477.039      618.822        0.908        0.287      111.198       19.323        0.030      338.932       11.919      859.098
06/18/2013  05:09:00     -150.142       27.005      -11.014       46.671       46.122       28.864     2178.215     2127.229      833.134        1.426        0.257      152.551       19.672        0.017      338.976       11.994      859.101
06/18/2013  05:10:00     -154.199       28.077      -15.210       35.709       34.772       20.044     1275.135     1209.080      401.753        1.384        0.144      156.734       12.892        0.007      338.871       11.816      859.107
06/18/2013  05:11:00     -129.092        1.342      -15.236       31.943       21.342       15.133     1020.334      455.481      228.995        0.930        0.085      129.099       16.597        0.017      338.846       11.776      859.106
06/18/2013  05:12:00      -76.565      -21.647       -2.088       33.533       38.721       17.285     1124.431     1499.347      298.768        0.463        0.146       79.566        5.413        0.005      338.760       11.631      859.111
06/18/2013  05:13:00     -113.333      -10.661      -10.513       31.754       28.700       25.018     1008.330      823.686      625.897        0.776        0.123      113.833       21.346        0.035      338.750       11.613      859.093
06/18/2013  05:14:00     -136.179       -7.066      -16.229       28.337       30.695       22.251      802.973      942.184      495.111        1.055        0.112      136.363       16.360        0.014      338.819       11.729      859.083
06/18/2013  05:15:00     -144.446      -12.353      -13.178       35.056       39.112       21.378     1228.891     1529.728      457.002        1.220        0.161      144.973       19.013        0.017      338.805       11.707      859.076
06/18/2013  05:16:00     -159.628       37.717      -18.152       39.324       33.601       21.104     1546.354     1129.003      445.373        1.518        0.156      164.024       16.486        0.010      338.795       11.689      859.100
06/18/2013  05:17:00     -172.455        9.222      -19.028       28.863       22.086       15.621      833.067      487.786      244.003        1.588        0.078      172.701       13.629        0.006      338.756       11.623      859.104
06/18/2013  05:18:00     -145.133      -11.163      -12.794       24.881       27.877       18.109      619.081      777.112      327.946        1.154        0.086      145.561       15.998        0.012      338.733       11.586      859.112
06/18/2013  05:19:00     -117.143       -4.715      -16.437       22.187       15.657       10.367      492.282      245.145      107.482        0.743        0.042      117.238        4.818        0.002      338.751       11.617      859.091
06/18/2013  05:20:00     -129.052       -4.658      -15.756       20.569       18.386       13.574      423.085      338.041      184.245        0.893        0.047      129.136        8.764        0.005      338.757       11.625      859.059
06/18/2013  05:21:00      -78.198       -8.607       -8.744       24.841       16.143       16.057      617.092      260.603      257.822        0.370        0.057       78.670       13.458        0.029      338.710       11.547      859.032
06/18/2013  05:22:00      -41.989       -9.214      -12.899       11.646       12.369        8.181      135.618      152.989       66.931        0.118        0.018       42.988        6.904        0.026      338.880       11.832      859.005
06/18/2013  05:23:00      -47.298      -30.119      -10.097       20.604       15.263       11.667      424.536      232.945      136.125        0.202        0.040       56.074        9.150        0.027      339.071       12.153      859.000
06/18/2013  05:24:00     -107.080      -48.688      -23.198       32.313       25.545       13.835     1044.098      652.541      191.420        0.813        0.094      117.629        8.502        0.005      338.973       11.988      859.011
06/18/2013  05:25:00     -107.689      -66.122      -10.924       40.423       46.805       22.365     1634.001     2190.722      500.189        1.021        0.216      126.369       15.720        0.015      338.755       11.623      859.050
06/18/2013  05:26:00      -99.414      -30.271       -5.379       57.103       35.874       25.957     3260.797     1286.927      673.762        0.802        0.261      103.921       29.304        0.080      338.698       11.525      859.066
06/18/2013  05:27:00      -83.298      -36.964       -9.020       34.959       21.791       17.345     1222.108      474.867      300.864        0.519        0.100       91.132       18.688        0.042      338.812       11.718      859.085
06/18/2013  05:28:00      -24.505      -77.258        2.465       23.300       23.900       15.013      542.874      571.195      225.396        0.396        0.067       81.051       15.931        0.039      339.080       12.169      859.087
06/18/2013  05:29:00      -26.490      -82.930        0.473       23.344       41.200       16.877      544.955     1697.415      284.827        0.505        0.126       87.058       11.507        0.017      339.307       12.551      859.081
06/18/2013  05:30:00      -57.319      -19.283       -3.081       35.785       18.376       15.511     1280.568      337.677      240.603        0.276        0.093       60.476       12.548        0.043      339.114       12.226      859.079
06/18/2013  05:31:00      -71.132       -8.570       -8.786       26.918       14.334       11.537      724.553      205.464      133.103        0.314        0.053       71.646       10.100        0.020      338.985       12.009      859.065
06/18/2013  05:32:00      -99.209      -11.146       -6.631       27.197       18.212       15.463      739.689      331.684      239.093        0.566        0.066       99.833       13.943        0.020      338.950       11.950      859.061
06/18/2013  05:33:00     -120.436      -37.955       -6.430       24.992       21.547       14.289      624.612      464.252      204.187        0.864        0.065      126.275       12.846        0.010      338.848       11.779      859.079
06/18/2013  05:34:00     -159.440      -62.566      -10.041       20.799       23.522       16.116      432.607      553.293      259.716        1.534        0.062      171.277        8.894        0.003      338.842       11.769      859.092
06/18/2013  05:35:00     -199.819      -18.620      -17.735       53.516       44.090       31.055     2863.936     1943.960      964.396        2.318        0.289      200.684       30.689        0.023      338.827       11.740      859.108
06/18/2013  05:36:00     -206.091        1.443      -11.022       62.019       39.318       32.702     3846.360     1545.869     1069.429        2.453        0.323      206.096       32.379        0.025      338.873       11.817      859.120
06/18/2013  05:37:00     -201.385       -4.704      -15.576       70.597       44.518       29.379     4983.977     1981.833      863.104        2.432        0.391      201.440       33.909        0.028      338.944       11.938      859.139
06/18/2013  05:38:00     -160.945       -1.196       -6.922       51.520       43.768       31.549     2654.348     1915.645      995.341        1.576        0.278      160.949       31.181        0.038      338.752       11.617      859.168
06/18/2013  05:39:00     -124.319      -32.359      -14.898       32.597       35.325       23.364     1062.573     1247.837      545.878        0.979        0.143      128.461       11.969        0.009      338.717       11.558      859.182
06/18/2013  05:40:00      -81.731      -44.393        5.920       46.706       45.296       27.874     2181.435     2051.723      776.972        0.685        0.251       93.009       27.856        0.090      338.763       11.635      859.181
06/18/2013  05:41:00      -78.888       -1.094       -0.587       71.945       33.564       26.708     5176.099     1126.570      713.325        0.662        0.351       78.896       30.327        0.148      338.823       11.735      859.185
06/18/2013  05:42:00     -138.243       21.860      -16.291       45.855       46.093       28.514     2102.642     2124.577      813.050        1.245        0.252      139.961       19.773        0.020      339.017       12.061      859.185
06/18/2013  05:43:00     -125.543       29.683      -12.113       67.518       48.572       29.258     4558.713     2359.279      856.039        1.228        0.389      129.004       31.617        0.060      338.900       11.866      859.186
06/18/2013  05:44:00     -111.596        8.901       -8.633       44.907       46.351       32.157     2016.617     2148.374     1034.063        0.890        0.260      111.950       27.055        0.058      338.976       11.993      859.176
06/18/2013  05:45:00      -70.577      -13.011       -1.397       57.357       27.842       22.636     3289.882      775.175      512.371        0.486        0.229       71.767       22.956        0.102      338.769       11.645      859.177
06/18/2013  05:46:00      -26.760      -23.614       -3.811       24.124       25.474       12.420      581.972      648.920      154.252        0.134        0.069       35.689       10.685        0.090      338.773       11.651      859.187
06/18/2013  05:47:00      -26.108      -15.593       10.377       29.314       29.574       15.113      859.300      874.625      228.391        0.150        0.098       30.410        7.751        0.065      338.933       11.920      859.201
06/18/2013  05:48:00      -31.771      -27.260        3.053       26.875       27.339       17.129      722.283      747.434      293.398        0.176        0.088       41.863       18.399        0.193      338.905       11.875      859.218
06/18/2013  05:49:00      -12.178       15.501       10.609       10.389       10.357       14.239      107.933      107.265      202.763        0.046        0.021       19.713        7.633        0.150      338.997       12.027      859.221
06/18/2013  05:50:00      -21.614       15.047       13.364       23.996       21.147       14.979      575.802      447.206      224.360        0.106        0.062       26.337       16.051        0.371      339.138       12.265      859.220
06/18/2013  05:51:00        2.172      -16.731       11.670       11.327       18.722       10.711      128.294      350.508      114.720        0.051        0.030       16.872        5.428        0.104      338.940       11.933      859.210
06/18/2013  05:52:00       -1.690      -41.302        1.668       16.320       15.507       15.410      266.342      240.459      237.483        0.123        0.037       41.337        3.834        0.009      338.742       11.599      859.206
06/18/2013  05:53:00        7.937      -59.012       -1.575       14.078       19.388       17.006      198.186      375.888      289.198        0.221        0.043       59.543       11.546        0.038      338.825       11.741      859.200
06/18/2013  05:54:00        6.870      -60.352      -15.440       24.196       24.624       11.483      585.445      606.320      131.855        0.263        0.066       60.742       10.042        0.027      338.946       11.941      859.205
06/18/2013  05:55:00      -28.742      -30.960       13.437       31.974       13.950       15.963     1022.357      194.601      254.833        0.172        0.074       42.245       17.112        0.164      338.949       11.948      859.217
06/18/2013  05:56:00      -78.163      -48.816        0.683       44.631       27.394       23.054     1991.897      750.422      531.477        0.588        0.164       92.154       20.640        0.050      338.896       11.859      859.230
06/18/2013  05:57:00     -105.095      -48.016       -5.808       20.033       14.507       15.674      401.327      210.447      245.663        0.712        0.043      115.544        7.437        0.004      338.945       11.941      859.237
06/18/2013  05:58:00      -68.251      -45.838       -7.813       34.392       21.374       16.292     1182.828      456.848      265.442        0.436        0.095       82.215       17.532        0.045      339.088       12.182      859.231
06/18/2013  05:59:00      -14.451      -25.301        7.265       20.876       24.249       11.214      435.803      588.004      125.743        0.103        0.057       29.137        8.055        0.076      339.071       12.153      859.208
06/18/2013  06:00:00      -27.556      -16.993        3.275       15.327       10.272       11.668      234.912      105.522      136.132        0.077        0.024       32.374       10.317        0.102      339.140       12.270      859.176
06/18/2013  06:01:00      -29.391      -27.007       -8.765       24.153        7.809        9.700      583.360       60.976       94.085        0.120        0.037       39.915        5.048        0.016      339.297       12.533      859.147
06/18/2013  06:02:00     -120.280      -38.612      -15.561       20.901        9.566        7.867      436.864       91.506       61.885        0.840        0.030      126.326        6.592        0.003      339.057       12.131      859.146
06/18/2013  06:03:00     -180.182      -52.223      -12.059       21.833       15.717        9.123      476.664      247.039       83.230        1.807        0.040      187.598        3.556        0.000      338.905       11.875      859.161
06/18/2013  06:04:00     -165.497      -35.690      -16.868       32.858       25.407       16.257     1079.679      645.531      264.292        1.547        0.099      169.302        7.385        0.002      338.846       11.775      859.151
06/18/2013  06:05:00     -110.451       -2.256      -18.273       40.277       39.244       23.673     1622.276     1540.127      560.414        0.813        0.186      110.475       13.281        0.014      339.214       12.394      859.127
06/18/2013  06:06:00     -122.030       50.220      -15.673       44.763       37.297       24.951     2003.698     1391.055      622.554        1.084        0.201      131.960       20.540        0.024      339.402       12.712      859.114
06/18/2013  06:07:00     -114.047        6.593      -20.787       27.452       45.893       23.581      753.626     2106.127      556.040        0.845        0.171      114.238       14.463        0.016      339.461       12.811      859.100
06/18/2013  06:08:00     -101.876      -17.559      -10.077       37.002       39.536       22.180     1369.182     1563.065      491.938        0.711        0.171      103.378       12.228        0.014      339.518       12.906      859.092
06/18/2013  06:09:00     -150.222      -32.860      -11.650       49.240       36.836       23.005     2424.603     1356.888      529.232        1.405        0.216      153.774       19.804        0.017      339.175       12.328      859.089
06/18/2013  06:10:00     -168.899      -31.069      -17.457       35.466       36.946       25.948     1257.832     1364.993      673.316        1.655        0.165      171.733       15.463        0.008      339.269       12.487      859.089
06/18/2013  06:11:00     -153.148      -21.923       -3.908       50.794       51.776       29.802     2580.062     2680.766      888.153        1.505        0.307      154.709       26.377        0.029      339.219       12.402      859.092
06/18/2013  06:12:00     -123.470       14.442       -5.263       48.273       35.326       28.543     2330.313     1247.898      814.679        0.994        0.220      124.312       21.846        0.031      339.294       12.529      859.102
06/18/2013  06:13:00     -105.944       17.955       -7.954       47.660       34.641       27.872     2271.494     1199.971      776.835        0.793        0.212      107.455       20.723        0.037      339.418       12.737      859.085
06/18/2013  06:14:00      -86.056       34.432       -5.914       40.088       40.640       28.424     1607.086     1651.571      807.908        0.635        0.203       92.688       14.302        0.024      339.590       13.027      859.061
06/18/2013  06:15:00      -99.727        0.986      -14.036       36.509       34.969       22.066     1332.899     1222.854      486.928        0.659        0.152       99.732       18.811        0.036      339.645       13.122      859.051
06/18/2013  06:16:00      -40.928      -10.167        5.331       52.623       26.276       27.439     2769.214      690.415      752.894        0.301        0.211       42.172       30.698        0.530      339.475       12.833      859.041
06/18/2013  06:17:00      -37.627       -0.646       -2.973       53.938       38.095       23.986     2909.266     1451.234      575.307        0.318        0.247       37.633       19.155        0.259      339.520       12.909      859.054
06/18/2013  06:18:00      -35.923       -0.344        3.457       50.404       32.118       21.762     2540.580     1031.590      473.567        0.267        0.202       35.925       26.409        0.540      339.541       12.945      859.073
06/18/2013  06:19:00      -12.872      -28.839        6.232       32.765       19.072       16.646     1073.553      363.756      277.085        0.137        0.086       31.582       17.795        0.317      339.466       12.820      859.106
06/18/2013  06:20:00        1.010       -8.162       16.033       15.545       23.385       14.112      241.654      546.875      199.148        0.066        0.049        8.224       14.852        3.261      339.654       13.135      859.112
06/18/2013  06:21:00       48.157       10.120        2.444       19.927       21.512       17.095      397.094      462.750      292.243        0.179        0.058       49.208       11.271        0.052      339.442       12.777      859.107
06/18/2013  06:22:00      -14.355       -1.392       10.116       15.692       13.117       15.137      246.233      172.068      229.126        0.048        0.032       14.422       10.123        0.493      339.616       13.073      859.086
06/18/2013  06:23:00      -16.576        7.498       -6.659        9.706       10.860        6.258       94.197      117.949       39.165        0.031        0.013       18.193        3.490        0.037      339.562       12.981      859.076
06/18/2013  06:24:00        3.370       -8.259       -7.680       15.309       12.417       10.508      234.357      154.174      110.412        0.032        0.025        8.920        6.383        0.512      339.677       13.174      859.071
06/18/2013  06:25:00      -38.136      -22.784        6.521       25.858       15.770       13.681      668.632      248.693      187.167        0.156        0.055       44.424       12.840        0.084      339.709       13.229      859.076
06/18/2013  06:26:00       -5.652      -36.168       -6.155       19.779       16.826       13.652      391.200      283.108      186.374        0.112        0.043       36.607        8.658        0.056      339.602       13.048      859.078
06/18/2013  06:27:00        8.450      -38.381       -3.376       19.135       15.532       16.026      366.134      241.233      256.817        0.121        0.043       39.300        7.918        0.041      339.492       12.861      859.078
06/18/2013  06:28:00       23.073      -28.767       -6.812       20.430       26.642       20.748      417.395      709.792      430.468        0.148        0.078       36.877       13.554        0.135      339.644       13.119      859.072
06/18/2013  06:29:00       15.633      -33.358        0.847       15.911       19.120       10.959      253.145      365.566      120.101        0.105        0.037       36.840        4.630        0.016      339.717       13.242      859.071
06/18/2013  06:30:00       15.113      -44.898       -8.617       17.170       12.609       10.353      294.819      158.997      107.181        0.144        0.028       47.373        7.041        0.022      339.697       13.210      859.105
06/18/2013  06:31:00      -12.743      -20.172       -0.781       15.071       19.627       13.569      227.147      385.210      184.131        0.068        0.040       23.860       10.676        0.200      339.770       13.333      859.136
06/18/2013  06:32:00      -65.469      -43.972        5.208       32.327       25.031       17.449     1045.020      626.570      304.476        0.411        0.099       78.865       16.497        0.044      339.705       13.222      859.176
06/18/2013  06:33:00      -60.534      -67.031        7.269       42.441       34.012       21.452     1801.277     1156.797      460.195        0.581        0.171       90.319       20.735        0.053      339.749       13.295      859.175
06/18/2013  06:34:00      -82.424      -75.725       -1.266       37.202       28.681       21.334     1383.955      822.577      455.146        0.760        0.133      111.929       21.352        0.036      339.781       13.349      859.183
06/18/2013  06:35:00      -74.442      -71.562      -10.646       27.193       21.773       18.995      739.455      474.069      360.820        0.617        0.079      103.260        9.716        0.009      339.850       13.466      859.170
06/18/2013  06:36:00      -69.999      -66.465       -8.522       36.153       25.397       16.974     1307.036      644.989      288.126        0.581        0.112       96.526       19.081        0.039      339.849       13.464      859.158
06/18/2013  06:37:00      -73.656      -53.627       -4.632       13.108       12.578       11.055      171.817      158.218      122.215        0.439        0.023       91.110        6.696        0.005      339.894       13.540      859.138
06/18/2013  06:38:00      -66.269      -36.273        4.263       10.752       12.181        9.985      115.597      148.385       99.710        0.304        0.018       75.547        7.045        0.009      339.925       13.593      859.131
06/18/2013  06:39:00      -62.473      -40.404       -1.616       17.650       11.959       10.502      311.519      143.025      110.286        0.305        0.028       74.400        4.495        0.004      339.965       13.660      859.128
06/18/2013  06:40:00      -74.053      -40.867       -0.687       14.292       13.146        8.302      204.272      172.821       68.917        0.380        0.022       84.581        6.094        0.005      339.959       13.651      859.136
06/18/2013  06:41:00      -59.809      -27.916       -1.461       18.731       17.605       13.739      350.860      309.950      188.772        0.260        0.042       66.004       10.287        0.024      339.945       13.626      859.149
06/18/2013  06:42:00      -34.619      -33.007       -0.390       27.565       23.590       17.309      759.822      556.489      299.600        0.195        0.081       47.833       15.950        0.111      339.977       13.680      859.157
06/18/2013  06:43:00      -58.014      -30.218        3.241       31.977       20.402       11.226     1022.544      416.255      126.026        0.293        0.078       65.412        8.553        0.017      340.045       13.794      859.156
06/18/2013  06:44:00     -107.151      -20.019       -7.050       37.565       24.484       19.653     1411.161      599.455      386.232        0.716        0.120      109.005       19.710        0.033      340.174       14.012      859.158
06/18/2013  06:45:00     -100.196       10.290       -0.600       29.758       29.644       23.169      885.568      878.741      536.783        0.622        0.115      100.723       21.311        0.045      340.143       13.960      859.147
06/18/2013  06:46:00      -64.629      -17.681       -5.837       18.615       30.638       20.281      346.529      938.687      411.328        0.311        0.085       67.004       18.883        0.079      340.159       13.986      859.136
06/18/2013  06:47:00      -40.095      -16.117       12.403       27.724       29.843       14.993      768.632      890.577      224.781        0.195        0.094       43.213       15.204        0.124      340.346       14.303      859.124
06/18/2013  06:48:00      -23.792       25.979       -3.939       19.260       26.033       18.401      370.952      677.730      338.590        0.132        0.069       35.227        8.866        0.063      340.382       14.363      859.094
06/18/2013  06:49:00      -14.871        6.250        8.503       15.442       20.159       16.057      238.470      406.377      257.820        0.062        0.045       16.131        9.000        0.311      340.777       15.033      859.072
06/18/2013  06:50:00      -37.802       -2.355        2.332       14.705       24.403       14.214      216.233      595.513      202.029        0.123        0.051       37.875        9.090        0.058      340.293       14.213      859.072
06/18/2013  06:51:00      -28.111      -28.152       -0.761       20.855       15.267       16.507      434.945      233.089      272.496        0.126        0.047       39.784       13.223        0.110      340.186       14.033      859.081
06/18/2013  06:52:00      -35.552      -30.467        0.802       11.828        9.625        9.533      139.893       92.649       90.874        0.126        0.016       46.821        4.144        0.008      340.204       14.062      859.078
06/18/2013  06:53:00       -7.476      -13.575       13.453       29.152       20.413       12.640      849.868      416.694      159.769        0.092        0.071       15.498       10.514        0.460      340.371       14.345      859.066
06/18/2013  06:54:00      -27.862        7.473        9.383       23.411       25.879       19.327      548.055      669.741      373.521        0.126        0.080       28.847       12.170        0.178      340.579       14.697      859.058
06/18/2013  06:55:00      -51.666      -24.901       -6.244       28.217       44.042       17.647      796.198     1939.659      311.406        0.319        0.152       57.353       12.296        0.046      340.479       14.529      859.047
06/18/2013  06:56:00      -67.918      -37.123       -4.711       22.242       12.135        9.090      494.724      147.266       82.630        0.337        0.036       77.402        6.881        0.008      340.410       14.412      859.052
06/18/2013  06:57:00       -0.167      -24.478       21.414       18.630       20.452       15.624      347.060      418.288      244.097        0.103        0.050       24.479       15.226        0.387      340.788       15.052      859.065
06/18/2013  06:58:00       -0.199       -5.607       23.513       13.970       10.658       11.975      195.152      113.590      143.390        0.052        0.023        5.611       10.010        3.183      341.212       15.768      859.076
06/18/2013  06:59:00       -1.160       13.961       33.922        7.715       17.474        7.480       59.514      305.349       55.953        0.088        0.021       14.009        6.862        0.240      340.969       15.358      859.072
06/18/2013  07:00:00        8.461        4.333       25.122       18.385       19.677       14.382      337.995      387.182      206.830        0.083        0.047        9.506       16.169        2.893      340.731       14.954      859.061
06/18/2013  07:01:00       15.771       -5.626       11.296       12.571       13.732       18.618      158.031      188.580      346.629        0.055        0.035       16.745        5.512        0.108      340.553       14.653      859.060
06/18/2013  07:02:00       11.363       14.632       19.257       14.987       15.831       14.081      224.616      250.625      198.272        0.069        0.034       18.526       10.865        0.344      340.781       15.037      859.077
06/18/2013  07:03:00        2.943       15.428       32.134       12.402       20.735        7.950      153.808      429.927       63.199        0.096        0.032       15.706        3.985        0.064      341.100       15.579      859.079
06/18/2013  07:04:00       -2.651       18.868       42.209       10.269       18.867       12.575      105.443      355.948      158.132        0.138        0.031       19.053        8.812        0.214      341.117       15.606      859.050
06/18/2013  07:05:00       11.533       29.861       38.208       22.677       18.932       14.831      514.226      358.406      219.962        0.179        0.055       32.011       11.639        0.132      341.198       15.744      859.011
06/18/2013  07:06:00       49.508       47.928       13.197       30.729       21.545       21.640      944.260      464.188      468.278        0.340        0.094       68.906       18.434        0.072      340.907       15.251      858.969
06/18/2013  07:07:00       75.117       38.294       11.531       39.659       26.914       25.614     1572.875      724.352      656.080        0.510        0.148       84.315       21.064        0.062      341.010       15.426      858.960
06/18/2013  07:08:00      101.882       60.005        6.875       31.514       24.673       27.310      993.147      608.751      745.849        0.819        0.117      118.239       16.912        0.020      340.724       14.943      858.981
06/18/2013  07:09:00       59.319       43.984       11.616       23.326       19.727       21.473      544.099      389.157      461.100        0.349        0.070       73.847       11.609        0.025      340.717       14.930      859.006
06/18/2013  07:10:00       47.966       31.933       23.608       25.302       17.044       17.712      640.202      290.484      313.711        0.256        0.062       57.623       10.773        0.035      340.739       14.968      859.012
06/18/2013  07:11:00       64.716       45.314       18.833       19.373       21.402       18.381      375.313      458.061      337.874        0.388        0.059       79.004       10.177        0.017      340.673       14.855      858.989
06/18/2013  07:12:00       24.929       32.168       16.887       24.507       17.164       20.101      600.598      294.591      404.055        0.162        0.065       40.697       19.972        0.241      340.828       15.118      858.958
06/18/2013  07:13:00        2.670       27.740       41.603       16.088       20.408       16.558      258.817      416.502      274.183        0.173        0.047       27.868        7.197        0.067      341.281       15.886      858.940
06/18/2013  07:14:00       27.170       33.623       42.665       39.590       23.429       14.579     1567.364      548.933      212.539        0.301        0.116       43.228        9.773        0.051      341.173       15.704      858.934
06/18/2013  07:15:00       46.746       47.144       29.143       32.249       23.404       20.852     1039.969      547.758      434.817        0.364        0.101       66.391       19.426        0.086      340.897       15.234      858.944
06/18/2013  07:16:00       31.130       54.457       41.701       24.501       23.132       22.280      600.287      535.097      496.381        0.365        0.082       62.727       16.878        0.072      341.038       15.474      858.946
06/18/2013  07:17:00        1.729       54.564       64.026       18.545       28.122       19.961      343.930      790.853      398.447        0.431        0.077       54.591       16.165        0.088      341.249       15.831      858.940
06/18/2013  07:18:00       18.398       64.448       81.617       40.151       43.100       19.230     1612.140     1857.594      369.807        0.750        0.192       67.023       19.270        0.083      341.280       15.882      858.925
06/18/2013  07:19:00      123.676      104.430       58.839       42.847       24.865       38.564     1835.835      618.272     1487.184        1.680        0.197      161.869       21.180        0.017      340.781       15.039      858.916
06/18/2013  07:20:00      110.642       79.061       39.270       60.020       39.193       34.676     3602.371     1536.128     1202.447        1.319        0.317      135.986       29.156        0.046      341.061       15.512      858.904
06/18/2013  07:21:00       63.611       67.327       66.003       42.577       39.877       31.976     1812.807     1590.152     1022.463        0.868        0.221       92.625       19.977        0.047      341.133       15.634      858.909
06/18/2013  07:22:00      141.917       85.326       46.718       57.073       52.482       61.390     3257.376     2754.324     3768.678        1.969        0.489      165.593       52.244        0.100      340.836       15.130      858.915
06/18/2013  07:23:00       44.611       48.616       39.099       46.955       35.610       36.146     2204.814     1268.065     1306.502        0.533        0.239       65.983       30.641        0.216      341.281       15.886      858.914
06/18/2013  07:24:00       68.566       59.555       51.188       63.384       37.221       44.558     4017.569     1385.383     1985.390        0.913        0.369       90.819       32.941        0.132      341.210       15.765      858.916
06/18/2013  07:25:00      143.306       88.007       32.178       50.310       39.016       38.452     2531.108     1522.237     1478.556        1.742        0.277      168.172       22.123        0.017      340.817       15.100      858.917
06/18/2013  07:26:00      113.763       64.553       58.981       53.035       40.539       34.995     2812.754     1643.378     1224.678        1.313        0.284      130.801       24.167        0.034      340.937       15.301      858.903
06/18/2013  07:27:00      113.246       56.694       30.823       37.112       34.818       37.317     1377.321     1212.302     1392.593        1.048        0.199      126.644       24.127        0.036      341.008       15.424      858.901
06/18/2013  07:28:00       83.948       38.995       33.733       59.469       40.798       32.658     3536.554     1664.457     1066.528        0.799        0.313       92.563       27.098        0.086      341.172       15.699      858.890
06/18/2013  07:29:00       98.208       79.836       38.312       65.727       28.952       31.787     4320.018      838.220     1010.435        1.183        0.308      126.565       30.590        0.058      340.908       15.254      858.890
06/18/2013  07:30:00      103.232       92.943       21.929       50.209       36.534       33.010     2520.964     1334.758     1089.689        1.236        0.247      138.907       35.692        0.066      340.861       15.173      858.886
06/18/2013  07:31:00       90.499       44.036       17.953       41.301       34.751       34.332     1705.744     1207.629     1178.697        0.727        0.205      100.645       14.667        0.021      341.085       15.554      858.865
06/18/2013  07:32:00       49.978       76.234       -4.795       44.108       43.370       25.836     1945.517     1880.972      667.475        0.641        0.225       91.156       24.695        0.073      341.124       15.619      858.864
06/18/2013  07:33:00       72.758       40.046       16.170       33.128       29.118       26.990     1097.472      847.881      728.476        0.492        0.134       83.050       16.860        0.041      341.186       15.723      858.856
06/18/2013  07:34:00      129.381       62.597        8.918       48.156       27.642       26.433     2318.966      764.107      698.693        1.226        0.189      143.729       13.141        0.008      341.037       15.471      858.855
06/18/2013  07:35:00      108.802       66.063       10.320       45.591       37.566       32.979     2078.549     1411.237     1087.606        1.044        0.229      127.288       22.692        0.032      341.074       15.534      858.862
06/18/2013  07:36:00       94.273       61.938       32.730       50.837       29.934       39.621     2584.383      896.059     1569.847        0.942        0.253      112.799       30.506        0.073      341.157       15.674      858.868
06/18/2013  07:37:00       62.557       52.294       40.993       57.959       42.757       19.629     3359.244     1828.159      385.297        0.695        0.279       81.535       10.056        0.015      341.164       15.687      858.882
06/18/2013  07:38:00       96.714       54.137       26.263       77.384       49.729       38.049     5988.361     2472.926     1447.731        1.144        0.495      110.835       39.867        0.129      341.309       15.932      858.889
06/18/2013  07:39:00       92.907       61.717        6.102       45.149       36.911       32.567     2038.420     1362.415     1060.640        0.847        0.223      111.538       18.764        0.028      341.084       15.552      858.887
06/18/2013  07:40:00       80.401       62.962        5.572       25.466       20.965       26.829      648.517      439.519      719.783        0.613        0.090      102.120        8.119        0.006      340.971       15.361      858.887
06/18/2013  07:41:00       93.645       59.731       10.097       23.179       26.732       23.104      537.270      714.606      533.784        0.711        0.089      111.073       11.442        0.011      340.972       15.363      858.886
06/18/2013  07:42:00       72.442       92.699       61.214       48.295       37.738       40.131     2332.426     1424.189     1610.534        1.148        0.268      117.647       29.212        0.062      341.320       15.953      858.866
06/18/2013  07:43:00       76.360       73.882       67.067       73.250       44.999       41.299     5365.523     2024.868     1705.576        1.244        0.455      106.251       34.863        0.108      341.450       16.171      858.841
06/18/2013  07:44:00       47.777       52.065       71.205       58.825       50.926       41.749     3460.428     2593.442     1742.975        0.893        0.390       70.664       38.612        0.299      341.333       15.973      858.841
06/18/2013  07:45:00       79.585       41.902       10.081       33.559       35.266       36.359     1126.197     1243.711     1322.011        0.594        0.185       89.942       23.621        0.069      341.185       15.721      858.847
06/18/2013  07:46:00       12.679        3.351       25.962       29.730       20.509       19.537      883.869      420.604      381.704        0.127        0.084       13.114       18.922        2.082      341.904       16.941      858.863
06/18/2013  07:47:00      -12.368       47.958        1.044       23.919       43.403       20.039      572.108     1883.834      401.565        0.266        0.143       49.528       24.655        0.248      341.237       15.810      858.869
06/18/2013  07:48:00        4.352       61.238        0.306       23.758       28.006       23.693      564.431      784.340      561.377        0.284        0.096       61.392       17.825        0.084      341.378       16.050      858.863
06/18/2013  07:49:00        7.416       17.669       11.803       17.546       20.527       16.507      307.851      421.342      272.466        0.075        0.050       19.162       12.520        0.427      341.686       16.573      858.827
06/18/2013  07:50:00       11.107       21.964        9.761       16.271       18.598       20.347      264.759      345.891      413.992        0.086        0.051       24.612       13.695        0.310      341.564       16.364      858.793
06/18/2013  07:51:00       -1.180       61.413        3.373       20.828       26.454       22.327      433.826      699.819      498.510        0.271        0.082       61.424       18.026        0.086      341.529       16.305      858.770
06/18/2013  07:52:00       10.211       45.292        5.345       21.063       25.025       20.630      443.652      626.227      425.584        0.184        0.075       46.429       14.824        0.102      341.605       16.432      858.773
06/18/2013  07:53:00       37.564       47.700       -0.431       22.909       16.419       15.735      524.832      269.595      247.575        0.236        0.052       60.716        6.457        0.011      341.443       16.159      858.780
06/18/2013  07:54:00       83.024       46.992        2.430       31.820       21.785       27.221     1012.487      474.580      740.986        0.567        0.111       95.400       20.491        0.046      341.463       16.193      858.780
06/18/2013  07:55:00       60.920       43.611       21.608       35.087       32.111       29.164     1231.116     1031.146      850.541        0.460        0.156       74.921       18.746        0.063      341.814       16.787      858.777
06/18/2013  07:56:00       22.525       -1.781       11.375       38.110       41.244       22.605     1452.340     1701.048      510.970        0.215        0.183       22.596       16.127        0.509      341.953       17.023      858.766
06/18/2013  07:57:00       85.805       67.905       33.416       52.632       40.175       35.086     2770.089     1614.001     1230.997        0.935        0.281      109.424       23.707        0.047      341.740       16.663      858.770
06/18/2013  07:58:00       51.385       26.620       22.903       51.508       41.142       29.167     2653.121     1692.656      850.696        0.453        0.260       57.871       24.260        0.176      341.856       16.859      858.757
06/18/2013  07:59:00      111.988       82.634       34.571       56.633       31.679       39.246     3207.247     1003.580     1540.269        1.316        0.288      139.175       15.914        0.013      341.657       16.522      858.747
06/18/2013  08:00:00       88.890       50.605       -4.061       32.635       29.758       25.340     1065.051      885.517      642.137        0.654        0.130      102.285       12.162        0.014      341.658       16.522      858.742
06/18/2013  08:01:00       39.063       19.613        4.833       34.895       28.604       33.620     1217.676      818.192     1130.326        0.255        0.158       43.710       22.680        0.269      342.331       17.667      858.739
06/18/2013  08:02:00       18.200       15.738       32.380       39.524       39.550       33.573     1562.163     1564.167     1127.153        0.294        0.213       24.061       27.456        1.302      342.406       17.793      858.735
06/18/2013  08:03:00       40.293       79.107       78.013       42.085       45.965       36.421     1771.140     2112.740     1326.467        0.959        0.261       88.777       31.832        0.129      341.843       16.838      858.721
06/18/2013  08:04:00       49.690       26.396       43.746       40.076       36.269       31.181     1606.058     1315.410      972.231        0.449        0.195       56.266       31.755        0.319      341.834       16.821      858.718
06/18/2013  08:05:00       79.318       42.138       52.707       38.356       24.887       36.784     1471.217      619.380     1353.057        0.714        0.172       89.817       23.440        0.068      341.767       16.709      858.705
06/18/2013  08:06:00       74.429       50.702        9.240       17.809       29.065       22.927      317.174      844.758      525.644        0.494        0.084       90.058       17.287        0.037      341.547       16.334      858.709
06/18/2013  08:07:00       26.791       27.912        6.072       26.249       20.021       17.584      689.029      400.822      309.212        0.147        0.070       38.689       11.287        0.085      341.980       17.069      858.693
06/18/2013  08:08:00       65.406       51.285        5.792       32.910       30.186       27.019     1083.046      911.208      730.009        0.483        0.136       83.115       17.576        0.045      341.973       17.058      858.680
06/18/2013  08:09:00       75.141       68.014       19.364       24.217       24.556       23.551      586.441      602.980      554.635        0.620        0.087      101.352       16.048        0.025      341.982       17.073      858.678
06/18/2013  08:10:00      112.527       69.104       14.422       30.105       26.218       27.297      906.300      687.378      745.139        0.999        0.117      132.052       18.136        0.019      341.674       16.550      858.662
06/18/2013  08:11:00       43.873       62.446       24.979       35.903       22.537       36.391     1289.017      507.908     1324.288        0.478        0.156       76.317       27.318        0.128      341.923       16.974      858.650
06/18/2013  08:12:00        6.814       -1.265       44.000       22.620       28.538       17.133      511.679      814.389      293.549        0.180        0.081        6.930       17.910        6.678      342.668       18.239      858.633
06/18/2013  08:13:00       51.516       30.579       20.057       36.313       27.522       25.768     1318.647      757.433      664.003        0.337        0.137       59.908       14.331        0.057      342.386       17.761      858.617
06/18/2013  08:14:00       62.186       51.665       12.501       30.441       31.172       28.717      926.627      971.708      824.651        0.471        0.136       80.848       23.418        0.084      342.529       18.002      858.601
06/18/2013  08:15:00       80.616       41.188       -3.187       27.381       33.686       27.262      749.697     1134.713      743.213        0.542        0.131       90.528       21.233        0.055      342.285       17.588      858.589
06/18/2013  08:16:00       36.035       43.884       17.644       44.873       26.649       29.124     2013.627      710.144      848.186        0.355        0.179       56.783       20.969        0.136      342.790       18.446      858.586
06/18/2013  08:17:00       47.689       51.129       -2.180       28.738       27.143       28.206      825.875      736.762      795.552        0.363        0.118       69.917       12.450        0.032      342.490       17.937      858.580
06/18/2013  08:18:00       73.923       54.076        9.502       35.887       26.057       31.456     1287.909      678.976      989.463        0.572        0.148       91.591       16.068        0.031      342.399       17.782      858.563
06/18/2013  08:19:00       67.430       33.184        9.409       46.554       44.724       30.440     2167.302     2000.209      926.572        0.541        0.255       75.153       28.728        0.146      342.521       17.988      858.543
06/18/2013  08:20:00       14.380       45.979       56.082       32.683       50.002       30.393     1068.152     2500.189      923.747        0.498        0.225       48.175       28.990        0.362      342.621       18.159      858.515
06/18/2013  08:21:00       -5.243       37.050       49.716       21.367       36.326       21.661      456.546     1319.571      469.179        0.306        0.112       37.419       17.241        0.212      342.615       18.149      858.513
06/18/2013  08:22:00       38.562       27.950       13.066       42.786       44.127       30.692     1830.646     1947.207      942.008        0.358        0.236       47.626       20.504        0.185      342.539       18.019      858.526
06/18/2013  08:23:00        1.790        3.238       10.207       23.339       21.438       23.227      544.715      459.580      539.474        0.083        0.077        3.700        9.924        7.195      342.806       18.474      858.527
06/18/2013  08:24:00       59.126       96.419       76.099       65.080       53.030       42.376     4235.466     2812.230     1795.716        1.371        0.442      113.105       35.174        0.097      342.466       17.894      858.527
06/18/2013  08:25:00      134.409      107.813       23.082       37.079       37.436       32.262     1374.889     1401.423     1040.806        1.702        0.191      172.306       21.764        0.016      342.280       17.578      858.506
06/18/2013  08:26:00      186.674      104.645       17.666       33.746       30.823       28.254     1138.817      950.085      798.302        2.450        0.144      214.004        8.689        0.002      342.421       17.817      858.480
06/18/2013  08:27:00      113.909       47.677       14.424       50.468       45.132       38.764     2547.036     2036.860     1502.672        1.077        0.304      123.484       26.317        0.045      342.680       18.258      858.476
06/18/2013  08:28:00       73.078       54.234        8.407       60.157       55.478       38.533     3618.841     3077.826     1484.770        0.827        0.409       91.004       27.338        0.090      342.889       18.615      858.473
06/18/2013  08:29:00      116.700       84.717       12.540       40.364       36.087       32.079     1629.264     1302.297     1029.081        1.246        0.198      144.208       12.078        0.007      342.688       18.271      858.483
06/18/2013  08:30:00       64.161       47.461       10.592       48.477       32.673       32.861     2350.026     1067.532     1079.870        0.549        0.225       79.807       11.700        0.021      343.059       18.905      858.484
06/18/2013  08:31:00       15.742       36.488       41.757       56.719       58.695       37.981     3217.076     3445.094     1442.535        0.571        0.405       39.739       33.186        0.697      342.949       18.716      858.478
06/18/2013  08:32:00       44.340       61.850       55.684       69.972       60.995       36.471     4896.047     3720.436     1330.144        0.942        0.497       76.102       27.941        0.135      342.975       18.760      858.476
06/18/2013  08:33:00      123.638       71.477       31.204       57.246       47.370       45.201     3277.076     2243.878     2043.123        1.447        0.378      142.812       29.219        0.042      342.819       18.495      858.477
06/18/2013  08:34:00      175.866       98.992       24.261       52.063       46.784       30.960     2710.582     2188.705      958.537        2.359        0.293      201.812       19.084        0.009      342.680       18.257      858.474
06/18/2013  08:35:00       93.428       63.614       14.220       50.242       39.075       41.358     2524.304     1526.845     1710.448        0.937        0.288      113.029       15.502        0.019      342.884       18.607      858.456
06/18/2013  08:36:00       66.358       59.168        7.648       62.936       39.750       32.915     3960.936     1580.094     1083.407        0.729        0.331       88.905       25.289        0.081      343.050       18.889      858.450
06/18/2013  08:37:00       28.362       11.138        9.847       63.401       42.083       32.227     4019.744     1771.001     1038.561        0.393        0.341       30.470       16.879        0.307      343.391       19.469      858.455
06/18/2013  08:38:00       96.344       77.396       51.743       60.295       34.825       25.569     3635.432     1212.764      653.776        1.172        0.275      123.581       19.989        0.026      343.033       18.859      858.448
06/18/2013  08:39:00      115.665       73.358       22.466       33.669       39.761       36.638     1133.632     1580.946     1342.326        1.166        0.203      136.967       22.813        0.028      342.861       18.568      858.446
06/18/2013  08:40:00       73.325       74.753       36.319       40.574       28.268       35.174     1646.230      799.098     1237.183        0.798        0.184      104.712       26.711        0.065      342.601       18.123      858.437
06/18/2013  08:41:00       52.323      -28.985       10.354       56.179       63.739       38.567     3156.096     4062.662     1487.412        0.619        0.435       59.815       35.533        0.353      343.199       19.143      858.416
06/18/2013  08:42:00       48.631      -88.154       17.206       51.814       81.759       52.445     2684.645     6684.519     2750.444        1.127        0.606      100.678       39.536        0.154      343.304       19.321      858.377
06/18/2013  08:43:00      143.569      109.664       33.108       76.055       44.153       43.027     5784.380     1949.448     1851.310        2.166        0.479      180.660       37.274        0.043      343.197       19.137      858.366
06/18/2013  08:44:00      122.522       88.202       48.336       42.092       40.407       36.944     1771.698     1632.714     1364.862        1.495        0.238      150.967       19.346        0.016      343.293       19.302      858.353
06/18/2013  08:45:00      138.836       94.098       19.313       72.081       47.888       40.092     5195.656     2293.281     1607.350        1.880        0.455      167.720       29.165        0.030      343.188       19.122      858.337
06/18/2013  08:46:00      159.953      108.781       55.254       65.816       60.756       62.591     4331.704     3691.289     3917.620        2.620        0.597      193.438       24.663        0.016      343.246       19.219      858.320
06/18/2013  08:47:00      160.548       87.935       54.772      104.676       55.220       56.970    10957.023     3049.204     3245.591        2.688        0.863      183.052       51.658        0.080      343.176       19.102      858.295
06/18/2013  08:48:00       44.656       23.150       34.003       56.938       69.492       68.031     3241.903     4829.104     4628.278        0.819        0.635       50.299       51.920        1.065      343.092       18.962      858.293
06/18/2013  08:49:00       94.689      -17.885       27.441       74.219       63.723       53.102     5508.389     4060.608     2819.850        1.121        0.619       96.363       37.084        0.148      342.808       18.478      858.287
06/18/2013  08:50:00       34.617       -7.863       33.313       59.509       61.383       36.783     3541.369     3767.873     1352.960        0.551        0.433       35.499       39.925        1.265      343.072       18.926      858.263
06/18/2013  08:51:00       17.629        4.690       65.871       45.921       75.431       44.799     2108.725     5689.765     2006.917        0.724        0.490       18.242       34.389        3.554      343.371       19.436      858.240
06/18/2013  08:52:00       29.714       47.413       36.240       53.524       54.935       41.588     2864.867     3017.879     1729.540        0.603        0.381       55.955       15.128        0.073      343.474       19.612      858.252
06/18/2013  08:53:00      -14.654       -0.068       34.522       26.896       36.974       19.279      723.381     1367.108      371.661        0.193        0.123       14.654       21.722        2.197      343.433       19.542      858.235
06/18/2013  08:54:00       13.383       39.499       29.292       26.517       24.321       30.257      703.126      591.525      915.482        0.240        0.111       41.705       16.043        0.148      343.282       19.285      858.232
06/18/2013  08:55:00       75.130       20.705       36.867       70.677       83.465       42.390     4995.180     6966.419     1796.887        1.059        0.688       77.931       34.789        0.199      343.402       19.488      858.238
06/18/2013  08:56:00       59.714       40.605       35.535       63.641       58.190       38.445     4050.136     3386.077     1478.052        0.769        0.446       72.211       12.343        0.029      343.369       19.433      858.236
06/18/2013  08:57:00       29.901      -26.316       23.221       45.555       56.460       43.845     2075.267     3187.676     1922.344        0.465        0.359       39.832       26.890        0.456      343.740       20.066      858.218
06/18/2013  08:58:00       22.813       23.501       37.488       58.302       51.978       50.463     3399.115     2701.757     2546.504        0.556        0.432       32.753       40.638        1.540      343.572       19.780      858.201
06/18/2013  08:59:00       41.032       48.869       54.045       39.089       46.616       25.279     1527.950     2173.007      639.026        0.567        0.217       63.811       21.627        0.115      343.492       19.643      858.180
06/18/2013  09:00:00       97.137       65.882       51.244       70.416       40.374       43.550     4958.344     1630.075     1896.591        1.244        0.424      117.371       26.773        0.052      343.275       19.273      858.162
06/18/2013  09:01:00      121.470       75.884       26.639       41.605       30.081       34.470     1730.948      904.844     1188.175        1.252        0.191      143.224       13.705        0.009      343.307       19.325      858.159
06/18/2013  09:02:00       87.225       69.979       44.245       60.681       42.815       44.354     3682.234     1833.140     1967.292        1.097        0.374      111.827       41.276        0.136      343.582       19.794      858.146
06/18/2013  09:03:00       80.427       94.717       63.496       54.339       43.857       53.364     2952.739     1923.402     2847.700        1.360        0.386      124.257       32.942        0.070      343.429       19.533      858.133
06/18/2013  09:04:00       51.835       52.751       41.128       64.485       53.715       48.748     4158.302     2885.259     2376.408        0.829        0.471       73.957       35.925        0.236      343.782       20.138      858.127
06/18/2013  09:05:00       30.070        0.089       47.618       40.945       46.784       24.057     1676.483     2188.773      578.742        0.381        0.222       30.070       26.497        0.777      344.170       20.801      858.108
06/18/2013  09:06:00      103.054      -64.709       27.950       75.605       77.467       61.557     5716.070     6001.157     3789.289        1.554        0.775      121.686       58.065        0.228      343.725       20.039      858.087
06/18/2013  09:07:00       45.116      -57.327       29.739       54.135       56.407       46.878     2930.589     3181.700     2197.578        0.726        0.415       72.951       24.141        0.110      343.808       20.180      858.077
06/18/2013  09:08:00       22.691      -32.260       38.780       42.282       68.792       42.923     1787.746     4732.382     1842.388        0.571        0.418       39.441       38.335        0.945      343.722       20.033      858.080
06/18/2013  09:09:00       90.717      -93.221       19.445       76.770       68.652       43.335     5893.695     4713.158     1877.923        1.489        0.624      130.076       43.761        0.113      343.740       20.064      858.095
06/18/2013  09:10:00       76.884      -77.720       30.325       76.777       90.152       42.609     5894.761     8127.303     1815.503        1.435        0.792      109.323       59.740        0.299      343.989       20.490      858.129
06/18/2013  09:11:00       47.100        4.373       40.508       33.241       41.431       37.171     1104.977     1716.520     1381.705        0.404        0.210       47.303       28.324        0.359      343.816       20.195      858.151
06/18/2013  09:12:00       56.605       37.655       27.678       33.319       27.442       30.963     1110.144      753.039      958.735        0.410        0.141       67.986       13.979        0.042      343.456       19.581      858.167
06/18/2013  09:13:00       72.458       40.762        9.674       32.708       38.082       24.234     1069.832     1450.222      587.307        0.506        0.155       83.137       24.320        0.086      343.802       20.170      858.145
06/18/2013  09:14:00       53.206       -3.243       20.040       54.946       50.041       36.203     3019.016     2504.075     1310.674        0.504        0.342       53.304       29.298        0.302      343.783       20.138      858.134
06/18/2013  09:15:00       59.026      -26.019       33.983       83.013       76.031       60.936     6891.189     5780.659     3713.244        1.085        0.819       64.506       56.014        0.754      343.724       20.039      858.114
06/18/2013  09:16:00       43.316     -158.374      -12.663       85.280       82.031       58.022     7272.668     6729.140     3366.528        2.224        0.868      164.191       33.697        0.042      343.578       19.785      858.107
06/18/2013  09:17:00      -63.056      -23.167      -27.004       23.034       43.977       27.046      530.569     1933.950      731.477        0.422        0.160       67.177        6.855        0.010      343.418       19.517      858.094
06/18/2013  09:18:00      -74.088       16.451      -11.894       31.707       34.172       21.621     1005.323     1167.726      467.466        0.427        0.132       75.892       16.354        0.046      343.541       19.725      858.061
06/18/2013  09:19:00      -27.094       90.763       10.033       29.622       40.577       32.399      877.437     1646.490     1049.694        0.632        0.179       94.720       28.139        0.088      344.338       21.087      858.034
06/18/2013  09:20:00      -10.302      156.359       -9.545       34.160       76.362       34.700     1166.889     5831.121     1204.096        1.642        0.410      156.698       36.245        0.054      343.835       20.225      858.016
06/18/2013  09:21:00      -17.853       70.648       13.882       54.925       34.951       34.465     3016.734     1221.552     1187.802        0.546        0.271       72.869       32.744        0.202      344.333       21.077      858.035
06/18/2013  09:22:00      -12.942      -60.082       41.369       86.434      100.031       46.555     7470.796    10006.138     2167.388        1.256        0.982       61.460       52.181        0.721      343.843       20.239      858.012
06/18/2013  09:23:00       58.442       -8.343       15.992       50.853       81.831       44.738     2585.988     6696.311     2001.452        0.751        0.564       59.034       33.156        0.315      344.112       20.700      857.966
06/18/2013  09:24:00       80.498      199.600       -5.599      157.994       98.667       66.447    24962.011     9735.269     4415.181        4.272        1.956      215.221       69.051        0.103      344.165       20.786      857.908
06/18/2013  09:25:00      -32.049      187.458       -6.270      116.645      101.546       76.814    13606.045    10311.593     5900.346        3.301        1.491      190.178       43.569        0.052      344.099       20.675      857.898
06/18/2013  09:26:00      104.200      144.300       -6.193      146.028       84.118       59.028    21324.128     7075.805     3484.268        3.180        1.594      177.989       47.831        0.072      344.170       20.795      857.860
06/18/2013  09:27:00      -40.092       87.830      -23.955      111.957      105.795       50.917    12534.466    11192.681     2592.497        1.810        1.316       96.548       45.062        0.218      344.192       20.836      857.855
06/18/2013  09:28:00      -74.007       31.301        3.882       59.956       45.670       32.337     3594.719     2085.761     1045.689        0.660        0.336       80.354       26.956        0.113      344.263       20.958      857.865
06/18/2013  09:29:00       17.017      -34.032       -5.443       26.859       31.224       24.870      721.412      974.948      618.521        0.190        0.116       38.049       19.716        0.268      344.433       21.248      857.865
06/18/2013  09:30:00       54.173      -36.212       18.077       55.209       53.208       47.777     3047.992     2831.120     2282.664        0.637        0.408       65.161       38.410        0.347      343.902       20.343      857.863
06/18/2013  09:31:00      107.466       35.507       23.477       82.766       97.681       56.489     6850.156     9541.532     3191.062        1.647        0.979      113.180       42.613        0.142      343.800       20.166      857.876
06/18/2013  09:32:00       14.283       39.419       10.994       74.453       76.107       43.693     5543.258     5792.251     1909.054        0.756        0.662       41.927       38.396        0.839      344.152       20.769      857.850
06/18/2013  09:33:00       46.375      -26.023       -0.447       82.074      119.833       58.617     6736.135    14359.846     3435.914        1.368        1.227       53.177       51.915        0.953      344.227       20.896      857.868
06/18/2013  09:34:00       65.683     -173.186      -26.046       75.468       88.460       55.856     5695.452     7825.227     3119.898        2.581        0.832      185.223       36.926        0.040      344.122       20.716      857.867
06/18/2013  09:35:00       53.428      -77.057       19.431       57.974       98.702       47.902     3361.038     9742.108     2294.563        1.228        0.770       93.767       59.598        0.404      344.408       21.204      857.866
06/18/2013  09:36:00       -1.895     -123.050       -1.420       70.368       73.655       57.323     4951.621     5425.125     3285.903        1.440        0.683      123.065       48.829        0.157      344.414       21.214      857.844
06/18/2013  09:37:00      -71.256      -21.678       16.857       68.560       48.754       31.658     4700.451     2376.951     1002.215        0.695        0.404       74.481       34.719        0.217      344.566       21.477      857.820
06/18/2013  09:38:00      -56.763      -20.788       13.623       75.253       45.836       40.541     5662.984     2100.917     1643.554        0.662        0.470       60.450       35.924        0.353      344.507       21.374      857.780
06/18/2013  09:39:00      -39.930      -62.180       11.206       90.807       64.477       43.646     8245.963     4157.300     1904.985        0.994        0.715       73.897       42.666        0.333      344.091       20.664      857.750
06/18/2013  09:40:00      -81.808      -50.070        6.793       52.454       43.093       25.110     2751.408     1856.986      630.524        0.724        0.262       95.914       30.726        0.103      344.103       20.686      857.741
06/18/2013  09:41:00       36.465      -14.242       34.911       63.228       76.063       59.437     3997.719     5785.595     3532.799        0.803        0.666       39.148       61.069        2.433      344.339       21.086      857.739
06/18/2013  09:42:00       20.102       39.662       64.212       57.240       42.496       36.062     3276.417     1805.879     1300.459        0.624        0.319       44.466       22.379        0.253      344.392       21.180      857.726
06/18/2013  09:43:00       81.244       84.894       65.187       73.683       39.540       50.486     5429.180     1563.429     2548.868        1.380        0.477      117.505       46.882        0.159      343.934       20.396      857.701
06/18/2013  09:44:00      128.550       70.929       15.015       49.938       34.820       29.148     2493.780     1212.432      849.628        1.317        0.228      146.820       17.650        0.014      343.906       20.348      857.698
06/18/2013  09:45:00       74.315       49.135       -1.815       31.957       38.382       30.991     1021.234     1473.179      960.436        0.570        0.173       89.090       14.134        0.025      344.208       20.864      857.679
06/18/2013  09:46:00       76.558       82.461       78.238       75.013       57.022       58.558     5627.018     3251.564     3429.025        1.554        0.615      112.521       51.675        0.211      344.242       20.922      857.664
06/18/2013  09:47:00       78.715       75.983       30.398       60.292       40.234       49.237     3635.070     1618.770     2424.239        1.028        0.384      109.405       20.264        0.034      344.152       20.767      857.648
06/18/2013  09:48:00      110.626       52.522        9.292       46.822       35.119       39.839     2192.331     1233.323     1587.174        1.005        0.251      122.461       19.157        0.024      344.016       20.536      857.638
06/18/2013  09:49:00       38.279        3.128       15.412       58.340       46.856       36.772     3403.528     2195.443     1352.179        0.433        0.348       38.406       34.260        0.796      344.351       21.108      857.642
06/18/2013  09:50:00       98.997      -75.423        9.901       74.191       46.094       38.567     5504.238     2124.664     1487.397        1.235        0.456      124.455       31.847        0.065      343.904       20.345      857.647
06/18/2013  09:51:00       14.711      -75.443        6.845       27.415       43.551       25.488      751.593     1896.721      649.645        0.463        0.165       76.864       15.035        0.038      343.888       20.318      857.662
06/18/2013  09:52:00       13.519     -100.051        7.006       50.972       66.306       43.671     2598.101     4396.517     1907.145        0.957        0.445      100.961       25.023        0.061      344.372       21.143      857.650
06/18/2013  09:53:00      -31.296      -65.766       -3.699       31.811       38.974       24.746     1011.937     1518.990      612.358        0.423        0.157       72.833       17.877        0.060      344.328       21.069      857.648
06/18/2013  09:54:00      -10.746      -57.476       19.279       39.622       53.726       40.078     1569.926     2886.483     1606.259        0.493        0.303       58.472       35.762        0.374      344.392       21.178      857.626
06/18/2013  09:55:00       29.044      -56.158       38.546       45.228       78.911       47.755     2045.599     6226.949     2280.580        0.802        0.528       63.224       49.215        0.606      344.729       21.754      857.609
06/18/2013  09:56:00       61.961      -66.473       38.888       70.635      111.174       67.743     4989.356    12359.644     4589.100        1.585        1.097       90.873       72.826        0.642      344.942       22.119      857.579
06/18/2013  09:57:00       72.646       23.495       81.498       69.350       96.144       69.257     4809.358     9243.633     4796.492        1.566        0.942       76.350       66.481        0.758      344.107       20.690      857.574
06/18/2013  09:58:00       62.843       67.318       61.697       69.838       51.165       47.951     4877.409     2617.890     2299.296        1.104        0.490       92.092       36.592        0.158      344.331       21.074      857.551
06/18/2013  09:59:00       49.224       33.067       49.438       76.981       68.181       45.390     5926.072     4648.609     2060.223        0.930        0.632       59.300       33.620        0.321      344.275       20.979      857.537
06/18/2013  10:00:00       45.395      -38.579       37.851       48.449       76.488       44.669     2347.317     5850.370     1995.280        0.759        0.510       59.574       47.620        0.639      344.693       21.694      857.527
06/18/2013  10:01:00       73.259     -122.497       14.587      105.174      113.933       56.449    11061.563    12980.710     3186.441        2.390        1.361      142.732       55.861        0.153      344.594       21.522      857.526
06/18/2013  10:02:00      -77.291      -80.779       -2.007       70.926       68.566       30.704     5030.469     4701.320      942.723        1.159        0.534      111.799       31.424        0.079      344.437       21.255      857.512
06/18/2013  10:03:00      -38.249      -82.435       -6.162       39.640       46.347       32.132     1571.294     2148.041     1032.440        0.652        0.238       90.876       17.823        0.038      344.402       21.194      857.515
06/18/2013  10:04:00      -23.379      -28.419        4.673       53.531       44.661       37.387     2865.527     1994.567     1397.754        0.382        0.313       36.800       35.408        0.926      345.029       22.268      857.523
06/18/2013  10:05:00      -51.402      -44.027       -1.792       38.520       48.415       31.101     1483.823     2343.996      967.265        0.469        0.240       67.679       22.639        0.112      344.615       21.559      857.507
06/18/2013  10:06:00       -9.710     -121.749        8.691       82.387       87.280       55.128     6787.576     7617.846     3039.114        1.622        0.872      122.136       36.255        0.088      344.419       21.224      857.517
06/18/2013  10:07:00      -12.031        0.687       33.788       27.563       38.915       35.852      759.734     1514.355     1285.341        0.242        0.178       12.051       32.248        7.161      344.846       21.956      857.496
06/18/2013  10:08:00       25.272       50.075       59.958       60.211       60.300       50.058     3625.339     3636.031     2505.838        0.825        0.488       56.091       39.054        0.485      344.771       21.827      857.458
06/18/2013  10:09:00       63.996      -69.011        7.780       83.577       88.659       49.451     6985.073     7860.477     2445.432        1.310        0.865       94.117       57.465        0.373      344.129       20.729      857.427
06/18/2013  10:10:00       59.066      -31.049       41.796       75.634       78.659       74.582     5720.568     6187.266     5562.488        1.183        0.874       66.729       69.568        1.087      344.740       21.773      857.408
06/18/2013  10:11:00       56.092      -71.217       45.169       93.221      142.299       83.063     8690.193    20249.100     6899.402        2.304        1.792       90.654       99.934        1.215      344.735       21.763      857.408
06/18/2013  10:12:00        2.367      -42.981       39.966       54.807       66.457       49.031     3003.777     4416.561     2404.035        0.664        0.491       43.047       37.604        0.763      344.812       21.898      857.416
06/18/2013  10:13:00        3.598     -127.258       12.195       90.757       79.791       53.144     8236.902     6366.570     2824.321        1.689        0.871      127.309       53.141        0.174      344.425       21.232      857.437
06/18/2013  10:14:00       90.949      -21.232       88.989       96.501      152.499       88.928     9312.385    23255.873     7908.192        2.855        2.024       93.394      106.337        1.296      344.579       21.495      857.440
06/18/2013  10:15:00       90.938       32.534       48.696       60.398       80.089       61.552     3647.881     6414.289     3788.661        1.277        0.693       96.582       46.906        0.236      344.137       20.743      857.435
06/18/2013  10:16:00       83.516       47.857       26.480       58.385       51.474       38.607     3408.861     2649.536     1490.487        0.876        0.377       96.256       30.521        0.101      344.579       21.498      857.421
06/18/2013  10:17:00        7.813       10.357        7.296       67.305       54.005       23.106     4529.912     2916.511      533.905        0.410        0.399       12.973       26.693        4.234      344.628       21.582      857.414
06/18/2013  10:18:00      124.087      -53.468       43.757       74.903      119.293       81.222     5610.506    14230.796     6596.938        2.330        1.322      135.117       82.150        0.370      344.663       21.640      857.398
06/18/2013  10:19:00       45.957       45.609       87.176       62.659       80.012       60.163     3926.202     6401.962     3619.554        1.287        0.697       64.747       60.361        0.869      344.775       21.832      857.387
06/18/2013  10:20:00       95.149      -88.026       -0.817       85.913      102.070       61.126     7381.026    10418.374     3736.435        1.916        1.077      129.622       61.983        0.229      344.807       21.887      857.384
06/18/2013  10:21:00      114.627      -88.173       -2.352       77.057       79.506       66.551     5937.827     6321.153     4429.048        1.880        0.834      144.617       62.780        0.188      344.801       21.877      857.398
06/18/2013  10:22:00       41.775       27.420       50.904       59.016       52.939       43.478     3482.903     2802.566     1890.307        0.663        0.409       49.970       35.918        0.517      344.741       21.776      857.403
06/18/2013  10:23:00        7.224     -145.488       29.726       56.721       77.736       53.329     3217.219     6042.848     2843.930        1.710        0.605      145.668       50.162        0.119      344.782       21.844      857.394
06/18/2013  10:24:00       48.397      -38.310        7.055       69.753       72.823       46.976     4865.521     5303.257     2206.725        0.812        0.619       61.725       25.323        0.168      344.786       21.853      857.395
06/18/2013  10:25:00       40.990        9.833       10.580       45.346       66.492       38.035     2056.231     4421.164     1446.651        0.490        0.396       42.153       23.905        0.322      344.666       21.646      857.368
06/18/2013  10:26:00       37.731       65.035      107.603       58.045       56.434       35.002     3369.246     3184.779     1225.171        1.250        0.389       75.187       25.576        0.116      344.851       21.964      857.336
06/18/2013  10:27:00       56.266       31.330       64.751       56.700       44.179       34.370     3214.842     1951.789     1181.307        0.734        0.317       64.400       17.170        0.071      344.739       21.772      857.332
06/18/2013  10:28:00       67.860      -23.832       37.476       62.806       56.200       45.798     3944.637     3158.462     2097.492        0.789        0.460       71.924       35.041        0.237      344.823       21.916      857.346
06/18/2013  10:29:00      -22.890      -23.446       21.031       37.943       74.980       41.000     1439.640     5621.975     1680.991        0.513        0.437       32.767       33.830        1.066      345.113       22.412      857.353
06/18/2013  10:30:00       30.045       28.626       60.271       47.504       51.395       39.481     2256.639     2641.405     1558.713        0.590        0.323       41.498       18.465        0.198      345.477       23.037      857.360
06/18/2013  10:31:00       24.361       -4.485       49.392       67.545       90.927       52.281     4562.387     8267.727     2733.338        0.931        0.778       24.770       61.030        6.071      345.083       22.361      857.363
06/18/2013  10:32:00       91.485     -114.756        5.394       80.023      109.000       50.085     6403.614    11880.989     2508.521        2.118        1.040      146.760       57.942        0.156      344.817       21.905      857.359
06/18/2013  10:33:00        4.446       38.367       92.220       43.108       63.307       36.160     1858.262     4007.831     1307.562        0.858        0.359       38.624       30.500        0.624      345.211       22.579      857.347
06/18/2013  10:34:00       39.834      -27.176       34.961       59.413       59.986       40.892     3529.930     3598.378     1672.153        0.617        0.440       48.221       45.576        0.893      345.093       22.377      857.348
06/18/2013  10:35:00       52.495      -67.247       20.941       55.951       97.321       62.874     3130.555     9471.355     3953.083        1.213        0.828       85.311       56.757        0.443      345.010       22.236      857.321
06/18/2013  10:36:00       29.369      -27.952       33.971       37.054       65.484       30.388     1372.980     4288.097      923.452        0.469        0.329       40.544       33.596        0.687      344.938       22.112      857.330
06/18/2013  10:37:00       96.883     -103.952       -6.167       68.796       58.793       48.267     4732.898     3456.612     2329.672        1.537        0.526      142.099       38.978        0.075      344.712       21.724      857.327
06/18/2013  10:38:00       36.055       -3.844       64.067       56.402       90.595       60.257     3181.206     8207.473     3630.963        1.022        0.751       36.259       55.819        2.370      344.948       22.129      857.314
06/18/2013  10:39:00       29.756      -18.462       31.197       52.944       56.394       51.207     2803.063     3180.300     2622.142        0.540        0.430       35.018       42.982        1.507      344.266       20.964      857.302
06/18/2013  10:40:00       -9.221      -20.682       15.891       44.311       35.929       24.380     1963.499     1290.898      594.383        0.231        0.192       22.645       20.432        0.814      344.694       21.695      857.302
06/18/2013  10:41:00       22.659      -83.479       16.701       39.706       79.506       39.262     1576.597     6321.190     1541.466        0.860        0.472       86.499       39.347        0.207      344.851       21.963      857.304
06/18/2013  10:42:00      136.168     -182.849      -29.201       83.390       98.188       54.873     6953.938     9640.831     3011.016        3.621        0.980      227.982       55.240        0.059      344.737       21.766      857.271
06/18/2013  10:43:00      171.860     -188.633      -57.921      112.696      129.430       68.628    12700.335    16752.037     4709.764        5.131        1.708      255.183       75.135        0.087      344.691       21.685      857.255
06/18/2013  10:44:00       59.170        0.506       83.213       70.463       99.009       55.522     4965.080     9802.720     3082.684        1.413        0.893       59.172       57.083        0.931      344.532       21.417      857.268
06/18/2013  10:45:00       60.629       44.855       38.431       69.558       58.814       42.556     4838.282     3459.049     1810.972        0.863        0.505       75.418       17.827        0.056      344.741       21.774      857.245
06/18/2013  10:46:00      139.449       95.722       67.516      131.506       82.104       67.973    17293.782     6741.065     4620.371        3.091        1.433      169.141       67.060        0.157      344.656       21.628      857.205
06/18/2013  10:47:00       38.641       13.015       66.863       62.041       69.035       41.678     3849.029     4765.835     1737.081        0.824        0.518       40.774       28.175        0.477      344.773       21.830      857.188
06/18/2013  10:48:00      104.948       68.912       42.793       64.745       46.676       67.067     4191.902     2178.681     4498.000        1.423        0.543      125.551       14.997        0.014      344.955       22.141      857.182
06/18/2013  10:49:00       50.141       54.498       49.929       49.683       48.332       27.697     2468.369     2335.948      767.117        0.677        0.279       74.055       22.434        0.092      344.945       22.126      857.203
06/18/2013  10:50:00       61.941       11.883       24.440       52.723       66.973       44.640     2779.743     4485.371     1992.760        0.691        0.463       63.071       36.860        0.342      344.762       21.812      857.180
06/18/2013  10:51:00       41.352       46.002       51.991       36.831       27.161       29.563     1356.521      737.693      873.963        0.475        0.148       61.857       19.654        0.101      344.983       22.190      857.159
06/18/2013  10:52:00       -1.939       53.731       45.459       62.964       48.950       37.189     3964.407     2396.056     1383.027        0.635        0.387       53.766       29.865        0.309      345.126       22.435      857.184
06/18/2013  10:53:00      -26.191       43.621       13.454       41.833       45.573       38.233     1749.974     2076.878     1461.732        0.403        0.264       50.880       26.580        0.273      345.350       22.819      857.186
06/18/2013  10:54:00        7.966       16.399       26.052       32.208       24.498       26.400     1037.332      600.146      696.977        0.167        0.117       18.232        8.810        0.233      345.506       23.085      857.168
06/18/2013  10:55:00       67.237       75.004       27.151       57.884       51.549       57.718     3350.580     2657.351     3331.403        1.011        0.467      100.730       43.569        0.187      345.733       23.476      857.141
06/18/2013  10:56:00       55.332      129.136      121.407       88.466       69.503       68.557     7826.318     4830.656     4700.119        2.591        0.868      140.491       63.303        0.203      345.279       22.693      857.133
06/18/2013  10:57:00      132.873       93.204       29.269       65.932       70.436       69.308     4346.999     4961.282     4803.538        2.065        0.706      162.303       21.500        0.018      344.773       21.830      857.108
06/18/2013  10:58:00      142.080       47.379       60.038      137.029       92.502       73.363    18776.953     8556.687     5382.197        2.937        1.636      149.771       50.998        0.116      345.485       23.046      857.086
06/18/2013  10:59:00      177.013      148.374      107.157      108.172       85.836       95.424    11701.273     7367.747     9105.754        4.650        1.409      230.973       73.006        0.100      345.039       22.281      857.112
06/18/2013  11:00:00       76.393       28.266       77.962       83.409       94.396       66.942     6957.130     8910.662     4481.205        1.653        1.017       81.455       61.452        0.569      345.190       22.543      857.145
06/18/2013  11:01:00      132.405      -73.984       42.723       79.601       77.508       52.402     6336.288     6007.417     2745.962        1.996        0.754      151.673       44.526        0.086      345.098       22.385      857.143
06/18/2013  11:02:00       40.670       25.962       71.845       43.701       42.881       31.606     1909.798     1838.789      998.935        0.612        0.237       48.250       21.877        0.206      345.721       23.453      857.144
06/18/2013  11:03:00        8.566       48.671       87.976       37.005       43.083       32.299     1369.369     1856.144     1043.238        0.722        0.213       49.419       23.513        0.226      345.446       22.982      857.119
06/18/2013  11:04:00       13.945       -4.879        4.421       37.617       58.046       33.076     1415.020     3369.321     1094.023        0.306        0.294       14.774       16.223        1.206      345.362       22.838      857.094
06/18/2013  11:05:00        9.519      -59.632       34.827       41.222       66.313       43.197     1699.251     4397.472     1866.007        0.641        0.398       60.387       36.138        0.358      345.305       22.740      857.098
06/18/2013  11:06:00        3.710      -62.958        8.007       49.819       32.647       25.390     2481.980     1065.848      644.664        0.412        0.210       63.067       26.912        0.182      345.243       22.633      857.122
06/18/2013  11:07:00      -72.703      -48.540       13.091       73.477       41.751       40.162     5398.891     1743.129     1612.953        0.828        0.438       87.418       35.988        0.169      345.586       23.221      857.194
06/18/2013  11:08:00      -47.056     -245.348       12.082      104.397      229.550       67.538    10898.794    52693.183     4561.402        6.534        3.408      249.820       43.061        0.030      345.034       22.274      857.145
06/18/2013  11:09:00      -70.759      -21.331       52.452      151.996      165.980       89.699    23102.924    27549.348     8045.949        3.344        2.935       73.905       83.365        1.272      345.638       23.310      857.052
06/18/2013  11:10:00     -343.296     -143.389       14.634      211.644      139.324       74.326    44792.973    19411.038     5524.337       10.416        3.486      372.039       90.631        0.059      345.332       22.783      857.077
06/18/2013  11:11:00     -390.728      -65.639      -17.086      214.349      142.906       70.246    45945.574    20422.173     4934.534       11.427        3.565      396.203       93.387        0.056      345.143       22.461      857.025
06/18/2013  11:12:00     -180.858     -120.309       17.250      140.781      175.238       75.887    19819.324    30708.202     5758.854        5.187        2.814      217.218       83.641        0.148      345.577       23.204      856.953
06/18/2013  11:13:00     -329.862     -331.626        9.946      305.522      229.423      112.615    93343.928    52634.818    12682.055       18.874        7.933      467.744      115.490        0.061      345.303       22.734      856.970
06/18/2013  11:14:00     -474.344     -489.131      -19.874      333.834      198.604      114.030   111444.947    39443.475    13002.789       31.424        8.195      681.361      119.496        0.031      344.858       21.971      857.004
06/18/2013  11:15:00     -244.742     -294.924        9.603      234.123      211.026      107.776    54813.381    44531.973    11615.771       12.894        5.548      383.248      122.173        0.102      345.118       22.417      856.990
06/18/2013  11:16:00     -249.027     -254.754        2.289      190.844      172.252      106.389    36421.283    29670.751    11318.545       10.215        3.871      356.250      108.398        0.093      345.204       22.565      856.977
06/18/2013  11:17:00     -362.773     -197.228      -12.947      198.777      187.743       81.299    39512.375    35247.452     6609.595       12.600        4.068      412.921       81.617        0.039      345.019       22.247      857.027
06/18/2013  11:18:00     -345.977     -217.868      -14.148      156.219      109.692       71.471    24404.531    12032.260     5108.113       10.445        2.077      408.860       56.808        0.019      345.088       22.366      856.984
06/18/2013  11:19:00      -83.384      -30.902       56.614      174.697      122.225       86.352    30519.072    14939.021     7456.671        3.200        2.646       88.926       94.023        1.118      345.537       23.137      856.955
06/18/2013  11:20:00     -453.806     -149.167      -19.713      280.165      174.079       97.942    78492.702    30303.524     9592.661       17.346        5.919      477.693      131.992        0.076      345.244       22.632      856.969
06/18/2013  11:21:00     -591.532     -370.337      -14.345      298.173      186.804      116.083    88907.419    34895.739    13475.357       31.224        6.864      697.896      134.790        0.037      344.820       21.907      856.895
06/18/2013  11:22:00     -519.052     -265.857        2.929      314.354      210.160      134.197    98818.727    44167.146    18008.795       25.052        8.050      583.177      168.106        0.083      344.978       22.177      856.910
06/18/2013  11:23:00     -668.804     -415.551      -17.376      271.078      238.660      127.093    73483.249    56958.823    16152.709       38.341        7.330      787.389      130.545        0.027      344.887       22.021      856.896
06/18/2013  11:24:00     -717.197     -318.197      -40.124      322.800      245.545      130.628   104199.874    60292.106    17063.629       39.936        9.078      784.615      137.226        0.031      344.927       22.090      856.860
06/18/2013  11:25:00     -771.083     -314.906      -32.974      357.778      246.972      135.013   128005.268    60995.047    18228.607       45.098       10.361      832.908      170.436        0.042      344.964       22.152      856.840
06/18/2013  11:26:00     -616.284     -386.024      -39.024      255.002      233.935      123.845    65025.946    54725.684    15337.631       33.269        6.754      727.200      127.369        0.031      345.098       22.382      856.899
06/18/2013  11:27:00     -686.181     -394.599      -33.684      411.425      301.655      155.977   169270.819    90995.994    24328.757       45.608       14.230      791.551      196.093        0.061      344.940       22.111      856.900
06/18/2013  11:28:00     -669.721     -387.536      -25.927      365.472      225.584      133.321   133569.810    50887.957    17774.546       40.077       10.112      773.764      160.668        0.043      344.835       21.933      856.923
06/18/2013  11:29:00     -723.359     -415.685      -36.988      273.085      248.378      127.749    74575.295    61691.554    16319.929       42.497        7.629      834.292      143.298        0.030      344.793       21.861      856.887
06/18/2013  11:30:00     -490.132     -398.232      -12.073      331.074      236.684      116.117   109609.698    56019.220    13483.250       28.900        8.956      631.520      140.804        0.050      344.980       22.180      856.882
06/18/2013  11:31:00     -346.820     -284.744       20.326      330.536      256.540      142.723   109253.961    65812.915    20369.766       19.857        9.772      448.736      170.757        0.145      344.902       22.047      856.873
06/18/2013  11:32:00     -333.493     -269.720       12.734      257.966      238.237      120.883    66546.577    56757.007    14612.807       16.099        6.896      428.913      140.130        0.107      344.996       22.208      856.855
06/18/2013  11:33:00     -412.189     -308.756      -16.299      257.027      222.399       95.779    66062.832    49461.368     9173.588       19.507        6.235      515.005      113.718        0.049      344.996       22.207      856.883
06/18/2013  11:34:00     -537.164     -337.066       -6.304      282.877      221.425      115.095    80019.629    49028.941    13246.774       27.222        7.115      634.159      142.819        0.051      344.989       22.197      856.841
06/18/2013  11:35:00     -600.911     -460.115      -24.217      260.836      290.544      127.309    68035.648    84415.914    16207.598       37.099        8.433      756.835      129.200        0.029      344.940       22.111      856.867
06/18/2013  11:36:00     -510.562     -283.292      -12.454      341.666      227.099      136.761   116735.962    51574.173    18703.667       26.401        9.351      583.890      168.018        0.083      344.911       22.062      856.881
06/18/2013  11:37:00     -396.106     -170.239       -0.718      289.069      192.228      121.843    83561.125    36951.655    14845.703       16.059        6.768      431.139      154.407        0.128      344.849       21.958      856.865
06/18/2013  11:38:00     -635.754     -361.881      -30.085      275.826      311.769      123.917    76080.119    97199.907    15355.429       36.230        9.432      731.534      136.350        0.035      344.783       21.844      856.865
06/18/2013  11:39:00     -442.980     -230.561       -5.992      285.742      192.545      111.393    81648.417    37073.625    12408.327       19.025        6.557      499.390      119.149        0.057      344.905       22.052      856.885
06/18/2013  11:40:00     -554.358     -295.879        3.444      314.119      268.420      149.499    98670.737    72049.097    22350.087       29.393        9.653      628.377      165.369        0.069      344.912       22.063      856.836
06/18/2013  11:41:00     -671.002     -306.564      -21.413      339.324      291.068      142.910   115140.956    84720.789    20423.303       38.244       11.014      737.717      164.161        0.050      344.674       21.655      856.800
06/18/2013  11:42:00     -443.020     -302.059       35.551      416.314      289.559      167.792   173317.248    83844.550    28154.138       28.699       14.266      536.196      196.477        0.134      344.925       22.087      856.863
06/18/2013  11:43:00     -601.458     -426.966      -39.161      248.215      216.072      128.141    61610.893    46687.076    16420.173       33.513        6.236      737.598       96.351        0.017      344.676       21.661      856.901
06/18/2013  11:44:00     -630.459     -313.553      -40.978      294.118      197.296      125.972    86505.616    38925.867    15868.964       31.936        7.065      704.126      139.118        0.039      344.943       22.117      856.875
06/18/2013  11:45:00     -618.137     -341.678      -21.346      369.295      304.692      128.440   136378.831    92837.291    16496.764       37.245       12.286      706.284      168.604        0.057      344.960       22.147      856.843
06/18/2013  11:46:00     -659.593     -341.029      -28.565      272.625      253.794      119.431    74324.459    64411.423    14263.691       35.256        7.650      742.539      120.587        0.026      344.763       21.808      856.847
06/18/2013  11:47:00     -561.427     -324.235       -1.167      391.139      218.559      134.853   152989.990    47768.101    18185.230       31.959       10.947      648.327      168.916        0.068      344.875       22.001      856.775
06/18/2013  11:48:00     -482.865     -301.304       12.766      328.956      305.151      145.168   108212.230    93117.258    21073.690       27.321       11.120      569.160      161.184        0.080      344.924       22.086      856.775
06/18/2013  11:49:00     -687.919     -399.407      -21.634      288.047      283.365      137.720    82971.105    80295.518    18966.713       40.769        9.112      795.461      149.570        0.035      344.726       21.745      856.790
06/18/2013  11:50:00     -687.020     -286.973      -30.388      340.958      253.094      141.609   116252.338    64056.562    20053.233       37.778       10.018      744.547      151.128        0.041      344.820       21.906      856.746
06/18/2013  11:51:00     -752.458     -467.779      -43.507      340.190      268.242      135.607   115729.353    71953.751    18389.390       49.645       10.304      886.008      132.358        0.022      344.766       21.814      856.768
06/18/2013  11:52:00     -494.254     -358.035      -23.396      263.573      290.153      129.917    69470.952    84188.771    16878.449       27.175        8.527      610.308      131.195        0.046      344.963       22.151      856.829
06/18/2013  11:53:00     -685.786     -529.748      -17.785      311.553      266.047      137.684    97065.331    70781.030    18956.841       46.899        9.340      866.565      136.287        0.025      345.046       22.291      856.810
06/18/2013  11:54:00     -387.425     -393.865       -1.670      272.548      192.038      125.843    74282.475    36878.747    15836.505       21.609        6.350      552.475      121.512        0.048      344.783       21.844      856.901
06/18/2013  11:55:00     -544.829     -213.499      -11.303      307.676      218.547      124.105    94664.659    47762.708    15401.991       25.016        7.891      585.167      135.444        0.054      344.934       22.103      856.905
06/18/2013  11:56:00     -383.765     -210.122       -5.060      229.154      173.631      100.394    52511.441    30147.683    10078.889       14.208        4.637      437.523       71.585        0.027      345.092       22.373      856.950
06/18/2013  11:57:00     -544.115     -301.676      -24.747      331.271      255.965      141.032   109740.531    65518.138    19889.992       29.138        9.757      622.149      146.999        0.056      344.943       22.119      856.908
06/18/2013  11:58:00     -500.273     -360.387        4.688      284.384      252.695      146.161    80873.983    63854.845    21363.026       27.310        8.305      616.565      162.694        0.070      344.950       22.129      856.846
06/18/2013  11:59:00     -572.049     -362.836      -14.345      335.710      241.442      132.952   112701.379    58294.238    17676.187       32.385        9.434      677.414      160.178        0.056      344.924       22.085      856.891
06/18/2013  12:00:00     -597.601     -280.289       -2.277      302.581      308.478      146.419    91555.505    95158.471    21438.385       32.188       10.408      660.067      160.497        0.059      344.866       21.986      856.836
06/18/2013  12:01:00     -536.905     -315.094       -8.741      294.385      272.168      133.356    86662.721    74075.261    17783.946       28.304        8.926      622.536      143.094        0.053      344.883       22.015      856.876
06/18/2013  12:02:00     -644.330     -214.316       -2.273      317.250      327.373      131.377   100647.440   107173.142    17259.869       34.304       11.254      679.038      155.550        0.052      344.758       21.800      856.833
06/18/2013  12:03:00     -530.776     -394.817      -20.913      242.850      218.784      114.801    58976.180    47866.472    13179.382       27.901        6.001      661.516      105.975        0.026      344.911       22.063      856.901
06/18/2013  12:04:00     -656.680     -290.262       -4.950      321.119      281.924      129.618   103117.290    79481.113    16800.753       35.741        9.970      717.970      145.172        0.041      344.788       21.852      856.854
06/18/2013  12:05:00     -412.692      -94.321        1.103      271.873      198.572      124.793    73914.820    39430.988    15573.313       15.404        6.446      423.333      140.978        0.111      345.082       22.357      856.867
06/18/2013  12:06:00     -499.181     -240.399       -1.355      292.735      233.287      118.074    85693.547    54422.629    13941.393       23.049        7.703      554.052      128.303        0.054      345.019       22.247      856.888
06/18/2013  12:07:00     -463.361     -417.678       -2.817      272.851      243.720      124.984    74447.422    59399.667    15620.998       26.929        7.473      623.826      135.580        0.047      345.037       22.277      856.873
06/18/2013  12:08:00     -307.952     -142.665       12.949      223.331      185.207       90.847    49876.688    34301.611     8253.128       10.387        4.622      339.393      109.789        0.105      345.239       22.624      856.903
06/18/2013  12:09:00     -283.401     -193.317       29.411      261.782      261.361      114.774    68530.066    68309.489    13173.028       13.425        7.501      343.056      143.202        0.174      345.269       22.675      856.865
06/18/2013  12:10:00     -650.202     -432.389      -48.726      287.461      224.552      121.903    82633.579    50423.709    14860.235       37.998        7.396      780.848      117.458        0.023      344.638       21.596      856.751
06/18/2013  12:11:00     -464.405     -229.687       -4.410      262.262      222.338      114.520    68781.542    49433.990    13114.867       19.986        6.567      518.100      118.771        0.053      344.966       22.157      856.768
06/18/2013  12:12:00     -533.672     -291.706      -20.603      291.547      236.666      122.632    84999.634    56011.031    15038.515       26.315        7.802      608.192      136.804        0.051      345.062       22.322      856.772
06/18/2013  12:13:00     -639.763     -399.205      -14.423      365.495      260.995      128.608   133586.755    68118.320    16539.981       39.351       10.912      754.096      165.810        0.048      345.097       22.382      856.691
06/18/2013  12:14:00     -513.524     -376.579       -5.835      251.040      202.967      133.169    63021.326    41195.692    17733.908       26.373        6.098      636.804      125.342        0.039      345.109       22.401      856.737
06/18/2013  12:15:00     -473.068     -269.815        1.537      278.744      191.004      112.779    77698.004    36482.393    12719.013       21.172        6.345      544.604      123.147        0.051      345.146       22.465      856.757
06/18/2013  12:16:00     -381.707     -308.088        1.342      303.342      237.895      109.260    92016.280    56594.103    11937.766       20.055        8.027      490.529      116.641        0.057      345.045       22.291      856.785
06/18/2013  12:17:00     -271.089     -413.870        7.144      173.900      254.310      108.584    30241.251    64673.704    11790.557       17.575        5.335      494.750       87.741        0.031      345.188       22.537      856.853
06/18/2013  12:18:00     -460.180     -377.440      -17.767      249.775      269.288      101.835    62387.723    72516.144    10370.401       24.988        7.264      595.169       97.854        0.027      344.879       22.007      856.906
06/18/2013  12:19:00     -464.357     -349.534      -26.799      204.704      156.415       98.413    41903.754    24465.607     9685.110       20.727        3.803      581.207       86.276        0.022      344.896       22.037      856.886
06/18/2013  12:20:00     -418.534     -308.230       -4.451      221.379      192.028      106.819    49008.736    36874.754    11410.210       18.373        4.865      519.785       96.767        0.035      345.142       22.458      856.873
06/18/2013  12:21:00     -504.210     -387.479      -16.349      250.812      233.931      117.263    62906.827    54723.633    13750.670       26.798        6.569      635.899      115.054        0.033      345.052       22.304      856.826
06/18/2013  12:22:00     -381.169     -546.111      -19.815      217.713      255.446      108.388    47399.037    65252.518    11748.042       28.413        6.220      665.978      110.719        0.028      345.107       22.397      856.895
06/18/2013  12:23:00     -336.476     -257.523       15.414      236.272      204.904      102.408    55824.484    41985.511    10487.303       14.401        5.415      423.714      105.894        0.062      345.283       22.699      856.921
06/18/2013  12:24:00     -231.709     -231.997        1.630      182.345      188.852       87.062    33249.706    35664.892     7579.816        9.199        3.825      327.890       80.760        0.061      345.306       22.738      856.941
06/18/2013  12:25:00     -139.638     -193.231       -2.183      131.186      107.612       60.457    17209.756    11580.427     3655.021        4.464        1.622      238.405       71.171        0.089      345.576       23.201      856.927
06/18/2013  12:26:00     -218.285     -262.798       -9.383      190.840      160.653       78.044    36419.966    25809.460     6090.820        9.255        3.416      341.630       75.166        0.048      345.552       23.161      856.972
06/18/2013  12:27:00     -258.478     -343.791      -25.770      210.223      256.848       98.584    44193.852    65970.770     9718.845       15.275        5.994      430.120      113.281        0.069      345.121       22.421      856.960
06/18/2013  12:28:00     -387.050     -186.313        5.091      229.943      157.774       96.423    52873.714    24892.779     9297.426       13.579        4.353      429.558      109.829        0.065      345.197       22.553      856.924
06/18/2013  12:29:00     -232.573     -306.332        4.664      166.669      192.099       95.624    27778.451    36901.891     9143.900       11.087        3.691      384.616       84.400        0.048      345.113       22.407      856.898
06/18/2013  12:30:00     -266.160     -285.860       19.682      250.309      221.989      122.913    62654.591    49279.067    15107.593       13.997        6.352      390.585      142.539        0.133      345.157       22.484      856.834
06/18/2013  12:31:00     -307.174     -198.786       -8.741      192.574      134.636       81.587    37084.897    18126.783     6656.360        9.790        3.093      365.885       71.202        0.038      345.147       22.466      856.850
06/18/2013  12:32:00     -266.441     -226.915      -20.738      219.141      164.201       94.687    48022.765    26961.967     8965.639       10.341        4.198      349.973      109.227        0.097      345.205       22.566      856.807
06/18/2013  12:33:00     -279.128     -193.021       -0.688      177.875      129.298       75.861    31639.622    16718.011     5754.914        8.463        2.706      339.366       91.044        0.072      345.315       22.753      856.748
06/18/2013  12:34:00     -312.621     -363.036       -5.497      261.865      217.388      130.021    68573.205    47257.526    16905.456       18.112        6.637      479.090      103.291        0.046      345.193       22.546      856.773
06/18/2013  12:35:00     -340.109     -279.920      -24.069      224.283      223.640      109.067    50302.752    50014.905    11895.588       15.339        5.611      440.487      104.586        0.056      345.311       22.747      856.737
06/18/2013  12:36:00     -408.338     -282.323        2.785      228.310      218.920      110.207    52125.365    47925.993    12145.497       17.930        5.610      496.433      130.717        0.069      345.169       22.505      856.701
06/18/2013  12:37:00     -295.136     -252.899       -4.679      251.685      197.032      104.949    63345.110    38821.676    11014.191       13.211        5.659      388.668      104.807        0.073      345.080       22.352      856.705
06/18/2013  12:38:00     -276.489     -310.314       -2.034      174.221      236.719      101.840    30353.083    56036.011    10371.386       13.473        4.838      415.621       98.554        0.056      345.003       22.221      856.679
06/18/2013  12:39:00     -110.498     -220.857        4.403      172.590      127.227       88.886    29787.241    16186.765     7900.717        5.743        2.694      246.957       67.638        0.075      345.142       22.458      856.628
06/18/2013  12:40:00     -253.088     -331.851      -15.388      235.796      150.565       87.732    55599.835    22669.943     7696.844       13.017        4.298      417.347       56.917        0.019      345.250       22.642      856.640
06/18/2013  12:41:00     -427.361     -374.735       12.593      391.729      215.042      125.687   153451.949    46243.032    15797.122       26.931       10.775      568.387      147.772        0.068      345.255       22.650      856.680
06/18/2013  12:42:00     -439.303     -277.196      -13.557      245.153      187.092       92.012    60100.191    35003.281     8466.241       18.677        5.178      519.446      103.936        0.040      345.303       22.734      856.703
06/18/2013  12:43:00     -289.802     -390.422        1.638      215.630      240.925      122.341    46496.251    58044.735    14967.417       17.794        5.975      486.225      118.509        0.059      345.217       22.586      856.712
06/18/2013  12:44:00     -376.216     -261.784      -30.686      204.130      155.777       96.634    41669.083    24266.596     9338.221       14.313        3.764      458.333      111.177        0.059      345.261       22.662      856.713
06/18/2013  12:45:00     -499.046     -388.573       -8.305      288.590      248.651      124.188    83284.279    61827.172    15422.581       28.029        8.027      632.484      148.698        0.055      344.934       22.101      856.670
06/18/2013  12:46:00     -374.996     -286.507      -18.712      195.693      161.363       90.012    38295.759    26037.873     8102.140       14.773        3.622      471.920      107.577        0.052      345.170       22.505      856.701
06/18/2013  12:47:00     -333.735     -404.326      -10.056      187.042      191.243       89.774    34984.722    36573.717     8059.450       17.727        3.981      524.269       93.326        0.032      345.144       22.462      856.682
06/18/2013  12:48:00     -177.963     -157.574       13.977      228.476      128.364       98.582    52201.330    16477.209     9718.477        6.753        3.920      237.698      109.847        0.214      345.381       22.868      856.666
06/18/2013  12:49:00     -126.456     -166.416      -18.263      120.416      108.342       61.483    14500.007    11737.956     3780.125        3.701        1.501      209.011       30.683        0.022      345.425       22.940      856.580
06/18/2013  12:50:00     -261.728     -126.857       16.107      201.571      115.690       96.951    40630.992    13384.255     9399.494        7.412        3.171      290.851       94.934        0.107      345.563       23.181      856.605
06/18/2013  12:51:00     -364.369     -310.747        1.197      228.932      163.675       91.044    52409.634    26789.478     8289.097       15.839        4.374      478.882       86.194        0.032      345.424       22.940      856.568
06/18/2013  12:52:00     -342.004     -230.089        8.921      252.975      165.195       96.919    63996.419    27289.401     9393.219       13.531        5.034      412.198      114.390        0.077      345.608       23.257      856.526
06/18/2013  12:53:00     -232.710     -178.151       12.646      154.225      138.215       69.162    23785.279    19103.323     4783.421        6.685        2.384      293.073       72.357        0.061      345.751       23.502      856.571
06/18/2013  12:54:00     -291.006     -292.766       -4.116      219.869      184.231       89.762    48342.255    33941.006     8057.205       13.036        4.517      412.792       94.995        0.053      345.414       22.923      856.616
06/18/2013  12:55:00     -315.375      -92.553       12.255      184.151      139.928       90.209    33911.718    19579.788     8137.629        8.489        3.081      328.675       95.718        0.085      345.540       23.140      856.593
06/18/2013  12:56:00     -409.811     -291.710      -12.859      227.655      262.063      107.875    51826.641    68677.210    11637.050       19.265        6.607      503.030      119.049        0.056      345.337       22.791      856.591
06/18/2013  12:57:00     -406.294     -137.581       -7.264      239.386      181.626       98.012    57305.722    32987.990     9606.398       14.196        4.995      428.956      110.032        0.066      345.285       22.704      856.598
06/18/2013  12:58:00     -378.787     -267.110       -3.123      208.852      273.154      117.102    43619.172    74613.051    13712.824       17.336        6.597      463.494      121.597        0.069      345.244       22.632      856.670
06/18/2013  12:59:00     -187.870     -302.217       27.444      162.720      227.453       93.373    26477.704    51735.067     8718.579       10.714        4.347      355.852       88.945        0.062      345.250       22.642      856.684
06/18/2013  13:00:00     -318.461     -172.962       12.598      249.760      199.003       95.413    62380.301    39602.262     9103.576       12.127        5.554      362.399      112.871        0.097      345.346       22.808      856.610
06/18/2013  13:01:00     -192.175     -154.704       24.111      189.940      141.446       79.078    36077.346    20006.833     6253.275        6.188        3.117      246.707       81.533        0.109      345.469       23.018      856.547
06/18/2013  13:02:00     -282.613     -483.889       -3.159      285.529      230.047      120.054    81526.948    52921.425    14412.959       23.142        7.443      560.374      121.645        0.047      345.166       22.500      856.674
06/18/2013  13:03:00     -323.573     -341.986       -1.954      222.142      200.799       94.422    49347.064    40320.317     8915.560       16.010        4.929      470.801       92.089        0.038      345.272       22.681      856.660
06/18/2013  13:04:00     -413.434     -319.839       -4.522      237.924      200.408      109.543    56608.014    40163.191    11999.643       19.099        5.439      522.709      144.856        0.077      345.330       22.780      856.641
06/18/2013  13:05:00     -373.463     -180.951      -23.178      171.778      163.719       84.406    29507.554    26803.929     7124.376       11.808        3.172      414.991       83.587        0.041      345.421       22.936      856.627
06/18/2013  13:06:00     -389.295     -264.514      -11.459      173.919      166.692       86.580    30247.948    27786.382     7496.157       14.358        3.277      470.658       77.356        0.027      345.302       22.733      856.596
06/18/2013  13:07:00     -493.795     -332.923      -22.418      268.680      199.430      116.760    72188.834    39772.166    13632.800       24.036        6.280      595.543      129.213        0.047      345.263       22.667      856.555
06/18/2013  13:08:00     -502.002     -343.534       -7.574      278.946      204.274      112.449    77810.625    41727.923    12644.707       25.110        6.609      608.294      107.468        0.031      344.949       22.129      856.540
06/18/2013  13:09:00     -348.645     -301.646        1.271      217.232      204.890       90.429    47189.785    41979.810     8177.477       15.493        4.867      461.024      110.132        0.057      345.018       22.247      856.564
06/18/2013  13:10:00     -308.090     -283.662      -30.114      166.046      172.896       75.171    27571.218    29892.951     5650.632       11.969        3.156      418.789       77.708        0.034      345.302       22.731      856.555
06/18/2013  13:11:00     -187.308     -130.615       16.068      156.190      192.557       85.243    24395.187    37078.137     7266.358        6.056        3.437      228.352       85.764        0.141      345.484       23.044      856.506
06/18/2013  13:12:00     -349.846     -125.787        0.741      191.312      137.522       67.828    36600.289    18912.303     4600.687        9.915        3.006      371.772       77.680        0.044      345.263       22.665      856.456
06/18/2013  13:13:00     -318.740     -376.217        0.397      208.392      194.610      109.244    43427.354    37873.080    11934.301       16.817        4.662      493.087      122.844        0.062      345.299       22.726      856.455
06/18/2013  13:14:00     -424.031     -388.362      -18.449      292.453      238.773      136.351    85528.995    57012.350    18591.722       24.602        8.057      575.002      147.362        0.066      345.385       22.874      856.441
06/18/2013  13:15:00     -408.662     -375.758      -19.861      288.757      233.233      114.264    83380.345    54397.776    13056.264       22.968        7.542      555.156      145.270        0.068      345.340       22.798      856.494
06/18/2013  13:16:00     -247.950     -366.617       -9.404      270.879      195.617      115.735    73375.585    38266.011    13394.560       16.048        6.252      442.592      126.358        0.082      345.371       22.849      856.501
06/18/2013  13:17:00     -206.081     -350.274       -0.118      189.059      179.177       96.817    35743.399    32104.317     9373.564       12.118        3.861      406.400       85.805        0.045      345.487       23.048      856.569
06/18/2013  13:18:00     -252.510     -395.925       10.394      189.080      223.387      107.365    35751.286    49901.598    11527.226       15.888        4.859      469.594       97.077        0.043      345.211       22.576      856.575
06/18/2013  13:19:00     -242.134     -325.643        3.780      156.952      275.538       94.193    24633.967    75921.441     8872.243       13.704        5.471      405.799       95.630        0.056      345.352       22.818      856.601
06/18/2013  13:20:00     -295.717     -230.521       10.011      244.192      156.804       88.207    59629.517    24587.350     7780.449       11.632        4.600      374.951      102.826        0.075      345.377       22.862      856.523
06/18/2013  13:21:00     -300.956     -249.056       -2.474      169.085      176.137       93.309    28589.761    31024.334     8706.644       11.045        3.416      390.645       86.422        0.049      345.240       22.627      856.507
06/18/2013  13:22:00     -455.413     -334.050       -2.908      263.089      204.296      106.653    69215.625    41736.814    11374.877       22.064        6.116      564.792      142.593        0.064      345.255       22.651      856.518
06/18/2013  13:23:00     -272.600     -157.348        4.045      192.357      168.621       77.454    37001.072    28433.021     5999.074        8.524        3.572      314.753       74.718        0.056      345.612       23.264      856.550
06/18/2013  13:24:00     -356.755     -189.415        7.475      242.770      210.277       89.522    58937.479    44216.418     8014.154       13.717        5.558      403.921       93.706        0.054      345.398       22.898      856.540
06/18/2013  13:25:00     -289.388     -212.283        0.166      191.742      170.340       85.708    36765.144    29015.631     7345.918       10.095        3.656      358.900       94.568        0.069      345.188       22.538      856.553
06/18/2013  13:26:00     -300.154     -328.962        1.094      199.964      256.761       94.032    39985.535    65926.443     8842.014       15.651        5.738      445.318       87.124        0.038      345.094       22.376      856.521
06/18/2013  13:27:00     -227.629      -96.719        5.624      188.033       82.392       72.033    35356.447     6788.514     5188.690        5.426        2.367      247.324       84.988        0.118      345.299       22.729      856.446
06/18/2013  13:28:00     -278.202     -227.228       19.116      205.537      147.852       94.962    42245.260    21860.110     9017.719       10.124        3.656      359.206      103.510        0.083      345.620       23.275      856.449
06/18/2013  13:29:00     -462.183     -257.066      -13.624      324.573      206.818       96.075   105347.950    42773.629     9230.478       21.859        7.868      528.863      121.403        0.053      345.313       22.752      856.459
06/18/2013  13:30:00     -771.254     -307.846      -63.798      289.106      280.873      118.136    83582.019    78889.787    13956.128       43.501        8.821      830.423      127.145        0.023      344.805       21.881      856.378
06/18/2013  13:31:00     -563.850     -227.521      -24.582      265.382      192.732      118.235    70427.669    37145.763    13979.419       24.590        6.078      608.024      127.061        0.044      345.082       22.354      856.379
06/18/2013  13:32:00     -465.321     -299.451      -25.890      264.907      196.360      101.758    70175.774    38557.140    10354.680       21.295        5.954      553.349      119.552        0.047      344.962       22.149      856.417
06/18/2013  13:33:00     -354.041     -264.115      -18.260      167.019      137.744       89.497    27895.392    18973.499     8009.670       12.515        2.744      441.703       90.552        0.042      345.404       22.906      856.424
06/18/2013  13:34:00     -230.350     -256.525        7.296      213.228      147.347       89.553    45466.181    21711.234     8019.794        9.704        3.760      344.769       74.270        0.046      345.678       23.376      856.448
06/18/2013  13:35:00     -295.364     -152.569       12.544      160.605      149.908       84.123    25793.951    22472.535     7076.681        8.300        2.767      332.441       74.082        0.050      345.805       23.595      856.468
06/18/2013  13:36:00     -557.286     -361.503       -7.766      283.948      194.880      130.120    80626.428    37978.162    16931.196       28.840        6.777      664.268      145.062        0.048      345.258       22.656      856.478
06/18/2013  13:37:00     -447.985     -294.987       -0.509      219.499      155.789      101.450    48179.741    24270.084    10292.079       18.521        4.137      536.384      112.916        0.044      345.216       22.584      856.458
06/18/2013  13:38:00     -314.041     -295.981       11.579      255.435      239.210       94.320    65247.125    57221.625     8896.204       15.884        6.568      431.540      110.315        0.065      345.294       22.719      856.473
06/18/2013  13:39:00     -516.288     -397.489       -9.415      308.602      231.796      126.808    95234.950    53729.374    16080.218       29.481        8.252      651.576      162.744        0.062      344.949       22.127      856.449
06/18/2013  13:40:00     -498.462     -330.167      -22.415      276.913      246.313      122.154    76681.058    60670.201    14921.523       25.509        7.614      597.892      132.501        0.049      345.194       22.547      856.344
06/18/2013  13:41:00     -406.017     -390.849       -1.042      247.162      219.597      112.576    61088.924    48223.014    12673.367       21.978        6.099      563.572      111.866        0.039      345.320       22.763      856.483
06/18/2013  13:42:00     -436.176     -219.965        0.399      235.946      187.648       87.695    55670.663    35211.732     7690.428       16.858        4.929      488.502       97.170        0.040      345.388       22.878      856.576
06/18/2013  13:43:00     -307.388     -138.183       18.262      237.230      208.785       99.813    56278.294    43591.361     9962.553       11.185        5.492      337.019      111.022        0.109      345.374       22.856      856.557
06/18/2013  13:44:00     -410.681     -161.170      -32.305      168.937      147.392       75.097    28539.832    21724.363     5639.560       12.578        2.795      441.174       79.190        0.032      345.259       22.658      856.568
06/18/2013  13:45:00     -345.733     -210.274        7.397      171.379      141.762       82.653    29370.777    20096.395     6831.522       11.004        2.815      404.656       74.036        0.033      345.280       22.694      856.569
06/18/2013  13:46:00     -254.938     -260.691       -3.460      169.604      139.470       68.638    28765.425    19451.752     4711.125        9.294        2.646      364.628       72.688        0.040      345.382       22.870      856.562
06/18/2013  13:47:00     -284.417     -336.488       -2.130      194.400      218.690       99.425    37791.254    47825.460     9885.292       14.479        4.775      440.588      102.120        0.054      345.045       22.291      856.585
06/18/2013  13:48:00     -325.720     -216.162       29.599      250.692      155.486      101.200    62846.728    24176.034    10241.491       12.546        4.863      390.921      121.225        0.096      345.116       22.412      856.558
06/18/2013  13:49:00     -305.485     -277.924       -0.832      230.204      137.717      102.051    52993.866    18965.847    10414.460       12.645        4.119      412.993       89.263        0.047      345.056       22.311      856.540
06/18/2013  13:50:00     -599.715     -100.949      -32.045      265.714      244.323      114.919    70603.975    59693.730    13206.282       25.716        7.175      608.152      117.158        0.037      345.035       22.274      856.559
06/18/2013  13:51:00     -519.931     -126.317       -9.640      280.612      209.291      113.318    78743.100    43802.627    12840.875       21.085        6.769      535.055      141.006        0.069      345.075       22.342      856.526
06/18/2013  13:52:00     -304.185     -157.393       -4.000      176.011      266.537       99.126    30979.764    71042.099     9825.871       11.456        5.592      342.492       84.938        0.062      345.157       22.484      856.513
06/18/2013  13:53:00     -335.991     -126.022       12.333      267.973      178.731      113.098    71809.310    31944.878    12791.164       12.271        5.827      358.847      130.212        0.132      345.220       22.591      856.513
06/18/2013  13:54:00     -594.372     -248.408      -42.403      291.263      187.682       96.797    84834.293    35224.632     9369.564       27.308        6.471      644.193      131.856        0.042      344.913       22.066      856.458
06/18/2013  13:55:00     -680.913     -180.784      -23.795      341.602      249.779      115.124   116692.022    62389.551    13253.560       34.458        9.617      704.504      151.313        0.046      344.813       21.895      856.414
06/18/2013  13:56:00     -534.001     -182.660       -6.444      307.072      276.134      132.423    94293.236    76249.963    17535.959       25.328        9.404      564.377      164.950        0.085      344.970       22.163      856.401
06/18/2013  13:57:00     -488.363     -186.942        4.892      294.391      204.620      118.521    86665.794    41869.395    14047.157       20.800        7.129      522.920      133.871        0.066      344.941       22.113      856.432
06/18/2013  13:58:00     -316.094     -182.778        3.232      326.923      184.428      117.369   106878.857    34013.560    13775.464       14.397        7.733      365.135      155.748        0.182      345.003       22.221      856.423
06/18/2013  13:59:00     -350.104     -124.782        1.210      368.422      236.844      121.175   135734.435    56095.026    14683.393       17.229       10.326      371.676      157.487        0.180      344.916       22.071      856.385
06/18/2013  14:00:00     -317.547     -194.472       -2.492      284.071      244.433      134.733    80696.338    59747.707    18153.040       14.860        7.930      372.365      170.177        0.209      344.850       21.959      856.371
06/18/2013  14:01:00     -398.063     -179.950        6.100      385.803      177.233      113.070   148843.738    31411.687    12784.899       19.192        9.652      436.848      148.985        0.116      344.937       22.108      856.355
06/18/2013  14:02:00     -545.215     -108.157      -10.090      342.576      226.969      126.701   117358.126    51515.091    16053.128       24.696        9.246      555.840      153.071        0.076      344.957       22.142      856.332
06/18/2013  14:03:00     -480.456     -170.186       11.400      300.471      206.309      117.308    90283.082    42563.255    13761.251       20.324        7.330      509.707      149.456        0.086      344.965       22.155      856.321
06/18/2013  14:04:00     -615.303     -206.569      -53.188      276.185      236.186      131.978    76278.250    55783.727    17418.231       28.676        7.474      649.052      131.387        0.041      344.773       21.827      856.313
06/18/2013  14:05:00     -521.133     -245.025       -9.922      310.618      188.519      121.149    96483.584    35539.558    14677.107       23.918        7.335      575.862      159.183        0.076      344.686       21.676      856.353
06/18/2013  14:06:00     -438.472     -110.735      -14.383      259.253      211.188      123.967    67212.120    44600.542    15367.765       16.593        6.359      452.238      129.761        0.082      344.663       21.639      856.365
06/18/2013  14:07:00     -390.416     -276.193       -0.021      252.328      161.288      104.377    63669.371    26013.976    10894.478       16.462        5.029      478.233      128.686        0.072      344.591       21.516      856.339
06/18/2013  14:08:00     -416.274     -117.165        3.775      261.286      275.935      113.995    68270.340    76140.185    12994.936       17.218        7.870      432.449      110.504        0.065      344.772       21.824      856.277
06/18/2013  14:09:00     -408.195     -215.649        4.449      258.337      257.520      121.113    66738.145    66316.444    14668.238       18.040        7.386      461.657      129.840        0.079      344.907       22.056      856.276
06/18/2013  14:10:00     -467.262     -217.414      -20.020      272.970      237.888      117.663    74512.586    56590.743    13844.537       20.545        7.247      515.366      138.141        0.072      344.965       22.155      856.282
06/18/2013  14:11:00     -461.296     -155.295      -15.701      274.285      232.453      124.275    75232.513    54034.185    15444.175       19.091        7.236      486.735      136.813        0.079      344.865       21.985      856.298
06/18/2013  14:12:00     -491.298     -106.584      -25.394      298.199      169.741      115.349    88922.818    28811.839    13305.351       19.218        6.552      502.726      141.857        0.080      344.891       22.027      856.313
06/18/2013  14:13:00     -791.422     -159.058      -43.791      312.171      207.557      128.514    97450.676    43079.950    16515.861       40.528        7.852      807.248      144.990        0.032      344.635       21.590      856.254
06/18/2013  14:14:00     -503.346      -50.012      -31.665      250.044      140.412       88.675    62521.787    19715.487     7863.240       17.346        4.505      505.824       83.591        0.027      344.805       21.881      856.208
06/18/2013  14:15:00     -395.635     -344.493        1.354      268.788      230.169      133.226    72247.215    52977.550    17749.202       20.906        7.149      524.598      154.096        0.086      344.975       22.172      856.158
06/18/2013  14:16:00     -417.709     -266.406       18.483      307.997      237.842      139.923    94862.054    56568.681    19578.369       20.837        8.550      495.432      161.863        0.107      345.091       22.371      856.174
06/18/2013  14:17:00     -644.729       28.233      -27.412      296.545      172.568      119.692    87939.218    29779.616    14326.092       27.461        6.602      645.346      131.621        0.042      345.065       22.327      856.174
06/18/2013  14:18:00     -528.632     -171.717        5.969      329.375      215.446      118.655   108487.633    46416.845    14078.951       23.894        8.449      555.823      143.068        0.066      345.054       22.307      856.120
06/18/2013  14:19:00     -659.902      -70.698      -30.333      389.296      255.626      122.909   151551.115    65344.427    15106.584       33.665       11.600      663.678      152.334        0.053      344.974       22.169      856.063
06/18/2013  14:20:00     -390.007      -90.896        4.357      234.817      207.639      118.930    55139.243    43113.831    14144.410       13.637        5.620      400.459      119.515        0.089      345.303       22.733      856.069
06/18/2013  14:21:00     -381.866     -226.723       17.714      301.416      217.433      134.529    90851.386    47277.026    18098.165       17.685        7.811      444.100      149.386        0.113      345.312       22.749      856.075
06/18/2013  14:22:00     -277.481     -144.857       19.555      247.215      244.292      135.302    61115.402    59678.545    18306.671       11.870        6.955      313.016      133.845        0.183      345.100       22.386      856.074
06/18/2013  14:23:00     -577.283      -95.222       -5.634      500.079      218.008      137.156   250079.108    47527.674    18811.639       32.932       15.821      585.084      210.367        0.129      345.015       22.241      856.076
06/18/2013  14:24:00     -726.588      -67.313      -12.539      315.902      278.920      127.015    99794.191    77796.541    16132.837       36.313        9.686      729.700      144.764        0.039      344.749       21.783      856.081
06/18/2013  14:25:00     -666.621      -83.171      -24.472      314.627      228.765      114.637    98989.842    52333.551    13141.719       30.815        8.223      671.790      135.865        0.041      344.596       21.525      856.098
06/18/2013  14:26:00     -725.621      -27.862      -46.518      250.572      313.268      116.963    62786.244    98137.084    13680.258       35.200        8.730      726.156      117.654        0.026      344.622       21.568      856.001
06/18/2013  14:27:00     -385.400     -120.466      -18.158      187.098      157.148       86.112    35005.772    24695.456     7415.308       11.523        3.356      403.788       65.657        0.026      344.845       21.950      855.978
06/18/2013  14:28:00     -480.620     -280.111      -16.977      291.034      226.380      142.459    84701.029    51247.846    20294.699       23.296        7.812      556.289      141.788        0.065      344.852       21.961      855.999
06/18/2013  14:29:00     -589.573      -38.126      -24.603      309.011      173.031      108.910    95487.963    29939.764    11861.288       24.344        6.864      590.804      130.934        0.049      344.759       21.802      856.047
06/18/2013  14:30:00     -559.073      -85.331      -14.501      322.164      181.844      101.579   103789.765    33067.111    10318.350       23.359        7.359      565.548      115.692        0.042      344.799       21.871      856.024
06/18/2013  14:31:00     -440.224     -144.794       -5.651      293.269      214.508       95.999    86006.497    46013.828     9215.834       17.799        7.062      463.425      102.109        0.049      345.015       22.241      856.045
06/18/2013  14:32:00     -441.088     -228.540      -13.898      273.057      189.452      123.512    74560.163    35891.921    15255.116       18.632        6.285      496.779      149.777        0.091      344.711       21.721      856.073
06/18/2013  14:33:00     -581.983     -127.192      -16.694      221.773      162.979       89.790    49183.400    26562.168     8062.172       21.947        4.190      595.719       88.672        0.022      344.794       21.861      856.019
06/18/2013  14:34:00     -471.809      -20.116      -20.690      241.745      199.966       98.173    58440.593    39986.411     9638.022       16.573        5.403      472.238       96.991        0.042      345.042       22.286      855.994
06/18/2013  14:35:00     -458.457      -47.609        1.578      277.339      262.708      109.637    76916.826    69015.676    12020.186       18.517        7.898      460.922      116.425        0.064      345.003       22.221      855.994
06/18/2013  14:36:00     -380.562      -60.639       -2.445      213.168      175.319      110.799    45440.764    30736.720    12276.373       11.846        4.423      385.363      116.488        0.091      345.071       22.336      855.997
06/18/2013  14:37:00     -411.440      -31.443      -16.290      308.609      175.848      113.607    95239.715    30922.513    12906.468       15.478        6.953      412.640      122.926        0.089      345.046       22.294      855.974
06/18/2013  14:38:00     -399.200     -184.087      -11.756      256.782      208.230      103.797    65936.933    43359.571    10773.909       15.670        6.004      439.601      119.369        0.074      344.987       22.192      855.962
06/18/2013  14:39:00     -600.788     -103.983      -24.489      395.743      225.781      122.182   156612.533    50977.006    14928.515       29.739       11.126      609.720      158.822        0.068      344.960       22.147      855.911
06/18/2013  14:40:00     -348.326     -138.823       -1.456      203.797      195.408      101.148    41533.055    38184.254    10230.932       11.526        4.497      374.970      104.704        0.078      345.090       22.369      855.871
06/18/2013  14:41:00     -543.702     -148.040       -6.641      288.763      247.663      112.799    83383.958    61336.867    12723.603       23.748        7.872      563.496      127.578        0.051      345.149       22.469      855.865
06/18/2013  14:42:00     -622.420     -303.611      -25.780      357.374      255.430      127.950   127715.921    65244.731    16371.185       34.475       10.467      692.522      158.211        0.052      344.977       22.176      855.920
06/18/2013  14:43:00     -340.394     -208.946       22.976      276.658      199.467      128.535    76539.602    39787.111    16521.252       14.642        6.642      399.408      149.307        0.140      345.095       22.379      855.967
06/18/2013  14:44:00     -336.339     -180.234       -2.284      310.420      207.551      113.596    96360.733    43077.555    12904.153       14.895        7.617      381.587      137.319        0.130      345.185       22.532      855.981
06/18/2013  14:45:00     -481.587     -323.279        7.049      330.530      223.917      140.462   109250.171    50138.747    19729.484       25.777        8.956      580.031      159.833        0.076      344.962       22.151      855.951
06/18/2013  14:46:00     -574.257      -24.062      -18.721      360.278      253.862      128.393   129800.052    64445.800    16484.826       27.067       10.537      574.761      160.164        0.078      345.158       22.485      855.949
06/18/2013  14:47:00     -809.391     -158.554      -48.005      374.240      267.080      127.271   140055.824    71331.758    16197.957       45.503       11.379      824.775      152.115        0.034      344.973       22.169      855.879
06/18/2013  14:48:00     -659.744     -202.892       -7.395      317.239      244.422      130.281   100640.537    59742.310    16973.089       32.688        8.868      690.237      140.524        0.041      345.086       22.361      855.900
06/18/2013  14:49:00     -665.021     -127.279      -28.105      314.186      254.780      127.834    98712.925    64912.655    16341.452       31.957        8.998      677.092      148.174        0.048      344.831       21.925      855.913
06/18/2013  14:50:00     -506.454     -153.552      -18.343      260.547      209.702      105.211    67884.734    43975.121    11069.294       20.164        6.146      529.220      134.007        0.064      345.007       22.227      855.889
06/18/2013  14:51:00     -516.721     -246.325      -23.653      283.565      190.119      116.091    80409.337    36145.321    13477.051       22.911        6.502      572.431      137.003        0.057      345.202       22.561      855.923
06/18/2013  14:52:00     -439.119     -145.176        0.950      327.829      217.898      110.627   107471.741    47479.433    12238.346       19.051        8.359      462.495      142.461        0.095      345.193       22.545      855.926
06/18/2013  14:53:00     -540.810     -122.981      -18.971      304.165      301.287      127.196    92516.467    90773.700    16178.866       25.367        9.973      554.617      143.818        0.067      345.129       22.436      856.007
06/18/2013  14:54:00     -274.489      -94.141       46.777      279.772      209.115      147.759    78272.505    43728.950    21832.683       11.508        7.192      290.184      171.317        0.349      345.090       22.370      855.981
06/18/2013  14:55:00     -519.965     -125.327      -35.987      329.537      224.580      124.815   108594.706    50436.205    15578.694       23.095        8.730      534.856      147.108        0.076      345.066       22.328      856.018
06/18/2013  14:56:00     -805.947     -136.442      -34.262      310.181      251.730      120.165    96212.508    63368.163    14439.600       42.165        8.701      817.415      138.086        0.029      344.776       21.831      856.035
06/18/2013  14:57:00     -784.784     -136.996      -32.071      277.508      186.882      119.920    77010.888    34924.974    14380.872       38.097        6.316      796.652      120.128        0.023      344.694       21.690      855.953
06/18/2013  14:58:00     -511.765      -94.008       15.251      344.700      242.211      121.944   118817.937    58666.232    14870.281       23.162        9.618      520.328      166.785        0.103      344.892       22.029      855.926
06/18/2013  14:59:00     -412.276      -65.397      -24.933      284.626      265.113      110.264    81011.680    70285.127    12158.256       16.913        8.173      417.430      119.697        0.082      345.072       22.337      855.927
06/18/2013  15:00:00     -689.011     -236.990      -35.536      409.380      257.275      123.127   167592.251    66190.495    15160.158       39.050       12.447      728.629      154.352        0.045      344.903       22.049      855.943
06/18/2013  15:01:00     -651.980     -257.058      -19.876      317.802      222.771      117.884   100998.126    49626.801    13896.605       32.800        8.226      700.826      136.167        0.038      344.738       21.765      855.931
06/18/2013  15:02:00     -683.749     -196.301      -26.234      328.475      211.612      130.441   107895.725    44779.793    17014.982       33.818        8.485      711.369      162.125        0.052      344.842       21.944      855.868
06/18/2013  15:03:00     -621.741     -302.938      -20.575      300.619      310.528      145.144    90371.770    96427.824    21066.898       34.327       10.393      691.616      161.454        0.054      345.050       22.301      855.923
06/18/2013  15:04:00     -620.521     -224.386      -25.687      340.713      254.413      141.358   116085.518    64725.984    19982.019       31.838       10.040      659.845      166.557        0.064      344.803       21.877      855.920
06/18/2013  15:05:00     -471.760     -112.379      -23.992      236.953      253.302      122.686    56146.500    64161.863    15051.740       18.553        6.768      484.961      110.614        0.052      344.861       21.976      855.991
06/18/2013  15:06:00     -588.132     -152.532       -9.966      316.018      272.033      134.229    99867.586    74001.701    18017.341       28.054        9.594      607.589      156.335        0.066      344.628       21.579      855.977
06/18/2013  15:07:00     -779.763     -372.869      -41.225      295.939      302.514      133.725    87579.885    91514.624    17882.372       47.283        9.849      864.327      126.770        0.022      344.464       21.298      855.995
06/18/2013  15:08:00     -481.176     -259.589       -3.783      356.372      301.411      152.326   127001.192    90848.833    23203.323       26.994       12.053      546.733      183.052        0.112      344.558       21.459      855.993
06/18/2013  15:09:00     -663.169     -363.371      -34.375      297.513      223.754      117.249    88513.888    50065.795    13747.403       36.264        7.616      756.195      129.840        0.029      344.520       21.394      856.000
06/18/2013  15:10:00     -337.508     -185.342       -8.397      282.040      242.256      135.650    79546.587    58687.835    18400.982       15.245        7.832      385.050      152.361        0.157      344.624       21.572      855.991
06/18/2013  15:11:00     -415.193     -164.454       17.247      295.241      180.140      111.410    87166.982    32450.307    12412.257       16.585        6.601      446.576      128.542        0.083      344.674       21.657      855.977
06/18/2013  15:12:00     -490.127     -135.940      -33.157      316.523      181.251       98.418   100186.873    32852.027     9686.068       20.124        7.136      508.630      129.786        0.065      344.760       21.804      855.992
06/18/2013  15:13:00     -554.926     -241.566      -24.998      346.115      247.329      115.083   119795.858    61171.768    13244.142       28.053        9.711      605.225      138.056        0.052      344.733       21.758      855.957
06/18/2013  15:14:00     -590.858     -334.013       -4.228      348.627      295.745      151.331   121540.874    87464.816    22901.057       34.625       11.595      678.733      172.159        0.064      344.627       21.576      855.995
06/18/2013  15:15:00     -560.877     -235.694      -16.184      314.159      275.912      140.363    98695.934    76127.174    19701.741       28.242        9.726      608.387      147.571        0.059      344.572       21.483      855.986
06/18/2013  15:16:00     -714.772     -316.000      -15.793      376.515      310.920      152.256   141763.667    96671.027    23181.945       43.626       13.081      781.508      183.610        0.055      344.506       21.370      855.986
06/18/2013  15:17:00     -654.620     -328.147        0.919      357.311      319.684      150.924   127671.348   102197.830    22778.136       39.438       12.632      732.262      177.217        0.059      344.548       21.440      855.984
06/18/2013  15:18:00     -523.398     -242.137        8.655      387.502      294.630      181.341   150157.857    86806.758    32884.726       30.120       13.492      576.694      211.379        0.134      344.515       21.385      855.959
06/18/2013  15:19:00     -466.559     -187.012      -13.289      333.421      264.483      142.021   111169.783    69951.031    20170.102       22.702       10.065      502.644      173.355        0.119      344.552       21.449      856.013
06/18/2013  15:20:00     -484.752      -83.649       -5.913      245.228      229.044       98.337    60136.966    52461.040     9670.093       18.212        6.113      491.916       99.314        0.041      344.658       21.630      856.021
06/18/2013  15:21:00     -579.210     -131.577      -15.778      381.521      242.032      126.113   145558.440    58579.438    15904.413       28.650       11.002      593.967      153.480        0.067      344.525       21.402      856.022
06/18/2013  15:22:00     -659.614     -268.447      -50.313      399.719      264.203      125.368   159775.522    69803.368    15717.011       37.744       12.265      712.148      151.480        0.045      344.373       21.141      855.958
06/18/2013  15:23:00     -756.670     -183.953      -35.898      377.248      250.961      134.113   142316.418    62981.278    17986.387       41.544       11.164      778.709      172.172        0.049      344.374       21.144      855.962
06/18/2013  15:24:00     -583.909     -159.474      -19.336      343.195      239.355      130.819   117782.678    57290.760    17113.662       27.943        9.609      605.295      135.835        0.050      344.445       21.266      855.970
06/18/2013  15:25:00     -417.273     -155.529        1.843      347.427      209.436      128.690   120705.625    43863.461    16561.235       18.968        9.057      445.315      151.382        0.116      344.434       21.247      856.039
06/18/2013  15:26:00     -443.798     -285.002       -4.886      236.008      209.525      118.181    55699.812    43900.843    13966.863       19.586        5.678      527.430      107.978        0.042      344.400       21.188      855.958
06/18/2013  15:27:00     -704.315     -127.607      -29.411      303.378      232.518      130.035    92038.123    54064.450    16909.137       33.808        8.151      715.782      151.369        0.045      344.429       21.238      855.978
06/18/2013  15:28:00     -786.993     -177.805      -61.844      291.233      203.966      128.912    84816.782    41602.008    16618.318       39.889        7.152      806.829      142.249        0.031      344.325       21.060      856.049
06/18/2013  15:29:00     -666.467      -59.995      -45.994      327.891      263.608      133.408   107512.233    69489.382    17797.657       32.231        9.740      669.162      162.065        0.059      344.416       21.216      856.039
06/18/2013  15:30:00     -537.902     -127.311       -2.699      332.264      253.833      133.601   110399.546    64431.047    17849.184       24.908        9.634      552.763      164.793        0.089      344.410       21.205      856.057
06/18/2013  15:31:00     -566.575      -23.161      -24.973      215.035      194.757      104.245    46239.960    37930.351    10867.070       20.858        4.752      567.048      107.276        0.036      344.468       21.305      856.075
06/18/2013  15:32:00     -705.043     -127.530      -47.719      279.836      218.380       97.336    78307.996    47689.687     9474.224       32.552        6.774      716.484      104.248        0.021      344.358       21.118      856.039
06/18/2013  15:33:00     -466.828     -133.339       -2.910      266.185      202.954      109.363    70854.719    41190.411    11960.359       17.984        6.200      485.498      135.116        0.077      344.583       21.501      856.048
06/18/2013  15:34:00     -609.335     -181.384      -38.376      278.467      235.897      110.515    77543.800    55647.599    12213.583       27.550        7.270      635.759      124.897        0.039      344.659       21.630      856.044
06/18/2013  15:35:00     -528.427     -156.386      -18.584      260.981      201.854      111.561    68110.945    40745.002    12445.927       21.265        6.065      551.083      124.449        0.051      344.650       21.615      856.062
06/18/2013  15:36:00     -593.887     -137.655       -3.803      361.465      258.802      134.650   130657.205    66978.435    18130.518       29.367       10.788      609.632      172.604        0.080      344.444       21.262      856.121
06/18/2013  15:37:00     -677.614       35.544      -56.888      192.375      186.105       91.968    37008.053    34634.986     8458.111       27.187        4.005      678.546       86.784        0.016      344.351       21.105      856.134
06/18/2013  15:38:00     -776.636       -3.099      -70.066      230.899      236.505       96.292    53314.145    55934.554     9272.181       36.328        5.926      776.642       90.779        0.014      344.480       21.324      856.069
06/18/2013  15:39:00     -921.091      -78.896      -77.157      283.402      267.441      127.929    80316.678    71524.428    16365.790       51.436        8.410      924.464      136.457        0.022      344.454       21.280      855.887
06/18/2013  15:40:00     -660.319     -119.245      -47.012      343.535      237.496      111.844   118016.172    56404.493    12509.060       31.965        9.346      671.000      146.882        0.048      344.613       21.552      855.968
06/18/2013  15:41:00     -651.780     -124.467      -47.580      315.021      223.112      104.263    99238.300    49779.094    10870.736       30.120        7.994      663.558      127.027        0.037      344.617       21.560      855.946
06/18/2013  15:42:00     -545.594     -169.911      -15.823      326.203      239.871      102.731   106408.390    57538.011    10553.667       25.061        8.725      571.439      137.510        0.058      344.776       21.830      855.951
06/18/2013  15:43:00     -553.202     -133.883       -2.102      272.909      301.627      130.825    74479.316    90979.144    17115.240       25.323        9.129      569.172      133.558        0.055      344.736       21.763      855.975
06/18/2013  15:44:00     -688.453     -210.143      -29.377      284.606      260.317      137.301    81000.401    67764.996    18851.483       34.327        8.381      719.811      134.209        0.035      344.582       21.500      855.955
06/18/2013  15:45:00     -563.274     -191.172       -9.734      260.467      206.431      105.776    67842.979    42613.738    11188.601       23.776        6.082      594.832      123.186        0.043      344.755       21.796      855.969
06/18/2013  15:46:00     -450.009     -304.623       -4.305      332.405      223.042      137.969   110493.194    49747.677    19035.360       23.726        8.964      543.418      168.782        0.096      344.719       21.735      855.959
06/18/2013  15:47:00     -234.302     -162.573       31.142      225.794      178.263      101.650    50982.938    31777.836    10332.714        8.768        4.655      285.180      114.042        0.160      344.971       22.164      855.958
06/18/2013  15:48:00     -309.307      -26.095        2.555      250.837      171.538      111.717    62919.024    29425.116    12480.673       10.057        5.241      310.406      127.623        0.169      344.972       22.167      855.931
06/18/2013  15:49:00     -462.273      -87.275      -19.416      190.438      175.380       99.282    36266.465    30758.275     9857.011       14.927        3.844      470.439       91.809        0.038      344.837       21.937      855.920
06/18/2013  15:50:00     -636.885     -239.132       -9.141      269.838      296.829      120.686    72812.386    88107.354    14565.152       31.915        8.774      680.299      129.188        0.036      344.608       21.544      855.845
06/18/2013  15:51:00     -608.610     -324.440      -13.913      299.687      230.196      113.913    89812.014    52990.122    12976.121       31.579        7.789      689.686      120.805        0.031      344.599       21.527      855.846
06/18/2013  15:52:00     -594.251     -116.518      -35.827      292.405      212.952      110.338    85500.906    45348.472    12174.446       25.548        7.151      605.567      134.377        0.049      344.755       21.795      855.807
06/18/2013  15:53:00     -689.906     -269.986      -25.370      327.779      233.878      155.709   107438.804    54698.829    24245.164       36.791        9.319      740.853      173.046        0.055      344.711       21.719      855.788
06/18/2013  15:54:00     -506.008     -197.899       -2.626      283.191      196.850      120.206    80197.093    38750.078    14449.471       21.428        6.670      543.331      127.718        0.055      344.670       21.649      855.818
06/18/2013  15:55:00     -616.990     -134.542      -10.849      286.984      236.736      122.033    82359.902    56043.938    14892.073       27.606        7.665      631.488      134.250        0.045      344.685       21.677      855.818
06/18/2013  15:56:00     -383.058      -69.647       -7.456      187.127      176.851       84.265    35016.359    31276.106     7100.587       11.250        3.670      389.338       86.927        0.050      345.041       22.284      855.849
06/18/2013  15:57:00     -368.665      -84.507       -9.648      248.815      164.944       95.274    61908.777    27206.389     9077.082       12.065        4.910      378.226      100.626        0.071      344.934       22.105      855.836
06/18/2013  15:58:00     -401.586     -157.577        1.612      245.924      258.651       95.402    60478.741    66900.384     9101.528       16.126        6.824      431.395      108.783        0.064      344.862       21.979      855.798
06/18/2013  15:59:00     -497.983     -248.911      -20.331      354.881      245.166      139.832   125940.581    60106.223    19552.902       25.794       10.280      556.726      153.822        0.076      344.937       22.106      855.808
06/18/2013  16:00:00     -533.345     -134.690       -5.850      296.252      226.073      126.777    87765.006    51109.053    16072.316       22.876        7.747      550.090      147.751        0.072      344.977       22.176      855.866
06/18/2013  16:01:00     -506.774     -239.986        2.529      232.246      253.457      126.801    53938.032    64240.376    16078.548       22.431        6.713      560.725      125.263        0.050      344.946       22.121      855.896
06/18/2013  16:02:00     -475.312     -228.675        6.826      340.011      236.311      133.552   115607.261    55842.971    17836.220       23.374        9.464      527.460      141.712        0.072      344.822       21.912      855.915
06/18/2013  16:03:00     -534.988     -363.510      -11.080      299.254      251.279      143.039    89552.933    63141.267    20460.022       29.578        8.658      646.802      165.625        0.066      344.599       21.529      855.841
06/18/2013  16:04:00     -378.191     -278.223        3.904      228.478      196.971      100.701    52202.017    38797.416    10140.629       16.078        5.057      469.506      110.851        0.056      344.598       21.527      855.832
06/18/2013  16:05:00     -472.861     -168.071       -8.004      265.917      196.967      107.015    70711.973    38795.990    11452.254       18.641        6.048      501.843      129.038        0.066      344.706       21.711      855.819
06/18/2013  16:06:00     -525.299     -150.320      -35.587      243.571      184.324      103.973    59326.751    33975.440    10810.458       20.194        5.206      546.384      105.543        0.037      344.786       21.849      855.776
06/18/2013  16:07:00     -526.686     -195.184      -16.339      269.532      230.923      122.452    72647.534    53325.410    14994.420       22.834        7.048      561.689      144.061        0.066      344.839       21.940      855.758
06/18/2013  16:08:00     -571.509     -212.352      -33.445      229.722      183.441      102.477    52772.057    33650.774    10501.443       23.486        4.846      609.685      102.299        0.028      344.827       21.919      855.759
06/18/2013  16:09:00     -579.256     -208.979       -9.842      281.620      234.782      132.867    79309.990    55122.727    17653.727       26.567        7.604      615.800      151.969        0.061      344.680       21.666      855.763
06/18/2013  16:10:00     -432.397     -166.655        8.375      313.057      192.185      108.145    98004.797    36935.202    11695.385       18.069        7.332      463.402      131.245        0.080      344.803       21.878      855.727
06/18/2013  16:11:00     -376.684       42.742      -13.531      289.001      128.374       82.839    83521.317    16479.957     6862.279       12.536        5.343      379.101      125.022        0.109      345.140       22.456      855.734
06/18/2013  16:12:00     -505.740     -119.869       -6.875      301.618      172.485      113.422    90973.356    29751.100    12864.598       20.186        6.679      519.752      143.564        0.076      344.911       22.062      855.738
06/18/2013  16:13:00     -399.788     -248.403      -18.778      252.649      221.344       98.523    63831.539    48993.044     9706.789       17.218        6.127      470.675      121.230        0.066      344.954       22.137      855.803
06/18/2013  16:14:00     -458.495     -186.300        1.202      259.849      221.767       99.559    67521.425    49180.603     9912.072       18.574        6.331      494.899      126.690        0.066      344.933       22.100      855.806
06/18/2013  16:15:00     -594.607     -205.951      -53.555      338.048      309.676      132.320   114276.776    95899.018    17508.451       31.322       11.384      629.264      160.100        0.065      344.548       21.441      855.765
06/18/2013  16:16:00     -394.518      -44.506       -1.209      209.012      191.494       94.624    43686.020    36670.023     8953.727       12.345        4.465      397.020      101.935        0.066      344.974       22.169      855.793
06/18/2013  16:17:00     -634.017     -145.538      -11.624      239.705      166.331      105.675    57458.498    27666.164    11167.219       25.977        4.815      650.506      110.666        0.029      344.602       21.533      855.739
06/18/2013  16:18:00     -403.004     -310.266       11.779      262.371      210.944      122.653    68838.689    44497.190    15043.667       19.357        6.419      508.604      139.222        0.075      344.824       21.914      855.736
06/18/2013  16:19:00     -525.204     -279.771      -24.119      305.755      172.677      128.189    93486.136    29817.338    16432.347       24.719        6.987      595.072      152.592        0.066      344.479       21.322      855.738
06/18/2013  16:20:00     -281.969      -79.360       -9.330      222.427      192.177      102.638    49473.642    36931.912    10534.573        9.140        4.847      292.924       98.282        0.113      344.853       21.964      855.773
06/18/2013  16:21:00     -366.932     -101.937       -3.597      200.821      161.620       96.384    40328.911    26121.020     9289.907       11.038        3.787      380.828      114.433        0.090      344.823       21.912      855.764
06/18/2013  16:22:00     -581.078     -136.071      -31.761      219.580      207.914       91.925    48215.321    43228.434     8450.148       22.851        4.995      596.797       95.807        0.026      344.562       21.466      855.747
06/18/2013  16:23:00     -334.279      -19.393       -1.765      221.142      164.793       92.449    48903.830    27156.824     8546.816        9.835        4.230      334.841       92.966        0.077      344.849       21.957      855.687
06/18/2013  16:24:00     -566.602      -66.319       -7.230      260.514      210.059       93.802    67867.340    44124.822     8798.759       22.312        6.040      570.470      102.520        0.032      344.705       21.708      855.705
06/18/2013  16:25:00     -333.851      -30.301        9.141      233.768      202.497      101.819    54647.401    41005.089    10367.170       10.922        5.301      335.224       99.869        0.089      344.749       21.786      855.669
06/18/2013  16:26:00     -537.748     -317.410      -18.303      297.390      277.462      118.057    88440.679    76984.972    13937.373       28.477        8.968      624.437      136.230        0.048      344.551       21.447      855.626
06/18/2013  16:27:00     -633.472     -333.101      -28.890      303.509      253.314      124.547    92117.674    64167.741    15511.862       34.240        8.590      715.711      128.268        0.032      344.455       21.281      855.602
06/18/2013  16:28:00     -489.326     -291.252       -8.797      294.426      209.174       99.079    86686.830    43753.951     9816.590       23.227        7.013      569.446      117.370        0.042      344.247       20.928      855.685
06/18/2013  16:29:00     -359.691     -184.421        9.313      205.137      160.650       77.884    42081.073    25808.411     6065.847       11.870        3.698      404.214       92.540        0.052      344.486       21.336      855.679
06/18/2013  16:30:00     -477.407     -182.170      -20.977      242.674      190.197      114.281    58890.883    36174.854    13060.134       18.481        5.406      510.983      119.707        0.055      344.511       21.378      855.643
06/18/2013  16:31:00     -467.238     -192.645       -0.966      285.734      206.392      110.778    81644.059    42597.671    12271.740       19.594        6.826      505.395      137.137        0.074      344.743       21.775      855.621
06/18/2013  16:32:00     -609.997      -17.100      -41.308      314.002      200.408      119.469    98597.086    40163.372    14272.936       26.353        7.652      610.236      139.795        0.052      344.770       21.820      855.612
06/18/2013  16:33:00     -556.043      -97.428       -9.128      296.202      186.715      110.289    87735.826    34862.665    12163.693       22.673        6.738      564.514      126.515        0.050      344.627       21.577      855.597
06/18/2013  16:34:00     -567.771     -250.901      -21.459      285.159      230.326      121.041    81315.717    53050.019    14650.875       26.737        7.451      620.738      136.214        0.048      344.627       21.575      855.575
06/18/2013  16:35:00     -393.925     -236.630        7.867      230.051      173.253      115.349    52923.386    30016.646    13305.488       15.372        4.812      459.533      128.828        0.079      344.699       21.699      855.630
06/18/2013  16:36:00     -524.566      -62.981      -33.987      250.853      160.278       85.384    62927.024    25689.188     7290.405       18.808        4.795      528.333      105.222        0.040      344.668       21.647      855.611
06/18/2013  16:37:00     -312.293     -118.001      -16.959      184.651      163.083       90.105    34096.012    26596.067     8118.971        9.026        3.441      333.844       94.410        0.080      344.783       21.843      855.574
06/18/2013  16:38:00     -424.700     -215.032        8.427      298.782      189.270      112.047    89270.899    35823.212    12554.496       18.214        6.882      476.034      144.999        0.093      344.742       21.773      855.576
06/18/2013  16:39:00     -534.951     -195.974        4.702      269.507      255.526      128.494    72634.218    65293.643    16510.713       23.949        7.722      569.718      141.080        0.061      344.592       21.517      855.544
06/18/2013  16:40:00     -325.427      -96.648       -3.878      204.912      186.361       87.488    41988.858    34730.279     7654.072        9.980        4.219      339.475       94.053        0.077      344.910       22.061      855.601
06/18/2013  16:41:00     -616.795      -83.620      -30.266      280.637      221.341       93.602    78757.198    48992.017     8761.411       26.240        6.826      622.437      102.224        0.027      344.619       21.563      855.550
06/18/2013  16:42:00     -312.211     -151.527      -10.500      218.170      150.698       96.678    47598.259    22709.911     9346.565       10.008        3.983      347.039      104.200        0.090      344.677       21.663      855.497
06/18/2013  16:43:00     -633.855      -54.606      -28.872      281.510      254.591      112.574    79247.663    64816.564    12672.915       28.113        7.837      636.203      108.298        0.029      344.744       21.776      855.482
06/18/2013  16:44:00     -730.495     -174.341      -38.172      335.695      231.360      129.513   112690.914    53527.483    16773.659       37.420        9.150      751.011      139.886        0.035      344.645       21.608      855.393
06/18/2013  16:45:00     -550.864     -414.966      -20.904      290.370      227.344      144.011    84314.605    51685.362    20739.127       31.638        7.837      689.672      159.860        0.054      344.689       21.682      855.500
06/18/2013  16:46:00     -523.029     -201.450      -18.264      360.066      221.479      138.080   129647.267    49053.087    19066.166       25.608        9.888      560.484      185.185        0.109      344.660       21.632      855.559
06/18/2013  16:47:00     -359.304     -188.873        4.006      243.122      235.260      124.102    59108.295    55347.049    15401.358       14.730        6.493      405.921      148.958        0.135      344.656       21.627      855.545
06/18/2013  16:48:00     -399.985     -168.146      -12.365      202.164      143.196       74.915    40870.153    20505.097     5612.233       12.769        3.349      433.890       86.588        0.040      344.782       21.843      855.553
06/18/2013  16:49:00     -336.225     -182.885        8.985      223.531      172.487      107.315    49966.060    29751.768    11516.554       11.889        4.562      382.746      112.050        0.086      344.789       21.854      855.558
06/18/2013  16:50:00     -271.196     -252.188       12.523      214.094      206.082       99.487    45836.130    42469.992     9897.648       11.773        4.910      370.332      110.183        0.089      344.735       21.761      855.529
06/18/2013  16:51:00     -309.310      -56.604       -4.839      168.465      157.760       75.978    28380.392    24888.373     5772.591        7.896        2.952      314.446       82.641        0.069      345.003       22.221      855.520
06/18/2013  16:52:00     -337.615     -190.449        9.447      245.697      152.611      102.805    60366.917    23290.039    10568.775       12.227        4.711      387.627      116.777        0.091      344.899       22.042      855.516
06/18/2013  16:53:00     -405.681      -47.138      -12.717      251.285      189.180       94.650    63144.045    35788.982     8958.559       13.740        5.395      408.411      100.340        0.060      345.066       22.329      855.545
06/18/2013  16:54:00     -562.880     -167.000      -24.295      282.084      282.320      113.783    79571.386    79704.462    12946.586       25.873        8.611      587.131      101.750        0.030      344.715       21.726      855.512
06/18/2013  16:55:00     -606.365      -57.032      -21.876      244.838      235.467      111.619    59945.542    55444.686    12458.821       24.960        6.392      609.041      122.899        0.041      344.619       21.563      855.554
06/18/2013  16:56:00     -679.916     -142.518      -27.714      321.953      176.496      118.835   103653.533    31150.757    14121.647       31.612        7.446      694.692      155.502        0.050      344.564       21.468      855.565
06/18/2013  16:57:00     -618.665     -218.642      -41.071      295.154      175.547      100.921    87115.669    30816.587    10185.145       28.015        6.406      656.163      117.679        0.032      344.401       21.190      855.519
06/18/2013  16:58:00     -493.631      -83.579      -17.071      251.834      232.329      120.003    63420.320    53976.994    14400.816       19.135        6.590      500.656      112.835        0.051      344.726       21.745      855.482
06/18/2013  16:59:00     -768.683      -11.868      -44.397      349.192      253.095      117.032   121934.818    64057.167    13696.513       39.630        9.984      768.775      157.744        0.042      344.545       21.435      855.473
06/18/2013  17:00:00     -604.066     -138.896      -23.267      247.223      188.090       99.543    61119.321    35377.964     9908.829       24.555        5.320      619.829      107.085        0.030      344.773       21.826      855.508
06/18/2013  17:01:00     -614.602     -178.635       -6.055      230.832      179.789      103.422    53283.275    32324.186    10696.139       25.297        4.815      640.036      114.093        0.032      344.568       21.476      855.529
06/18/2013  17:02:00     -550.439      -90.454      -12.553      305.932      220.148      111.056    93594.218    48465.209    12333.402       23.283        7.720      557.822      140.300        0.063      344.667       21.646      855.577
06/18/2013  17:03:00     -401.221      -53.014      -19.547      250.527      219.741      106.870    62764.028    48286.299    11421.094       14.330        6.124      404.708      110.665        0.075      344.592       21.516      855.537
06/18/2013  17:04:00     -558.455       -8.191      -57.558      189.722      155.069       75.857    35994.376    24046.316     5754.298       19.051        3.290      558.515       86.304        0.024      344.516       21.385      855.507
06/18/2013  17:05:00     -539.091      -96.564      -50.026      241.904      157.215       97.249    58517.586    24716.410     9457.315       19.755        4.635      547.671       82.057        0.022      344.693       21.688      855.421
06/18/2013  17:06:00     -671.891     -168.625      -23.588      271.595      242.458      116.798    73763.958    58786.048    13641.807       31.328        7.310      692.728      124.976        0.033      344.493       21.347      855.422
06/18/2013  17:07:00     -585.745     -235.390      -10.391      245.522      176.789       97.401    60281.249    31254.446     9486.886       24.980        5.051      631.273      121.214        0.037      344.524       21.400      855.483
06/18/2013  17:08:00     -411.027     -106.869       -2.335      238.707      216.332      118.085    56981.154    46799.490    13944.160       14.902        5.886      424.694      131.243        0.095      344.666       21.644      855.516
06/18/2013  17:09:00     -532.167     -161.229       19.346      245.267      236.109      122.316    60155.697    55747.687    14961.265       22.019        6.543      556.055      124.050        0.050      344.640       21.598      855.480
06/18/2013  17:10:00     -604.501     -394.419      -12.288      334.607      228.546      145.857   111961.801    52233.047    21274.220       35.327        9.273      721.795      176.371        0.060      344.368       21.134      855.516
06/18/2013  17:11:00     -378.485     -153.395       -6.081      265.694      273.017      118.055    70593.305    74538.545    13936.965       16.291        7.953      408.388      137.057        0.113      344.494       21.349      855.510
06/18/2013  17:12:00     -426.744      -65.999      -24.062      264.473      160.296       98.212    69945.938    25694.704     9645.542       14.614        5.264      431.817      116.763        0.073      344.845       21.952      855.606
06/18/2013  17:13:00     -672.949      -80.811      -56.200      228.115      197.244      100.657    52036.608    38905.339    10131.829       28.179        5.054      677.784       83.278        0.015      344.305       21.026      855.619
06/18/2013  17:14:00     -431.700      -59.496      -32.069      212.295      168.235       92.959    45069.374    28302.897     8641.412       13.646        4.101      435.780      115.748        0.071      344.377       21.147      855.594
06/18/2013  17:15:00     -561.557     -116.919      -32.048      192.578      176.796       81.252    37086.216    31256.944     6601.828       20.248        3.747      573.599       77.894        0.018      344.455       21.283      855.554
06/18/2013  17:16:00     -472.435      -41.657      -18.088      250.983      176.701      103.650    62992.429    31223.118    10743.342       16.509        5.248      474.268      120.921        0.065      344.811       21.890      855.583
06/18/2013  17:17:00     -499.174     -165.856       11.023      347.257      254.559      138.256   120587.227    64800.507    19114.826       24.061       10.225      526.007      172.634        0.108      344.668       21.647      855.611
06/18/2013  17:18:00     -736.892     -119.621      -18.963      301.330      222.257      125.353    90799.554    49398.314    15713.420       35.676        7.796      746.538      148.884        0.040      344.323       21.056      855.603
06/18/2013  17:19:00     -519.080     -102.116       -9.017      254.566      193.216      106.826    64804.055    37332.263    11411.722       19.673        5.677      529.029      123.504        0.055      344.413       21.210      855.629
06/18/2013  17:20:00     -689.432     -321.843      -29.259      277.990      256.107      112.168    77278.555    65590.763    12581.565       36.757        7.773      760.854      111.369        0.021      344.104       20.683      855.641
06/18/2013  17:21:00     -306.419     -169.348       21.406      263.766      214.044      114.219    69572.412    45815.045    13046.060       12.571        6.422      350.102      129.520        0.137      344.391       21.174      855.655
06/18/2013  17:22:00     -257.623     -140.094        2.155      183.213      140.540       75.691    33567.055    19751.423     5729.155        7.251        2.952      293.251       87.095        0.088      344.499       21.357      855.634
06/18/2013  17:23:00     -202.397      -48.370       17.977      162.717       96.305       66.463    26476.704     9274.643     4417.368        4.189        2.008      208.097       47.686        0.053      344.646       21.611      855.592
06/18/2013  17:24:00     -374.070     -113.357        5.956      280.074      227.601      122.159    78441.605    51802.039    14922.943       14.896        7.258      390.869      138.594        0.126      344.687       21.679      855.522
06/18/2013  17:25:00     -909.062      -96.908      -44.832      314.519      292.922      119.790    98922.027    85803.046    14349.570       51.840        9.954      914.213      113.447        0.015      344.227       20.893      855.530
06/18/2013  17:26:00     -648.875     -131.445       -9.062      324.687      218.314      122.828   105421.793    47660.847    15086.712       30.325        8.408      662.055      136.347        0.042      344.115       20.700      855.522
06/18/2013  17:27:00     -424.547     -161.977       15.395      297.210      230.858      120.448    88333.896    53295.370    14507.653       18.139        7.807      454.398      142.712        0.099      344.296       21.011      855.549
06/18/2013  17:28:00     -686.639     -272.000      -15.798      264.027      242.146      118.176    69710.419    58634.685    13965.671       34.398        7.116      738.551      126.875        0.030      344.180       20.812      855.512
06/18/2013  17:29:00     -414.291     -120.253        0.805      337.046      253.483      130.059   113599.997    64253.790    16915.370       19.039        9.738      431.390      167.754        0.151      344.251       20.936      855.551
06/18/2013  17:30:00     -633.530       69.742      -44.251      292.091      226.184      124.587    85316.872    51159.311    15521.982       28.006        7.600      637.358      142.660        0.050      344.076       20.637      855.584
06/18/2013  17:31:00     -686.398      -83.039      -30.648      373.582      216.494      112.230   139563.548    46869.438    12595.514       33.896        9.951      691.403      142.865        0.043      344.121       20.713      855.542
06/18/2013  17:32:00     -659.515     -137.395      -28.857      378.268      226.759      138.516   143087.051    51419.755    19186.603       33.414       10.685      673.674      185.397        0.076      344.064       20.614      855.551
06/18/2013  17:33:00     -936.533     -136.312      -70.602      344.171      231.068      134.618   118453.480    53392.338    18122.056       54.528        9.498      946.401      163.587        0.030      343.973       20.458      855.542
06/18/2013  17:34:00     -635.157     -304.309      -37.314      361.955      251.417      135.364   131011.517    63210.311    18323.411       35.494       10.627      704.292      157.384        0.050      344.123       20.714      855.690
06/18/2013  17:35:00     -374.543     -141.234        2.263      248.982      235.014      100.444    61992.021    55231.354    10089.057       14.375        6.366      400.287      108.277        0.073      344.102       20.680      855.739
06/18/2013  17:36:00     -360.034     -106.752       -7.088      212.028      176.662      106.524    44955.674    31209.332    11347.412       11.427        4.376      375.527      105.892        0.080      344.432       21.244      855.795
06/18/2013  17:37:00     -455.437     -310.136      -31.331      269.063      253.213      115.153    72394.918    64116.996    13260.136       22.715        7.489      551.005      110.717        0.040      344.131       20.727      855.787
06/18/2013  17:38:00     -802.768     -110.907      -33.207      285.482      246.499      109.040    81499.744    60761.818    11889.657       40.596        7.708      810.393      104.997        0.017      343.802       20.168      855.840
06/18/2013  17:39:00     -549.596     -154.093      -16.599      236.883      218.143      120.108    56113.771    47586.570    14425.858       22.208        5.906      570.789      125.157        0.048      343.943       20.407      855.821
06/18/2013  17:40:00     -525.924     -104.314      -10.252      219.237      167.324       94.401    48064.758    27997.419     8911.532       18.626        4.249      536.170      109.210        0.041      343.826       20.208      855.772
06/18/2013  17:41:00     -330.900      -32.522      -17.797      174.705      139.746       76.669    30521.829    19529.076     5878.127        8.339        2.796      332.494       68.829        0.043      344.004       20.513      855.811
06/18/2013  17:42:00     -111.149      -78.283       24.574      152.997      125.859       79.192    23408.211    15840.366     6271.295        3.229        2.276      135.950       82.259        0.366      344.385       21.164      855.793
06/18/2013  17:43:00     -277.931       11.681       -0.223      142.885      130.325       73.090    20416.136    16984.483     5342.158        6.005        2.137      278.177       72.493        0.068      344.234       20.906      855.770
06/18/2013  17:44:00     -370.794       58.413      -15.727      184.777      165.237       87.426    34142.617    27303.313     7643.295       10.510        3.454      375.367       92.809        0.061      344.300       21.018      855.737
06/18/2013  17:45:00     -594.484     -136.509      -15.067      369.924      250.220      137.739   136843.742    62609.901    18971.995       29.531       10.921      609.956      169.165        0.077      344.089       20.656      855.672
06/18/2013  17:46:00     -702.277     -186.228      -27.513      251.189      184.474       91.177    63095.836    34030.638     8313.282       31.701        5.272      726.549      101.536        0.020      343.752       20.082      855.686
06/18/2013  17:47:00     -558.587      -90.888      -50.698      192.621      167.984       90.818    37102.679    28218.560     8247.969       19.820        3.678      565.933       88.786        0.025      343.904       20.342      855.710
06/18/2013  17:48:00     -469.203     -205.683       -8.527      282.344      152.368      100.546    79718.087    23216.025    10109.414       18.776        5.652      512.305      114.332        0.050      343.907       20.347      855.702
06/18/2013  17:49:00     -539.212     -117.127      -11.974      274.280      200.632      102.132    75229.633    40253.202    10430.880       21.524        6.296      551.786      103.485        0.035      343.992       20.491      855.692
06/18/2013  17:50:00     -516.710     -158.484       -2.704      277.307      197.754      111.402    76899.264    39106.601    12410.481       21.024        6.421      540.468      125.469        0.054      343.620       19.857      855.653
06/18/2013  17:51:00     -743.324     -174.837      -38.450      310.554      279.518      134.743    96443.834    78130.364    18155.810       38.861        9.637      763.609      127.774        0.028      343.606       19.833      855.631
06/18/2013  17:52:00     -711.568      -78.342      -33.426      290.932      208.704      114.925    84641.402    43557.500    13207.695       32.747        7.070      715.867      127.972        0.032      343.651       19.908      855.615
06/18/2013  17:53:00     -565.694     -201.890      -10.495      243.245      200.223      105.315    59168.148    40089.219    11091.307       23.559        5.517      600.641      107.927        0.032      343.613       19.843      855.645
06/18/2013  17:54:00     -471.819     -109.394      -18.223      299.953      238.929      108.591    89971.877    57087.212    11791.997       19.685        7.943      484.335      122.710        0.064      343.657       19.920      855.673
06/18/2013  17:55:00     -406.805     -109.844      -20.880      191.015      158.183       84.442    36486.721    25022.005     7130.372       12.330        3.432      421.374       95.004        0.051      343.779       20.128      855.655
06/18/2013  17:56:00     -660.418     -202.812      -32.102      289.363      202.491      108.105    83730.861    41002.609    11686.754       30.734        6.821      690.858      117.842        0.029      343.617       19.851      855.622
06/18/2013  17:57:00     -371.843      -40.264      -25.198      197.019      188.363       83.303    38816.458    35480.535     6939.378       11.086        4.062      374.016       65.713        0.031      343.766       20.105      855.610
06/18/2013  17:58:00     -659.057     -129.950      -61.572      240.560      186.868      103.736    57869.114    34919.512    10761.169       27.927        5.177      671.747       96.463        0.021      343.619       19.855      855.571
06/18/2013  17:59:00     -541.550     -179.456      -22.861      268.263      193.485      108.558    71965.157    37436.543    11784.926       22.357        6.059      570.510      119.261        0.044      343.653       19.913      855.513
06/18/2013  18:00:00     -388.964     -124.099      -12.613      217.586      203.710       97.805    47343.574    41497.583     9565.855       13.261        4.920      408.281      106.008        0.067      343.823       20.201      855.505
06/18/2013  18:01:00     -622.290      -79.121      -16.215      230.599      226.073      108.505    53176.000    51109.091    11773.396       25.489        5.803      627.299      110.578        0.031      343.659       19.923      855.509
06/18/2013  18:02:00     -486.294     -140.157      -15.649      259.728      159.344       97.567    67458.465    25390.558     9519.298       17.935        5.118      506.089      110.946        0.048      343.514       19.677      855.507
06/18/2013  18:03:00     -427.376     -138.148       -2.039      252.049      226.105      105.424    63528.632    51123.374    11114.198       16.373        6.288      449.149      123.747        0.076      343.652       19.910      855.489
06/18/2013  18:04:00     -343.289      -85.702       -7.479      192.504      137.076       73.556    37057.800    18789.876     5410.555        9.324        3.063      353.825       84.254        0.057      343.844       20.237      855.523
06/18/2013  18:05:00     -313.690     -292.382        4.345      276.729      210.135      135.389    76578.841    44156.543    18330.199       16.146        6.953      428.822      147.232        0.118      343.777       20.125      855.571
06/18/2013  18:06:00     -287.455     -223.308       10.872      231.712      179.785      123.912    53690.254    32322.752    15354.259       11.697        5.068      364.001      124.422        0.117      343.473       19.607      855.532
06/18/2013  18:07:00     -531.359     -113.061      -24.058      187.325      204.006       84.014    35090.553    41618.290     7058.332       18.972        4.188      543.254       81.975        0.023      343.481       19.620      855.569
06/18/2013  18:08:00     -653.547     -223.591      -24.198      280.403      178.543      115.815    78625.832    31877.529    13413.069       30.078        6.196      690.736      131.816        0.036      343.472       19.604      855.488
06/18/2013  18:09:00     -785.173      -72.245      -63.868      336.175      217.981      126.664   113013.797    47515.673    16043.734       40.115        8.829      788.490      154.601        0.038      343.425       19.523      855.475
06/18/2013  18:10:00     -613.314     -121.212      -28.220      270.964      206.157      114.476    73421.666    42500.603    13104.671       26.031        6.451      625.177      133.823        0.046      343.528       19.699      855.481
06/18/2013  18:11:00     -398.967     -260.970      -28.092      260.261      197.261      113.119    67736.039    38911.942    12795.915       17.373        5.972      476.739      113.577        0.057      343.488       19.631      855.493
06/18/2013  18:12:00     -689.787      -96.745      -36.063      260.149      169.643      107.982    67677.510    28778.586    11660.214       29.727        5.406      696.538      111.209        0.025      343.485       19.627      855.536
06/18/2013  18:13:00     -612.072     -104.186      -41.073      257.656      277.288      103.599    66386.727    76888.535    10732.695       27.056        7.700      620.876      110.515        0.032      343.346       19.389      855.544
06/18/2013  18:14:00     -490.427      -84.573      -20.688      217.318      149.064      100.341    47226.970    22220.092    10068.279       16.379        3.976      497.666      102.877        0.043      343.621       19.859      855.554
06/18/2013  18:15:00     -521.486      -73.278      -29.929      151.352      169.307       83.688    22907.531    28664.804     7003.689       16.838        2.929      526.609       81.499        0.024      343.464       19.590      855.579
06/18/2013  18:16:00     -584.304       -2.404      -46.552      208.796      193.601       92.900    43595.940    37481.480     8630.378       21.663        4.485      584.309       97.877        0.028      343.445       19.558      855.546
06/18/2013  18:17:00     -641.149     -160.094      -24.270      258.780      198.636       94.963    66967.292    39456.290     9017.913       27.634        5.772      660.834       89.736        0.018      343.444       19.556      855.541
06/18/2013  18:18:00     -802.289      -52.948      -26.276      290.853      258.463      116.645    84595.742    66803.277    13606.145       40.605        8.250      804.034      123.060        0.023      343.325       19.353      855.493
06/18/2013  18:19:00     -692.017     -148.441      -25.995      273.426      184.933      103.778    74761.536    34200.256    10769.925       31.064        5.987      707.759      124.681        0.031      343.320       19.347      855.498
06/18/2013  18:20:00     -638.799     -130.392      -37.329      230.956      201.498       99.278    53340.875    40601.555     9856.176       26.511        5.190      651.971      108.003        0.027      343.317       19.340      855.491
06/18/2013  18:21:00     -680.219     -101.760      -20.590      260.988      213.956       99.948    68114.947    45777.311     9989.637       29.865        6.194      687.788      110.946        0.026      343.327       19.357      855.472
06/18/2013  18:22:00     -391.002     -124.608      -12.332      245.443      185.285      102.889    60242.484    34330.691    10586.189       13.684        5.258      410.378      131.946        0.103      343.460       19.583      855.480
06/18/2013  18:23:00     -348.585     -158.537       -4.373      199.125      150.293       86.828    39650.803    22588.085     7539.033       10.821        3.489      382.943       78.590        0.042      343.599       19.820      855.433
06/18/2013  18:24:00     -726.438     -156.577      -24.503      302.752      161.171       95.670    91658.701    25976.129     9152.677       33.978        6.339      743.121      112.052        0.023      343.378       19.444      855.385
06/18/2013  18:25:00     -658.828     -136.631      -28.139      227.523      183.400      107.304    51766.641    33635.423    11514.079       27.520        4.846      672.846      116.526        0.030      343.302       19.313      855.382
06/18/2013  18:26:00     -544.341     -217.219       -6.181      257.485      189.602       93.676    66298.296    35949.015     8775.174       22.725        5.551      586.081      113.578        0.038      343.399       19.480      855.393
06/18/2013  18:27:00     -354.114     -172.044        7.995      228.911      190.196      110.019    52400.153    36174.492    12104.147       12.785        5.034      393.695      127.688        0.105      343.472       19.605      855.429
06/18/2013  18:28:00     -359.631     -233.264        3.021      261.516      156.113      105.107    68390.414    24371.263    11047.380       14.376        5.190      428.657      106.053        0.061      343.357       19.408      855.418
06/18/2013  18:29:00     -481.740     -249.884      -37.215      257.709      198.767       90.880    66413.788    39508.253     8259.256       20.502        5.709      542.692      107.366        0.039      343.320       19.345      855.380
06/18/2013  18:30:00     -384.892     -226.566      -27.841      254.394      174.502       86.575    64716.209    30450.807     7495.225       15.144        5.133      446.625       81.290        0.033      343.316       19.337      855.350
06/18/2013  18:31:00     -449.775      -58.624      -25.138      252.447      144.366       87.232    63729.670    20841.442     7609.506       14.925        4.609      453.579      102.226        0.051      343.277       19.272      855.303
06/18/2013  18:32:00     -472.009       -4.082      -35.409      188.697      178.397       84.743    35606.544    31825.321     7181.378       14.932        3.731      472.027       82.570        0.031      343.297       19.305      855.218
06/18/2013  18:33:00     -383.329      -92.002      -10.094      171.689      192.345       88.556    29477.247    36996.617     7842.237       11.490        3.716      394.215       93.893        0.057      343.469       19.599      855.236
06/18/2013  18:34:00     -375.132     -177.962      -16.669      213.924      174.311       98.974    45763.479    30384.174     9795.902       12.929        4.297      415.205      111.812        0.073      343.447       19.562      855.326
06/18/2013  18:35:00     -316.686     -182.970      -28.171      205.430      151.928       83.584    42201.395    23082.098     6986.300       10.340        3.613      365.743       98.832        0.073      343.409       19.496      855.412
06/18/2013  18:36:00     -236.758      -97.518        3.416      169.198      124.580       65.876    28628.065    15520.268     4339.652        5.702        2.424      256.055       68.805        0.072      343.372       19.433      855.416
06/18/2013  18:37:00     -350.618     -269.180       10.141      202.277      144.473       83.036    40915.851    20872.509     6895.015       13.207        3.434      442.030       91.076        0.042      343.254       19.232      855.396
06/18/2013  18:38:00     -196.364     -163.762       -0.949      130.663      116.924       65.204    17072.693    13671.216     4251.601        5.018        1.750      255.689       78.708        0.095      343.381       19.450      855.398
06/18/2013  18:39:00     -110.525      -95.315        8.525       92.438       72.200       42.502     8544.829     5212.909     1806.378        1.847        0.778      145.947       36.756        0.063      343.478       19.616      855.375
06/18/2013  18:40:00     -428.609     -199.959       -4.109      241.059      181.452      110.443    58109.436    32924.766    12197.575       16.345        5.162      472.959      128.730        0.074      343.255       19.236      855.369
06/18/2013  18:41:00     -547.473     -120.248       -4.595      305.021      186.971      110.143    93037.538    34958.044    12131.471       22.714        7.006      560.524      127.248        0.052      343.242       19.211      855.342
06/18/2013  18:42:00     -477.143     -242.417      -29.844      313.081      209.740       86.653    98019.811    43990.719     7508.693       21.839        7.476      535.193      116.711        0.048      343.186       19.117      855.356
06/18/2013  18:43:00     -519.949     -304.253      -22.466      213.994      223.612      102.679    45793.445    50002.398    10543.031       23.486        5.317      602.426       95.005        0.025      343.128       19.017      855.373
06/18/2013  18:44:00     -179.338      -86.308        7.473      137.594      142.560       60.458    18932.214    20323.351     3655.112        4.128        2.146      199.026       52.427        0.069      343.244       19.216      855.369
06/18/2013  18:45:00     -318.706     -117.847      -19.480      116.549      133.622       73.581    13583.553    17854.851     5414.175        7.634        1.843      339.796       52.550        0.024      343.167       19.083      855.252
06/18/2013  18:46:00     -445.925      -21.845       -8.996      269.337      230.333      118.370    72542.491    53053.100    14011.535       16.948        6.980      446.460      111.617        0.063      343.157       19.066      855.176
06/18/2013  18:47:00     -326.297     -130.073        1.425      236.699      182.033       96.527    56026.496    33136.180     9317.515       11.092        4.924      351.267      110.217        0.098      343.302       19.314      855.279
06/18/2013  18:48:00     -344.231     -202.725        0.542      196.864      173.881       88.276    38755.481    30234.706     7792.613       11.817        3.839      399.491       96.167        0.058      343.217       19.170      855.318
06/18/2013  18:49:00     -339.618      -97.806        7.638      215.814      191.489       93.456    46575.796    36668.009     8734.050       10.845        4.599      353.421      107.548        0.093      343.206       19.150      855.308
06/18/2013  18:50:00     -303.312     -114.265       -3.393      198.027      129.100       84.501    39214.743    16666.899     7140.370        8.403        3.151      324.122       91.330        0.079      343.295       19.304      855.287
06/18/2013  18:51:00     -460.364     -122.583      -22.757      193.070      133.583       79.419    37276.091    17844.325     6307.407       14.444        3.071      476.405       73.341        0.024      343.339       19.378      855.248
06/18/2013  18:52:00     -248.386     -237.047       -8.162      137.049      104.935       65.174    18782.534    11011.450     4247.659        7.599        1.702      343.347       53.436        0.024      343.144       19.046      855.353
06/18/2013  18:53:00     -119.385     -166.455        5.891       97.728       93.673       46.397     9550.668     8774.561     2152.662        3.123        1.024      204.841       35.748        0.030      343.231       19.194      855.328
06/18/2013  18:54:00     -211.064     -207.420        7.076      166.242      166.975       81.269    27636.425    27880.512     6604.595        7.486        3.106      295.924       87.958        0.088      343.349       19.394      855.306
06/18/2013  18:55:00     -395.839     -273.249      -10.740      207.919      143.273       91.762    43230.387    20527.129     8420.328       15.181        3.609      480.993      114.735        0.057      343.305       19.320      855.254
06/18/2013  18:56:00     -261.563     -234.424       16.953      166.740      132.403       88.281    27802.299    17530.501     7793.530        8.838        2.656      351.240       94.841        0.073      343.406       19.492      855.269
06/18/2013  18:57:00     -330.386     -239.250       -1.282      177.793      197.586       90.955    31610.349    39040.414     8272.837       12.264        3.946      407.916      102.050        0.063      343.418       19.513      855.295
06/18/2013  18:58:00     -336.008     -227.149       -5.029      192.605      160.012       79.637    37096.626    25603.713     6342.078       11.677        3.452      405.583       96.222        0.056      343.345       19.388      855.334
06/18/2013  18:59:00     -337.536     -212.630       -5.354      185.515      125.823       74.041    34415.903    15831.324     5482.065       10.744        2.786      398.926       85.129        0.046      343.346       19.389      855.324
06/18/2013  19:00:00     -440.092     -305.142      -19.362      223.626      169.487       96.950    50008.465    28725.851     9399.395       18.763        4.407      535.530      117.859        0.048      343.210       19.157      855.372
06/18/2013  19:01:00     -453.703     -231.324      -10.587      225.546      170.336       84.860    50870.896    29014.461     7201.213       17.326        4.354      509.272      100.127        0.039      343.062       18.904      855.376
06/18/2013  19:02:00     -441.734     -126.779        1.347      251.702      225.347       96.468    63353.884    50781.080     9306.060       16.730        6.172      459.567      100.170        0.048      343.022       18.838      855.330
06/18/2013  19:03:00     -344.640      -83.103        7.645      240.440      148.717       91.600    57811.295    22116.838     8390.617       10.701        4.416      354.518      116.491        0.108      343.129       19.020      855.332
06/18/2013  19:04:00     -410.381      -66.664        2.729      203.600      137.505       81.103    41452.936    18907.682     6577.669       11.989        3.347      415.760       92.604        0.050      343.077       18.930      855.346
06/18/2013  19:05:00     -266.106     -229.687       18.181      200.259      171.802      106.437    40103.652    29515.907    11328.781       10.241        4.047      351.523      106.065        0.091      343.139       19.037      855.363
06/18/2013  19:06:00     -406.814     -278.260       -0.367      270.319      190.461      123.531    73072.271    36275.392    15260.029       18.374        6.230      492.875      139.734        0.080      343.042       18.872      855.387
06/18/2013  19:07:00     -501.709     -283.492      -20.970      267.881      202.019      108.532    71759.963    40811.568    11779.202       22.841        6.218      576.264      127.521        0.049      342.916       18.658      855.392
06/18/2013  19:08:00     -337.400     -213.544      -14.401      242.990      135.342       79.798    59043.947    18317.527     6367.728       12.167        4.186      399.299      102.301        0.066      342.964       18.739      855.400
06/18/2013  19:09:00     -379.674     -222.917       -4.074      242.359      178.399      103.341    58737.887    31826.228    10679.303       14.753        5.062      440.278      122.967        0.078      342.962       18.735      855.394
06/18/2013  19:10:00     -624.756     -143.947      -33.369      253.540      174.068       99.582    64282.333    30299.701     9916.576       25.831        5.225      641.125       98.533        0.024      342.815       18.486      855.439
06/18/2013  19:11:00     -278.397     -119.910        2.456      195.932      141.300       74.150    38389.328    19965.659     5498.278        7.786        3.193      303.123       86.148        0.081      342.866       18.572      855.484
06/18/2013  19:12:00     -224.930     -131.877       -6.869      157.872      108.475       63.434    24923.689    11766.844     4023.851        5.437        2.036      260.739       75.392        0.084      342.908       18.644      855.461
06/18/2013  19:13:00     -296.540     -153.859       -9.094      141.983      125.121       64.531    20159.043    15655.155     4164.244        7.583        1.999      334.079       77.190        0.053      342.862       18.565      855.435
06/18/2013  19:14:00     -229.592      -96.273      -10.720      111.800      111.139       52.783    12499.318    12351.901     2786.087        4.486        1.382      248.960       47.270        0.036      342.846       18.536      855.441
06/18/2013  19:15:00     -228.888      -57.616      -15.841      181.658      101.210       44.492    32999.542    10243.517     1979.533        5.058        2.261      236.028       54.272        0.053      342.934       18.690      855.422
06/18/2013  19:16:00     -362.810       -1.114        8.230      360.404      191.737      112.014   129891.148    36763.169    12547.184       15.541        8.960      362.812      135.990        0.140      342.880       18.596      855.367
06/18/2013  19:17:00     -342.080     -193.813       -1.980      222.368      217.098       92.864    49447.721    47131.601     8623.814       12.987        5.260      393.170      112.968        0.083      342.951       18.717      855.455
06/18/2013  19:18:00     -484.194     -255.684      -20.648      236.005      219.933      107.185    55698.143    48370.590    11488.699       20.788        5.778      547.556      121.105        0.049      342.752       18.378      855.434
06/18/2013  19:19:00     -345.832     -203.665        0.884      207.096      156.672       85.713    42888.863    24546.115     7346.690       11.792        3.739      401.347       95.124        0.056      342.805       18.468      855.456
06/18/2013  19:20:00     -451.841     -205.151      -28.871      180.808      136.446       87.142    32691.466    18617.561     7593.810       15.298        2.945      496.233       83.072        0.028      342.778       18.422      855.456
06/18/2013  19:21:00     -426.004     -202.674      -18.996      176.458      136.112       69.912    31137.550    18526.559     4887.643       13.872        2.728      471.759       64.179        0.019      342.791       18.445      855.459
06/18/2013  19:22:00     -275.978     -185.385        6.357      224.434      170.111       83.148    50370.582    28937.697     6913.572        9.838        4.311      332.463      104.051        0.098      342.918       18.661      855.469
06/18/2013  19:23:00     -318.983     -244.363       15.410      211.063      176.233       94.564    44547.748    31058.125     8942.435       12.311        4.227      401.825      106.472        0.070      342.843       18.533      855.437
06/18/2013  19:24:00     -393.863     -264.922      -10.447      232.633      156.674       96.413    54118.005    24546.882     9295.375       15.667        4.398      474.670      113.091        0.057      342.780       18.426      855.364
06/18/2013  19:25:00     -372.102     -266.350       -4.476      243.578      180.824      108.458    59330.403    32697.171    11763.208       15.659        5.190      457.605      121.813        0.071      342.726       18.333      855.336
06/18/2013  19:26:00     -591.202      -66.586      -22.022      272.542      231.799      120.040    74278.980    53730.873    14409.519       24.840        7.121      594.940      137.451        0.053      342.673       18.244      855.283
06/18/2013  19:27:00     -416.912     -184.096       11.026      263.077      221.785       99.320    69209.408    49188.725     9864.556       16.802        6.413      455.749      123.279        0.073      342.745       18.367      855.316
06/18/2013  19:28:00     -548.230     -341.122      -13.632      281.613      224.356      127.027    79305.680    50335.438    16135.742       28.141        7.289      645.694      153.629        0.057      342.713       18.313      855.379
06/18/2013  19:29:00     -503.234     -329.584      -14.008      261.145      213.428      116.620    68196.856    45551.424    13600.270       24.468        6.367      601.556      128.098        0.045      342.644       18.196      855.369
06/18/2013  19:30:00     -431.074     -363.230       -7.411      222.078      208.719      113.011    49318.749    43563.560    12771.571       21.171        5.283      563.703      128.196        0.052      342.641       18.188      855.380
06/18/2013  19:31:00     -397.928     -348.397       -6.785      257.198      218.325      124.760    66150.795    47665.984    15564.991       20.455        6.469      528.892      140.236        0.070      342.561       18.055      855.391
06/18/2013  19:32:00     -534.085     -284.533       -0.172      306.203      216.316      124.172    93760.066    46792.514    15418.806       26.106        7.799      605.150      138.075        0.052      342.514       17.974      855.368
06/18/2013  19:33:00     -434.861     -253.585      -19.651      231.000      189.364       91.384    53361.053    35858.789     8351.087       17.566        4.879      503.398      105.126        0.044      342.536       18.011      855.377
06/18/2013  19:34:00     -481.907     -297.608      -23.199      212.809      183.867      102.535    45287.706    33806.913    10513.407       20.546        4.480      566.396      106.205        0.035      342.512       17.971      855.333
06/18/2013  19:35:00     -464.537     -244.336       -6.395      200.764      135.945       79.561    40306.237    18480.983     6329.908       17.031        3.256      524.876       87.709        0.028      342.567       18.064      855.364
06/18/2013  19:36:00     -283.559     -218.707       22.855      238.383      212.302       96.411    56826.578    45072.319     9295.070       11.995        5.560      358.104      113.359        0.100      342.618       18.151      855.381
06/18/2013  19:37:00     -358.511     -320.374       -4.405      220.065      182.087       96.445    48428.700    33155.712     9301.675       16.102        4.544      480.801      113.411        0.056      342.578       18.084      855.384
06/18/2013  19:38:00     -559.800     -304.186      -11.978      257.148      192.996      115.638    66124.856    37247.605    13372.043       26.137        5.837      637.107      118.210        0.034      342.510       17.967      855.295
06/18/2013  19:39:00     -405.180     -226.512       10.017      318.468      241.913      125.551   101421.937    58521.868    15763.128       19.561        8.785      464.197      158.936        0.117      342.567       18.066      855.289
06/18/2013  19:40:00     -482.941     -409.206      -19.642      251.704      203.145      112.646    63354.961    41267.869    12689.083       25.917        5.866      632.994      138.389        0.048      342.546       18.027      855.330
06/18/2013  19:41:00     -451.784     -164.343      -11.999      269.503      197.308      112.346    72632.100    38930.600    12621.622       17.770        6.209      480.747      138.268        0.083      342.525       17.992      855.359
06/18/2013  19:42:00     -359.395      -91.984        8.259      191.626      178.545       83.742    36720.348    31878.473     7012.775       10.664        3.781      370.980       88.795        0.057      342.557       18.047      855.385
06/18/2013  19:43:00     -394.499     -156.854       -5.724      220.164      143.812      103.707    48472.392    20682.010    10755.150       13.007        3.995      424.538      107.318        0.064      342.519       17.982      855.412
06/18/2013  19:44:00     -440.515     -157.135        3.724      192.265      162.484       81.998    36965.925    26401.112     6723.703       14.441        3.505      467.702       79.955        0.029      342.463       17.887      855.428
06/18/2013  19:45:00     -417.282     -270.410      -15.287      203.148      178.642      102.736    41269.311    31912.968    10554.740       16.559        4.187      497.238      108.664        0.048      342.464       17.889      855.402
06/18/2013  19:46:00     -380.803     -161.313       -9.993      204.269      142.761       93.027    41725.727    20380.691     8653.950       12.093        3.538      413.561       97.209        0.055      342.460       17.883      855.417
06/18/2013  19:47:00     -268.587      -99.189       -8.311      117.280      127.071       62.428    13754.487    16147.020     3897.218        5.792        1.690      286.317       60.380        0.044      342.546       18.030      855.430
06/18/2013  19:48:00     -267.568     -114.071       12.771      167.278      141.195       81.654    27981.942    19936.043     6667.421        6.967        2.729      290.869       99.310        0.117      342.504       17.956      855.433
06/18/2013  19:49:00     -305.831     -179.757       -2.368      171.267      119.911       74.812    29332.381    14378.695     5596.788        8.757        2.465      354.747       85.406        0.058      342.456       17.874      855.453
06/18/2013  19:50:00     -248.383     -118.602        2.814      193.574      141.582       83.245    37470.727    20045.344     6929.666        7.009        3.222      275.246       98.772        0.129      342.411       17.798      855.467
06/18/2013  19:51:00      -97.891      -77.808       12.703      136.771       84.284       51.602    18706.382     7103.767     2662.756        2.213        1.424      125.047       58.039        0.215      342.432       17.836      855.417
06/18/2013  19:52:00     -241.618     -187.771       16.585      223.782      177.445       76.108    50078.237    31486.672     5792.376        9.062        4.368      306.002       96.359        0.099      342.350       17.694      855.389
06/18/2013  19:53:00     -241.748     -221.603        1.868      182.348      142.916       93.939    33250.673    20425.017     8824.464        8.501        3.125      327.948       98.174        0.090      342.339       17.678      855.388
06/18/2013  19:54:00     -309.218     -216.401       -3.408      153.822      114.442       77.289    23661.301    13097.011     5973.653        9.259        2.137      377.419       86.407        0.052      342.308       17.625      855.393
06/18/2013  19:55:00     -285.049     -100.280      -17.342      201.506      138.875       71.686    40604.602    19286.287     5138.816        7.831        3.251      302.174       93.740        0.096      342.272       17.563      855.381
06/18/2013  19:56:00     -490.976     -115.043      -12.954      230.857      185.191       99.561    53294.987    34295.654     9912.492       17.596        4.875      504.274      111.834        0.049      342.213       17.462      855.365
06/18/2013  19:57:00     -109.736     -196.087       20.526      106.412      102.354       65.384    11323.612    10476.406     4275.088        3.849        1.304      224.704       56.614        0.063      342.213       17.463      855.389
06/18/2013  19:58:00     -143.039     -135.359       12.583      119.339       76.395       61.848    14241.803     5836.177     3825.212        3.142        1.195      196.932       58.501        0.088      342.242       17.511      855.346
06/18/2013  19:59:00     -123.191      -69.215       21.594      111.037      108.544       76.405    12329.162    11781.813     5837.732        2.518        1.497      141.304       73.734        0.272      342.122       17.310      855.283
06/18/2013  20:00:00     -185.629      -23.358       10.581      152.053       77.266       59.736    23120.136     5970.010     3568.431        3.388        1.633      187.093       57.026        0.093      342.127       17.318      855.273
06/18/2013  20:01:00     -125.806     -109.340        1.298      114.802       94.269       54.856    13179.552     8886.696     3009.146        2.642        1.254      166.680       52.443        0.099      342.137       17.334      855.242
06/18/2013  20:02:00     -168.798     -113.065        5.140      105.789       95.275       59.127    11191.296     9077.410     3496.011        3.253        1.188      203.166       53.592        0.070      342.150       17.355      855.203
06/18/2013  20:03:00     -188.492     -122.718        5.385      131.321      118.476       53.946    17245.109    14036.632     2910.196        4.240        1.710      224.920       60.724        0.073      342.133       17.327      855.195
06/18/2013  20:04:00     -345.818     -180.047      -11.315      150.689      132.544       70.837    22707.196    17567.931     5017.859        9.870        2.265      389.880       74.215        0.036      342.193       17.428      855.252
06/18/2013  20:05:00     -286.078     -123.601        0.218      170.066      149.066       80.481    28922.438    22220.690     6477.204        7.736        2.881      311.637       93.974        0.091      342.213       17.462      855.282
06/18/2013  20:06:00     -252.979     -113.511       -0.557      124.875      121.431       65.960    15593.707    14745.398     4350.718        5.578        1.734      277.278       67.384        0.059      342.221       17.478      855.324
06/18/2013  20:07:00     -241.462     -218.029       -4.872      126.499      103.482       76.332    16002.080    10708.618     5826.576        6.919        1.627      325.332       68.852        0.045      342.261       17.544      855.348
06/18/2013  20:08:00     -183.914     -254.508       -1.653       92.991      142.785       65.198     8647.379    20387.581     4250.742        6.594        1.664      314.004       64.642        0.042      342.312       17.631      855.327
06/18/2013  20:09:00     -247.164     -184.014       -4.617      128.326       96.289       53.147    16467.501     9271.547     2824.640        6.176        1.428      308.142       57.037        0.034      342.295       17.602      855.318
06/18/2013  20:10:00     -301.089     -252.069      -16.438      158.534      130.571       71.373    25132.948    17048.678     5094.039       10.086        2.364      392.675       88.456        0.051      342.250       17.525      855.299
06/18/2013  20:11:00     -265.725     -178.407       -4.350      127.248      113.720       51.651    16191.984    12932.197     2667.812        6.712        1.590      320.060       66.238        0.043      342.257       17.537      855.293
06/18/2013  20:12:00     -332.715     -140.930       -5.848      155.672      115.327       63.424    24233.843    13300.294     4022.640        8.607        2.078      361.331       67.966        0.035      342.231       17.493      855.295
06/18/2013  20:13:00     -306.813      -11.780      -11.573      156.526      108.693       67.846    24500.408    11814.234     4603.015        6.765        2.046      307.039       63.169        0.042      342.176       17.400      855.273
06/18/2013  20:14:00     -308.508      -49.146       -2.814      175.102      100.386       64.712    30660.822    10077.335     4187.703        7.125        2.246      312.398       70.025        0.050      342.192       17.427      855.253
06/18/2013  20:15:00     -556.739     -187.187      -38.476      166.867      163.556       80.770    27844.630    26750.658     6523.815       20.379        3.056      587.364       81.458        0.019      342.171       17.390      855.273
06/18/2013  20:16:00     -255.755     -153.968       -3.276      236.274      128.486       70.554    55825.422    16508.555     4977.928        8.320        3.866      298.524       75.289        0.064      342.113       17.291      855.389
06/18/2013  20:17:00     -167.177     -209.153        0.455      148.431      119.262       72.206    22031.810    14223.519     5213.719        5.657        2.073      267.755       84.731        0.100      342.202       17.444      855.428
06/18/2013  20:18:00     -372.184     -223.820      -16.469      153.397      131.621       74.892    23530.556    17324.119     5608.795       11.767        2.323      434.300       71.962        0.027      342.117       17.299      855.401
06/18/2013  20:19:00     -278.318     -198.246        8.692      165.962      135.153       78.465    27543.476    18266.454     6156.829        8.439        2.598      341.705       88.767        0.067      342.082       17.240      855.398
06/18/2013  20:20:00     -259.264      -80.841      -15.142      121.807      118.325       62.784    14837.016    14000.839     3941.883        5.337        1.639      271.575       51.424        0.036      342.024       17.141      855.389
06/18/2013  20:21:00     -414.065     -259.217      -36.799      142.577       83.367       59.088    20328.182     6950.043     3491.337       13.538        1.538      488.511       71.569        0.021      341.924       16.971      855.413
06/18/2013  20:22:00     -248.190     -128.816       -5.980      121.728       95.851       49.846    14817.698     9187.327     2484.656        5.235        1.324      279.628       55.120        0.039      341.865       16.872      855.391
06/18/2013  20:23:00     -270.508     -215.080      -14.928      154.651      113.481       63.989    23916.881    12877.874     4094.621        8.026        2.044      345.592       67.688        0.038      341.842       16.831      855.396
06/18/2013  20:24:00     -365.969     -189.384        0.159      171.291      125.387       79.905    29340.492    15721.880     6384.732       11.061        2.572      412.068       83.519        0.041      341.708       16.604      855.380
06/18/2013  20:25:00     -349.324     -190.591      -11.431      152.336      137.608       77.931    23206.119    18935.863     6073.248       10.334        2.411      397.935       63.764        0.026      341.700       16.593      855.376
06/18/2013  20:26:00     -204.401     -157.451        1.163      148.435      106.660       64.048    22033.086    11376.263     4102.163        5.203        1.876      258.013       78.914        0.094      341.728       16.639      855.359
06/18/2013  20:27:00     -424.689     -244.294      -20.054      168.107      140.763       95.816    28259.842    19814.208     9180.702       14.884        2.863      489.939       82.731        0.029      341.617       16.451      855.336
06/18/2013  20:28:00     -360.077      -78.146      -10.667      177.797      167.933       78.557    31611.910    28201.566     6171.222       10.092        3.299      368.460       82.986        0.051      341.621       16.457      855.311
06/18/2013  20:29:00     -400.741     -224.659      -35.448      186.662      125.184       74.103    34842.558    15671.053     5491.214       13.415        2.800      459.418       69.241        0.023      341.691       16.576      855.309
06/18/2013  20:30:00     -300.474     -173.810        9.590      180.988      116.712       77.672    32756.825    13621.686     6032.916        8.649        2.621      347.123       99.088        0.081      341.696       16.585      855.350
06/18/2013  20:31:00     -354.929      -86.716       -1.693      162.613      153.797       75.049    26443.089    23653.570     5632.416        9.460        2.786      365.369       74.645        0.042      341.761       16.694      855.383
06/18/2013  20:32:00     -346.448      -89.749        1.954      187.433      132.420       80.535    35131.166    17535.138     6485.900        9.361        2.958      357.885       69.559        0.038      341.880       16.896      855.426
06/18/2013  20:33:00     -251.194     -214.376        3.361      125.234      115.011       72.024    15683.600    13227.445     5187.501        7.158        1.705      330.235       79.822        0.058      341.904       16.937      855.486
06/18/2013  20:34:00     -257.471     -176.600       -2.043      104.017      115.693       63.639    10819.616    13384.788     4049.888        6.286        1.413      312.216       54.728        0.031      341.915       16.954      855.492
06/18/2013  20:35:00     -242.260     -187.055       -9.121      182.243      143.622       98.478    33212.690    20627.144     9697.852        7.864        3.177      306.071       99.201        0.105      341.784       16.735      855.485
06/18/2013  20:36:00     -244.907     -114.796      -14.278      210.876      137.121       87.171    44468.660    18802.267     7598.789        7.210        3.543      270.477       86.232        0.102      341.614       16.446      855.476
06/18/2013  20:37:00     -415.812     -173.500       -6.241      207.795      173.900       79.343    43178.573    30241.330     6295.265       14.136        3.986      450.557       75.340        0.028      341.541       16.320      855.464
06/18/2013  20:38:00     -459.335     -216.425       -2.158      261.992      195.819       93.478    68639.548    38344.921     8738.089       18.675        5.786      507.769      115.576        0.052      341.568       16.368      855.491
06/18/2013  20:39:00     -583.517     -115.050      -19.488      235.879      172.501       99.660    55638.919    29756.504     9932.140       22.470        4.766      594.751       83.469        0.020      341.510       16.269      855.539
06/18/2013  20:40:00     -572.461     -155.074      -16.572      196.097      174.993      105.372    38453.919    30622.619    11103.332       21.609        4.009      593.093      101.201        0.029      341.430       16.134      855.595
06/18/2013  20:41:00     -518.504     -135.944      -20.273      160.508      148.098       79.475    25762.755    21933.023     6316.258       17.086        2.701      536.029       56.878        0.011      341.446       16.159      855.550
06/18/2013  20:42:00     -297.865     -122.873      -15.295      189.255       94.309       63.686    35817.413     8894.269     4055.956        7.640        2.438      322.214       19.095        0.004      341.459       16.184      855.573
06/18/2013  20:43:00     -329.034     -259.404      -10.338      157.549      125.847       70.760    24821.618    15837.388     5007.042       11.065        2.283      418.991       58.453        0.019      341.463       16.188      855.615
06/18/2013  20:44:00     -231.300     -136.046       17.880      164.237      145.923       74.176    26973.709    21293.447     5502.138        6.304        2.688      268.344       75.002        0.078      341.482       16.221      855.650
06/18/2013  20:45:00     -260.272     -180.486       -2.826      111.282       94.975       68.304    12383.607     9020.178     4665.418        6.319        1.303      316.728       62.663        0.039      341.560       16.354      855.602
06/18/2013  20:46:00     -210.551      -82.839       -2.539      149.467      152.067       66.772    22340.476    23124.233     4458.560        5.055        2.496      226.261       62.884        0.077      341.552       16.340      855.627
06/18/2013  20:47:00     -317.806     -204.593        0.065      228.973      164.809       96.761    52428.477    27161.905     9362.708       11.589        4.448      377.967       96.153        0.065      341.468       16.198      855.683
06/18/2013  20:48:00     -460.318      -87.977       -2.537      223.570      231.868      111.811    49983.693    53762.646    12501.593       16.792        5.812      468.650      117.928        0.063      341.304       15.920      855.653
06/18/2013  20:49:00     -486.667     -112.785      -18.648      217.740      147.853       90.225    47410.791    21860.423     8140.548       16.365        3.871      499.565       99.759        0.040      341.252       15.835      855.661
06/18/2013  20:50:00     -483.687      -89.996      -16.005      201.758      130.129       79.832    40706.234    16933.433     6373.119       15.315        3.201      491.988       90.582        0.034      341.183       15.716      855.640
06/18/2013  20:51:00     -309.315      -97.418       -6.549      150.332      145.459       78.273    22599.756    21158.192     6126.729        7.754        2.494      324.293       72.732        0.050      341.228       15.792      855.642
06/18/2013  20:52:00     -511.648     -109.918      -36.285      291.885      163.024      101.557    85196.687    26576.824    10313.843       19.861        6.104      523.322      136.452        0.068      341.156       15.669      855.706
06/18/2013  20:53:00     -367.532      -47.141      -22.485      187.730      128.786       70.478    35242.633    16585.706     4967.088        9.729        2.840      370.543       80.896        0.048      341.158       15.673      855.704
06/18/2013  20:54:00     -342.304     -174.060      -19.383      184.028      120.603       69.620    33866.211    14545.063     4846.898       10.054        2.663      384.017       72.280        0.035      341.151       15.662      855.754
06/18/2013  20:55:00     -366.539     -225.218      -11.225      256.037      197.810      100.396    65554.716    39128.737    10079.339       14.996        5.738      430.202      109.677        0.065      341.118       15.606      855.743
06/18/2013  20:56:00     -337.722     -146.153      -11.193      242.522      190.263      100.356    58816.971    36199.853    10071.317       12.029        5.254      367.990      115.087        0.098      341.071       15.527      855.686
06/18/2013  20:57:00     -398.391      -76.255      -15.082      240.433      182.106      102.412    57807.891    33162.647    10488.131       13.309        5.073      405.623      108.671        0.072      341.062       15.511      855.725
06/18/2013  20:58:00     -274.754     -142.322       -2.961      198.485      140.227       99.132    39396.462    19663.681     9827.215        8.231        3.444      309.427      104.245        0.114      341.050       15.493      855.784
06/18/2013  20:59:00     -449.011     -305.270        1.450      322.951      289.881      148.945   104297.530    84031.255    22184.566       25.262       10.526      542.956      170.901        0.099      341.031       15.459      855.748
06/18/2013  21:00:00     -478.007     -168.679      -25.458      208.561      244.494      104.022    43497.803    59777.144    10820.675       18.582        5.705      506.896      102.415        0.041      341.023       15.446      855.788
06/18/2013  21:01:00     -298.290     -167.945       -6.534      246.923      184.124      118.186    60971.057    33901.509    13967.982       11.301        5.442      342.320      129.382        0.143      341.026       15.450      855.796
06/18/2013  21:02:00     -465.313      -42.060      -17.532      235.300      144.494       87.124    55366.122    20878.404     7590.566       15.120        4.192      467.210      103.268        0.049      341.007       15.417      855.860
06/18/2013  21:03:00     -544.517     -146.532      -19.083      254.117      175.955       99.169    64575.686    30960.265     9834.521       21.183        5.269      563.889      119.134        0.045      340.983       15.376      855.943
06/18/2013  21:04:00     -329.740     -147.905      -19.519      220.405      191.867       85.214    48578.573    36813.004     7261.366       11.180        4.633      361.392      106.923        0.088      341.016       15.435      855.954
06/18/2013  21:05:00     -437.361      -89.039      -31.048      191.919      195.296       78.474    36832.738    38140.488     6158.191       14.064        4.057      446.333       72.204        0.026      340.964       15.344      855.930
06/18/2013  21:06:00     -598.542      -21.928      -37.141      198.851      140.987       88.419    39541.649    19877.282     7817.910       21.366        3.362      598.944       88.024        0.022      340.911       15.255      855.921
06/18/2013  21:07:00     -490.347     -110.363      -25.553      302.090      174.051      100.787    91258.522    30293.924    10158.021       19.247        6.586      502.613      121.564        0.058      340.899       15.235      855.895
06/18/2013  21:08:00     -321.633     -106.653      -10.526      163.396      116.775       75.354    26698.104    13636.306     5678.216        8.046        2.301      338.855       79.934        0.056      340.884       15.207      855.905
06/18/2013  21:09:00     -465.105     -102.637      -12.395      266.587      143.638      104.752    71068.410    20631.914    10973.020       16.482        5.134      476.295      115.242        0.059      340.867       15.182      855.947
06/18/2013  21:10:00     -325.107     -157.255       -6.365      202.898      220.673       90.141    41167.477    48696.788     8125.353       11.421        4.899      361.142      110.419        0.093      340.871       15.188      855.964
06/18/2013  21:11:00     -241.527     -113.905       15.611      216.696      171.186      102.891    46957.252    29304.539    10586.654        7.918        4.342      267.038      116.490        0.190      340.873       15.192      855.928
06/18/2013  21:12:00     -619.529     -121.597      -36.021      250.990      222.349       99.448    62995.994    49439.292     9889.889       26.109        6.116      631.349       97.513        0.024      340.820       15.102      855.894
06/18/2013  21:13:00     -668.173      -83.782      -44.936      272.765      231.759       90.591    74400.938    53712.389     8206.700       29.588        6.816      673.405      103.063        0.023      340.798       15.065      855.912
06/18/2013  21:14:00     -327.091      -42.557       -1.609      201.910      150.126       83.162    40767.654    22537.703     6915.895        8.950        3.511      329.848       85.507        0.067      340.814       15.092      855.965
06/18/2013  21:15:00     -199.069      -60.085       28.844      208.237      157.846      104.729    43362.855    24915.410    10968.123        6.164        3.962      207.939      107.211        0.266      340.806       15.078      855.970
06/18/2013  21:16:00     -524.051      -42.680      -21.324      265.623      175.691       88.709    70555.540    30867.379     7869.272       19.308        5.465      525.786      103.882        0.039      340.765       15.009      855.970
06/18/2013  21:17:00     -180.280      -54.905       26.245      236.241      162.371       93.102    55809.651    26364.414     8667.995        6.350        4.542      188.455      116.394        0.381      340.782       15.038      855.988
06/18/2013  21:18:00     -302.479      -33.989       16.484      182.743      168.550       85.587    33395.002    28409.049     7325.175        8.101        3.456      304.383       89.804        0.087      340.732       14.953      855.992
06/18/2013  21:19:00     -535.326     -124.219      -27.168      257.420      187.268      105.989    66264.838    35069.130    11233.563       20.763        5.628      549.549      124.530        0.051      340.709       14.914      855.942
06/18/2013  21:20:00     -558.839     -242.661      -22.038      269.111      226.399      132.576    72420.615    51256.645    17576.494       25.643        7.063      609.249      139.107        0.052      340.707       14.910      855.984
06/18/2013  21:21:00     -554.724     -143.661      -24.024      264.325      147.678       99.496    69867.903    21808.915     9899.543       21.523        5.079      573.025      116.065        0.041      340.681       14.866      856.044
06/18/2013  21:22:00     -465.799     -123.483      -23.028      252.192      227.753      103.356    63600.738    51871.440    10682.470       17.943        6.308      481.889      122.066        0.064      340.674       14.854      856.062
06/18/2013  21:23:00     -366.852     -100.646        8.939      198.500      158.884      106.551    39402.225    25244.091    11353.029       11.038        3.800      380.407      120.806        0.101      340.666       14.841      856.059
06/18/2013  21:24:00     -484.752      -70.932      -19.361      230.835      164.570       94.864    53284.972    27083.230     8999.148       16.486        4.468      489.914      100.213        0.042      340.639       14.795      856.065
06/18/2013  21:25:00     -396.061      -89.336       -7.180      315.569      158.973      106.872    99583.989    25272.509    11421.533       15.056        6.814      406.011      129.258        0.101      340.632       14.783      856.063
06/18/2013  21:26:00     -441.258     -148.754       -5.548      205.727      162.750       95.298    42323.434    26487.706     9081.749       14.736        3.895      465.657      102.821        0.049      340.603       14.733      856.060
06/18/2013  21:27:00     -527.901      -49.089      -14.401      250.398      216.137      106.774    62699.171    46715.048    11400.642       20.103        6.041      530.178      119.665        0.051      340.567       14.672      856.116
06/18/2013  21:28:00     -687.477     -120.017      -42.621      282.736      196.450      105.222    79939.475    38592.412    11071.617       30.920        6.480      697.874      130.957        0.035      340.558       14.657      856.133
06/18/2013  21:29:00     -538.646     -107.288      -25.922      252.928      187.282      104.240    63972.720    35074.672    10865.895       20.610        5.496      549.227      121.309        0.049      340.559       14.660      856.137
06/18/2013  21:30:00     -251.190      -21.755       15.960      204.331      121.491       81.304    41751.103    14759.948     6610.340        6.346        3.156      252.131       96.680        0.147      340.563       14.667      856.140
06/18/2013  21:31:00     -489.644     -103.662      -18.196      247.442      181.601      116.979    61227.401    32978.795    13684.168       17.934        5.395      500.497      122.080        0.059      340.551       14.647      856.107
06/18/2013  21:32:00     -660.939     -150.408      -36.805      229.944      214.844      103.901    52874.331    46157.767    10795.408       28.530        5.491      677.837      116.748        0.030      340.516       14.588      856.070
06/18/2013  21:33:00     -604.398     -113.327      -19.286      267.854      192.856      112.555    71745.561    37193.396    12668.526       25.004        6.080      614.931      122.035        0.039      340.494       14.551      856.082
06/18/2013  21:34:00     -618.706     -125.829      -18.254      257.562      205.716      108.209    66338.288    42318.949    11709.252       25.964        6.018      631.372      115.336        0.033      340.488       14.540      856.112
06/18/2013  21:35:00     -598.481     -133.030      -18.774      237.718      193.193       96.794    56509.629    37323.572     9369.095       23.969        5.160      613.088      107.212        0.031      340.502       14.565      856.186
06/18/2013  21:36:00     -475.965      -97.225       -3.913      240.215      247.180      121.439    57703.339    61097.782    14747.422       18.475        6.677      485.794      131.719        0.074      340.477       14.522      856.228
06/18/2013  21:37:00     -666.825      -56.467      -31.124      256.091      163.297      112.666    65582.487    26665.901    12693.666       27.686        5.247      669.212      139.360        0.043      340.451       14.477      856.217
06/18/2013  21:38:00     -517.481     -127.377       -9.322      210.503      208.822       93.979    44311.539    43606.544     8831.990       19.040        4.838      532.927      105.463        0.039      340.447       14.470      856.221
06/18/2013  21:39:00     -598.136     -133.862      -27.914      297.901      180.857      106.863    88745.284    32709.194    11419.741       25.464        6.644      612.932      124.573        0.041      340.438       14.456      856.221
06/18/2013  21:40:00     -529.494      -87.080      -26.855      239.895      137.173      100.644    57549.393    18816.435    10129.245       18.756        4.325      536.606      110.850        0.043      340.453       14.481      856.291
06/18/2013  21:41:00     -492.195      -20.992      -31.139      254.384      130.924       97.454    64711.099    17140.983     9497.218       16.749        4.567      492.643      110.229        0.050      340.424       14.431      856.333
06/18/2013  21:42:00     -619.748     -120.569      -27.792      270.720      163.008      100.067    73289.335    26571.594    10013.337       25.461        5.494      631.367      112.781        0.032      340.395       14.383      856.305
06/18/2013  21:43:00     -645.009      -40.246      -30.882      280.522      204.088      103.474    78692.324    41651.790    10706.919       27.480        6.553      646.264      117.865        0.033      340.387       14.371      856.295
06/18/2013  21:44:00     -385.464     -123.738       -2.308      208.943      180.468      104.716    43657.213    32568.618    10965.408       12.553        4.360      404.837       94.138        0.054      340.376       14.351      856.288
06/18/2013  21:45:00     -462.317      -62.974       -8.988      245.604      152.205       84.873    60321.365    23166.335     7203.464       15.422        4.535      466.586       94.945        0.041      340.389       14.373      856.352
06/18/2013  21:46:00     -585.257      -53.584      -40.886      220.201      194.443      101.886    48488.688    37808.069    10380.713       22.185        4.834      587.705       85.040        0.021      340.347       14.302      856.347
06/18/2013  21:47:00     -680.181      -75.442      -56.721      266.852      254.914      132.615    71210.015    64981.243    17586.650       31.264        7.689      684.352      143.663        0.044      340.327       14.268      856.310
06/18/2013  21:48:00     -572.548      -66.182      -16.211      213.189      193.216      101.627    45449.492    37332.442    10328.085       21.276        4.656      576.361      113.014        0.038      340.333       14.277      856.359
06/18/2013  21:49:00     -641.068     -159.215      -28.403      312.581      227.002      105.344    97706.721    51529.788    11097.377       29.870        8.017      660.544      122.634        0.034      340.316       14.250      856.380
06/18/2013  21:50:00     -689.013      -98.657      -16.921      322.890      215.457      118.066   104257.871    46421.881    13939.679       32.466        8.231      696.041      139.486        0.040      340.289       14.204      856.428
06/18/2013  21:51:00     -488.579     -128.018      -26.559      278.526      179.067      113.393    77576.732    32064.850    12857.991       18.913        6.125      505.073      120.035        0.056      340.270       14.171      856.422
06/18/2013  21:52:00     -610.288      -27.980      -28.832      275.961      184.077      108.987    76154.514    33884.393    11878.275       24.797        6.096      610.929      108.875        0.032      340.263       14.160      856.433
06/18/2013  21:53:00     -561.486      -44.900       -5.877      259.600      179.570      115.816    67392.028    32245.416    13413.281       21.516        5.653      563.279      130.854        0.054      340.247       14.132      856.486
06/18/2013  21:54:00     -589.738     -125.388       -6.500      289.454      217.931      102.133    83783.527    47493.784    10431.101       25.260        7.085      602.920      122.642        0.041      340.242       14.123      856.463
06/18/2013  21:55:00     -640.497     -152.863      -12.934      234.138      195.915      108.036    54820.780    38382.548    11671.854       26.930        5.244      658.486      112.493        0.029      340.225       14.093      856.487
06/18/2013  21:56:00     -640.310       10.236      -48.326      297.078      175.556       97.826    88255.489    30820.081     9569.985       27.052        6.432      640.392      118.811        0.034      340.202       14.056      856.507
06/18/2013  21:57:00     -617.635     -114.066      -12.388      260.725      212.578      112.881    67977.539    45189.311    12742.163       26.025        6.295      628.080      127.526        0.041      340.206       14.062      856.518
06/18/2013  21:58:00     -645.462     -136.018      -19.246      218.066      176.835      103.095    47552.856    31270.724    10628.533       26.245        4.473      659.638      111.998        0.029      340.195       14.044      856.535
06/18/2013  21:59:00     -654.621     -130.112      -32.452      269.232      213.824       97.877    72485.869    45720.591     9579.930       28.712        6.389      667.427       99.617        0.022      340.186       14.028      856.561
06/18/2013  22:00:00     -660.702     -151.479      -15.954      315.819      231.098      137.756    99741.671    53406.475    18976.812       31.589        8.606      677.844      160.775        0.056      340.207       14.065      856.517
06/18/2013  22:01:00     -618.983     -118.012      -15.602      317.159      245.354      138.351   100590.087    60198.527    19140.957       28.858        8.996      630.132      168.092        0.071      340.204       14.060      856.549
06/18/2013  22:02:00     -753.348      -32.938      -49.597      379.281      240.169      140.161   143854.087    57681.149    19645.163       39.608       11.059      754.068      178.387        0.056      340.198       14.049      856.548
06/18/2013  22:03:00     -624.228     -203.940      -27.693      250.353      208.279      107.768    62676.564    43380.283    11613.871       27.482        5.884      656.697       97.406        0.022      340.192       14.040      856.583
06/18/2013  22:04:00     -663.543      -53.192      -52.799      218.882      190.692      111.131    47909.249    36363.309    12350.110       27.124        4.831      665.671      107.589        0.026      340.173       14.009      856.617
06/18/2013  22:05:00     -878.017     -157.683      -67.970      290.783      236.358      132.410    84554.866    55864.944    17532.334       47.914        7.898      892.064      133.061        0.022      340.161       13.987      856.617
06/18/2013  22:06:00     -678.834     -251.742      -21.622      255.307      219.987      104.266    65181.851    48394.178    10871.480       32.453        6.222      724.009      113.725        0.025      340.154       13.975      856.648
06/18/2013  22:07:00     -708.560      -88.985      -42.836      305.833      223.534      126.153    93533.625    49967.534    15914.567       33.558        7.971      714.125      134.636        0.036      340.145       13.959      856.645
06/18/2013  22:08:00     -702.265     -126.060      -30.341      273.908      221.408      114.505    75025.648    49021.488    13111.402       32.355        6.858      713.490      121.888        0.029      340.144       13.958      856.612
06/18/2013  22:09:00     -686.409     -125.561      -24.628      253.849      209.171      107.720    64439.400    43752.596    11603.530       30.364        5.990      697.799      103.711        0.022      340.120       13.918      856.626
06/18/2013  22:10:00     -533.844     -172.171      -16.420      219.087      182.833      100.320    47999.222    33427.997    10064.065       20.318        4.575      560.921      112.489        0.040      340.105       13.892      856.643
06/18/2013  22:11:00     -646.685     -224.727      -30.487      263.727      208.930      110.905    69551.821    43651.951    12300.016       29.754        6.275      684.620      105.817        0.024      340.069       13.831      856.586
06/18/2013  22:12:00     -529.868      -94.902      -18.000      317.803      186.070      127.368   100998.804    34622.085    16222.537       22.094        7.592      538.299      140.647        0.068      340.074       13.840      856.634
06/18/2013  22:13:00     -688.438      -73.800      -39.059      301.361      231.726      123.741    90818.256    53696.995    15311.917       32.034        7.991      692.382      143.929        0.043      340.069       13.831      856.649
06/18/2013  22:14:00     -649.906     -227.896      -27.850      319.843      228.603      117.915   102299.749    52259.256    13904.026       32.174        8.423      688.705      135.386        0.039      340.053       13.804      856.678
06/18/2013  22:15:00     -588.301     -205.484       -8.703      253.118      181.152      102.526    64068.876    32816.156    10511.608       24.788        5.370      623.155      110.898        0.032      340.023       13.754      856.685
06/18/2013  22:16:00     -585.328     -113.032      -22.082      228.814      203.161      112.526    52355.711    41274.502    12662.150       23.106        5.315      596.142      118.025        0.039      339.990       13.698      856.664
06/18/2013  22:17:00     -787.815     -122.717      -66.772      286.095      252.360      114.112    81850.394    63685.656    13021.612       39.933        7.928      797.315      124.237        0.024      339.975       13.672      856.662
06/18/2013  22:18:00     -775.429     -118.327      -41.108      252.862      195.099      114.437    63939.356    38063.630    13095.714       36.602        5.755      784.405      122.533        0.024      339.957       13.644      856.708
06/18/2013  22:19:00     -684.228     -152.859      -39.727      260.315      227.807      113.285    67763.661    51895.830    12833.582       31.278        6.625      701.095      107.351        0.023      339.958       13.645      856.697
06/18/2013  22:20:00     -762.977     -113.942      -54.773      275.788      203.951      123.842    76059.269    41595.876    15336.821       36.553        6.650      771.438      138.928        0.032      339.937       13.609      856.698
06/18/2013  22:21:00     -760.175     -157.982      -35.229      258.728      247.337      124.785    66940.318    61175.512    15571.228       37.385        7.184      776.417      130.162        0.028      339.911       13.564      856.696
06/18/2013  22:22:00     -636.084      -98.100      -15.618      364.447      204.076      130.521   132821.563    41646.829    17035.827       30.295        9.575      643.604      164.065        0.065      339.906       13.556      856.717
06/18/2013  22:23:00     -661.570     -130.874      -43.939      253.284      243.285      109.692    64152.802    59187.662    12032.415       29.603        6.769      674.390      116.035        0.030      339.910       13.563      856.653
06/18/2013  22:24:00     -783.513     -126.032      -49.340      306.040      256.143      127.786    93660.316    65609.385    16329.195       40.387        8.780      793.585      148.179        0.035      339.875       13.504      856.674
06/18/2013  22:25:00     -722.577     -102.624      -26.412      305.108      238.842      120.144    93091.059    57045.303    14434.588       34.893        8.229      729.829      137.280        0.035      339.882       13.515      856.724
06/18/2013  22:26:00     -561.653     -205.594      -18.963      271.548      200.505      108.065    73738.110    40202.097    11678.000       24.182        6.281      598.099      127.480        0.045      339.886       13.523      856.759
06/18/2013  22:27:00     -576.197     -157.721      -18.951      272.708      204.713       88.500    74369.800    41907.379     7832.189       24.065        6.205      597.393      112.318        0.035      339.872       13.499      856.796
06/18/2013  22:28:00     -488.149      -62.100      -26.286      257.381      180.254      102.478    66244.806    32491.465    10501.678       17.602        5.462      492.084      112.929        0.053      339.853       13.468      856.853
06/18/2013  22:29:00     -691.009      -92.556      -37.836      277.767      184.371      107.671    77154.528    33992.791    11593.063       30.509        6.137      697.180      120.604        0.030      339.849       13.460      856.832
06/18/2013  22:30:00     -590.505     -107.966       14.291      351.046      210.144      117.913   123233.422    44160.307    13903.580       27.089        9.065      600.294      155.328        0.067      339.847       13.457      856.790
06/18/2013  22:31:00     -623.377     -177.001        0.930      291.927      197.340      121.436    85221.311    38943.144    14746.588       27.939        6.946      648.019      134.033        0.043      339.842       13.449      856.847
06/18/2013  22:32:00     -779.520      -49.237      -44.475      254.306      221.188      109.654    64671.535    48924.330    12023.938       36.881        6.281      781.073      128.046        0.027      339.808       13.391      856.941
06/18/2013  22:33:00     -570.094     -124.618      -13.230      271.905      218.498      109.302    73932.079    47741.377    11946.952       23.714        6.681      583.555      122.946        0.044      339.806       13.388      856.978
06/18/2013  22:34:00     -458.178     -105.359      -31.475      190.799      167.748       96.759    36404.293    28139.507     9362.302       14.795        3.695      470.135      103.091        0.048      339.801       13.380      856.935
06/18/2013  22:35:00     -750.773      -87.626      -43.441      283.210      213.336      111.847    80207.637    45512.355    12509.738       35.570        6.911      755.869      139.307        0.034      339.750       13.294      856.889
06/18/2013  22:36:00     -699.644     -126.395      -32.672      241.677      172.481      104.111    58407.732    29749.654    10839.047       30.275        4.950      710.969      121.109        0.029      339.736       13.270      856.922
06/18/2013  22:37:00     -766.313     -108.973      -43.409      285.383      185.884      110.465    81443.562    34553.014    12202.415       36.457        6.410      774.023      133.369        0.030      339.736       13.271      856.915
06/18/2013  22:38:00     -643.835      -75.355      -14.385      306.610      199.732      120.825    94009.654    39892.849    14598.565       28.442        7.425      648.229      150.926        0.054      339.729       13.259      856.972
06/18/2013  22:39:00     -620.651      -74.651      -30.831      268.588      181.570      104.665    72139.754    32967.675    10954.661       25.387        5.803      625.124      114.235        0.033      339.739       13.278      856.993
06/18/2013  22:40:00     -473.929     -168.641       -6.741      238.638      227.279      110.500    56947.950    51655.965    12210.142       18.693        6.041      503.039      131.959        0.069      339.725       13.253      856.942
06/18/2013  22:41:00     -566.530     -110.337      -13.654      314.860      202.928      114.934    99136.973    41179.792    13209.922       24.339        7.676      577.174      139.897        0.059      339.709       13.225      856.923
06/18/2013  22:42:00     -652.183     -123.064       -3.081      304.582      190.902      111.249    92770.436    36443.706    12376.443       29.102        7.080      663.693      136.858        0.043      339.709       13.225      857.005
06/18/2013  22:43:00     -506.975     -119.311      -15.203      226.013      156.667       90.188    51081.831    24544.466     8133.888       17.761        4.188      520.825       97.852        0.035      339.690       13.191      857.055
06/18/2013  22:44:00     -575.335      -30.089      -36.016      268.194      187.260       78.676    71927.865    35066.489     6189.951       22.318        5.659      576.121      108.858        0.036      339.671       13.159      857.009
06/18/2013  22:45:00     -459.192      -71.872       -5.765      208.853      165.232       88.007    43619.570    27301.534     7745.230       14.735        3.933      464.783       97.943        0.044      339.640       13.109      856.995
06/18/2013  22:46:00     -533.509     -185.159      -29.329      204.399      193.711       90.589    41778.992    37523.789     8206.434       20.362        4.375      564.726       82.503        0.021      339.645       13.116      856.891
06/18/2013  22:47:00     -696.295     -133.850      -72.043      160.684      166.258       83.154    25819.287    27641.741     6914.514       28.414        3.019      709.044       77.449        0.012      339.633       13.096      856.838
06/18/2013  22:48:00     -493.610      -67.978      -35.668      161.145      213.881       92.740    25967.586    45744.986     8600.687       16.491        4.016      498.269       84.874        0.029      339.612       13.062      856.851
06/18/2013  22:49:00     -490.076     -211.239       -5.015      197.227      155.124       92.225    38898.603    24063.464     8505.473       17.813        3.573      533.663       96.369        0.033      339.570       12.991      856.864
06/18/2013  22:50:00     -527.393     -187.639       -5.037      200.731      152.811       92.320    40292.831    23351.156     8522.974       19.276        3.608      559.778       95.427        0.029      339.575       12.999      856.868
06/18/2013  22:51:00     -518.715     -119.693      -17.180      170.796      165.515       98.709    29171.342    27395.247     9743.454       17.498        3.316      532.345      104.483        0.039      339.560       12.975      856.874
06/18/2013  22:52:00     -470.227     -114.536      -28.260      207.723      139.150       90.378    43148.664    19362.849     8168.165       15.284        3.534      483.975      105.063        0.047      339.566       12.984      856.914
06/18/2013  22:53:00     -442.236     -145.042      -20.132      179.879      163.163       86.869    32356.541    26622.056     7546.169       14.176        3.326      465.413       88.868        0.036      339.547       12.952      856.958
06/18/2013  22:54:00     -501.417     -128.688      -12.585      193.424      154.379       86.083    37412.992    23833.013     7410.349       16.838        3.433      517.668       87.289        0.028      339.534       12.930      856.958
06/18/2013  22:55:00     -418.497     -129.433       -0.220      229.772      178.332       87.439    52795.400    31802.374     7645.528       14.205        4.612      438.055      100.280        0.052      339.576       13.001      856.964
06/18/2013  22:56:00     -470.602      -67.201      -26.994      163.247      144.341       78.738    26649.439    20834.264     6199.696       14.019        2.684      475.376       81.009        0.029      339.560       12.974      856.948
06/18/2013  22:57:00     -428.423      -99.118       -7.444      179.934      141.261       82.909    32376.333    19954.728     6873.926       12.630        2.960      439.739       87.411        0.040      339.530       12.923      856.924
06/18/2013  22:58:00     -523.622     -208.100       -6.750      188.357      151.922       84.833    35478.526    23080.163     7196.625       19.163        3.288      563.459       93.879        0.028      339.501       12.873      856.908
06/18/2013  22:59:00     -456.832      -65.264      -27.289      196.956      148.469       88.980    38791.779    22043.000     7917.477       14.121        3.438      461.470      104.937        0.052      339.509       12.887      856.892
06/18/2013  23:00:00     -532.463      -71.174      -29.036      169.225      171.049       71.351    28637.196    29257.898     5090.979       17.619        3.149      537.198       82.015        0.023      339.521       12.907      856.844
06/18/2013  23:01:00     -425.485     -156.889       -7.298      215.332      172.547       90.590    46367.799    29772.565     8206.603       14.501        4.217      453.488       87.751        0.037      339.509       12.887      856.792
06/18/2013  23:02:00     -463.292      -49.570      -35.321      170.865      142.355       81.771    29194.839    20264.844     6686.415       13.723        2.807      465.936       79.513        0.029      339.477       12.832      856.758
06/18/2013  23:03:00     -531.312      -37.796      -44.909      152.679      161.182       90.965    23310.924    25979.675     8274.658       17.164        2.878      532.654       77.986        0.021      339.451       12.789      856.678
06/18/2013  23:04:00     -436.783     -122.601       -8.020      247.853      167.918       99.109    61430.962    28196.382     9822.616       15.264        4.972      453.663      107.656        0.056      339.436       12.765      856.713
06/18/2013  23:05:00     -451.020     -154.263      -15.490      159.741      143.812       80.939    25517.320    20682.013     6551.138       14.009        2.638      476.672       80.235        0.028      339.438       12.768      856.766
06/18/2013  23:06:00     -511.873      -68.589      -24.788      149.356      144.741       82.639    22307.341    20949.966     6829.185       15.870        2.504      516.448       84.352        0.027      339.401       12.706      856.824
06/18/2013  23:07:00     -379.254      -34.454       -7.475      174.754      148.885       72.630    30539.059    22166.783     5275.170       10.152        2.899      380.816       85.297        0.050      339.400       12.705      856.861
06/18/2013  23:08:00     -424.133      -74.394      -27.233      270.976      164.210       93.576    73428.234    26965.077     8756.420       14.763        5.457      430.608      123.722        0.083      339.413       12.726      856.915
06/18/2013  23:09:00     -264.250      -47.830        0.936      194.477       99.233       83.528    37821.448     9847.167     6976.896        6.337        2.732      268.544       97.349        0.131      339.398       12.702      856.928
06/18/2013  23:10:00     -391.706      -77.881      -11.759      164.575      121.527       76.741    27085.050    14768.758     5889.158       10.368        2.387      399.373       89.674        0.050      339.346       12.611      856.896
06/18/2013  23:11:00     -473.909      -74.553      -18.574      178.528      177.047       87.233    31872.378    31345.523     7609.680       15.065        3.541      479.738       81.781        0.029      339.350       12.617      856.875
06/18/2013  23:12:00     -538.603     -121.627      -10.471      222.717      173.206      101.056    49602.901    30000.156    10212.408       19.739        4.491      552.165      117.174        0.045      339.358       12.632      856.855
06/18/2013  23:13:00     -584.116      -62.348      -32.546      244.622      171.413      116.276    59840.068    29382.400    13519.999       22.442        5.137      587.434      132.578        0.051      339.358       12.634      856.860
06/18/2013  23:14:00     -451.433      -76.240      -18.072      246.263      150.036       96.663    60645.359    22510.919     9343.727       15.120        4.625      457.826      111.163        0.059      339.356       12.631      856.866
06/18/2013  23:15:00     -322.992     -107.085       15.656      230.779      153.520       95.765    53258.940    23568.294     9171.011       10.100        4.300      340.281      120.154        0.125      339.351       12.621      856.876
06/18/2013  23:16:00     -510.357      -72.184      -20.636      243.213      149.621       77.968    59152.513    22386.567     6079.051       17.684        4.381      515.436       80.396        0.024      339.342       12.604      856.869
06/18/2013  23:17:00     -386.434     -152.424      -14.361      243.153      178.452      100.748    59123.156    31845.119    10150.236       13.692        5.056      415.409      113.156        0.074      339.367       12.649      856.857
06/18/2013  23:18:00     -480.137      -62.242      -11.533      219.139      172.044      102.290    48021.744    29599.230    10463.214       16.129        4.404      484.155      108.229        0.050      339.350       12.619      856.858
06/18/2013  23:19:00     -502.884     -221.963      -20.392      255.919      203.176      107.555    65494.289    41280.604    11567.991       21.044        5.917      549.690      121.442        0.049      339.334       12.591      856.855
06/18/2013  23:20:00     -314.799      -73.253        6.494      185.830      117.134       76.637    34532.966    13720.330     5873.288        7.931        2.706      323.210       90.944        0.079      339.333       12.590      856.858
06/18/2013  23:21:00     -525.812      -43.315      -40.197      196.777      139.567       80.593    38721.000    19479.067     6495.301       17.232        3.235      527.593       92.507        0.031      339.331       12.588      856.854
06/18/2013  23:22:00     -469.461      -83.952      -12.236      168.944      169.688       74.000    28542.202    28794.138     5476.009       14.519        3.141      476.909       78.349        0.027      339.310       12.552      856.845
06/18/2013  23:23:00     -441.207     -100.011       -9.647      193.135      201.867       88.331    37301.273    40750.388     7802.381       14.529        4.293      452.400       99.322        0.048      339.310       12.551      856.817
06/18/2013  23:24:00     -526.825     -106.173      -12.572      240.263      191.628       96.322    57726.487    36721.192     9277.961       19.633        5.186      537.417      102.311        0.036      339.315       12.560      856.839
06/18/2013  23:25:00     -317.208      -67.115        5.913      204.809      118.810       89.404    41946.808    14115.833     7993.150        8.460        3.203      324.230       95.915        0.088      339.311       12.553      856.848
06/18/2013  23:26:00     -279.631     -192.161       -1.704      206.179      167.795       91.082    42509.590    28155.203     8296.015        9.703        3.948      339.292      105.802        0.097      339.321       12.571      856.866
06/18/2013  23:27:00     -358.171      -76.272       -0.803      174.963      139.904       81.257    30612.149    19573.041     6602.663        9.543        2.839      366.202       70.655        0.037      339.332       12.589      856.857
06/18/2013  23:28:00     -422.156     -188.770      -10.731      173.047      152.767       77.904    29945.343    23337.811     6069.098       13.665        2.968      462.439       83.929        0.033      339.319       12.566      856.837
06/18/2013  23:29:00     -382.797     -130.083      -11.195      204.788      174.442       86.917    41937.980    30430.001     7554.573       12.174        3.996      404.295       88.040        0.047      339.322       12.571      856.859
06/18/2013  23:30:00     -219.770      -79.651       10.384      139.883      139.223       79.524    19567.176    19383.173     6324.070        5.000        2.264      233.759       73.519        0.099      339.318       12.565      856.863
06/18/2013  23:31:00     -285.860     -121.844      -10.169      174.593      168.103       71.853    30482.654    28258.477     5162.820        8.027        3.195      310.744       95.179        0.094      339.292       12.522      856.859
06/18/2013  23:32:00     -298.183      -34.756       -7.053      204.104      152.454       80.853    41658.447    23242.267     6537.267        8.079        3.572      300.202       86.057        0.082      339.272       12.488      856.868
06/18/2013  23:33:00     -149.420      -26.138       23.160      166.700      112.859       79.170    27788.727    12737.062     6267.832        3.516        2.340      151.689       79.000        0.271      339.287       12.515      856.828
06/18/2013  23:34:00     -234.381      -66.229        1.296      183.660      108.068       67.746    33731.117    11678.766     4589.510        5.465        2.500      243.559       59.231        0.059      339.262       12.472      856.826
06/18/2013  23:35:00     -437.322      -43.465      -27.691      135.292      163.134       77.439    18303.903    26612.635     5996.842       12.240        2.546      439.476       59.202        0.018      339.248       12.448      856.856
06/18/2013  23:36:00     -255.669     -187.158       -1.572      177.683      150.242       78.833    31571.171    22572.754     6214.699        8.037        3.018      316.851       88.620        0.078      339.241       12.436      856.866
06/18/2013  23:37:00     -209.263     -180.646       -4.090      172.841      168.187       87.543    29873.998    28286.908     7663.798        7.112        3.291      276.449       88.913        0.103      339.217       12.395      856.856
06/18/2013  23:38:00     -412.645     -107.831      -11.011      216.910      165.875       80.629    47050.113    27514.355     6501.009       13.153        4.053      426.501       86.004        0.041      339.212       12.389      856.872
06/18/2013  23:39:00     -414.520     -134.399      -17.947      230.827      184.249       96.288    53280.897    33947.860     9271.312       14.334        4.825      435.764       95.512        0.048      339.229       12.417      856.859
06/18/2013  23:40:00     -256.429     -134.790        5.820      179.931      182.600       87.833    32375.165    33342.932     7714.709        7.868        3.672      289.697       90.261        0.097      339.223       12.406      856.870
06/18/2013  23:41:00     -366.057     -193.952      -19.203      163.328      132.016       77.779    26675.983    17428.150     6049.646       11.106        2.508      414.265       89.241        0.046      339.231       12.419      856.882
06/18/2013  23:42:00     -243.937     -168.442        4.162      204.403      179.032       88.595    41780.515    32052.589     7849.111        8.477        4.084      296.442      112.294        0.143      339.210       12.384      856.877
06/18/2013  23:43:00     -299.042     -184.395      -10.283      180.352      148.358       86.102    32526.997    22010.002     7413.549        9.273        3.098      351.322      100.551        0.082      339.211       12.385      856.866
06/18/2013  23:44:00     -241.803     -158.217       14.040      193.313      137.576       77.639    37369.760    18927.101     6027.885        7.300        3.116      288.967       93.433        0.105      339.191       12.352      856.887
06/18/2013  23:45:00     -371.719      -72.778      -13.232      221.096      118.308       96.522    48883.450    13996.701     9316.414       10.791        3.610      378.776      114.773        0.092      339.169       12.315      856.874
06/18/2013  23:46:00     -253.205     -166.602        8.187      163.560      150.608       93.549    26751.974    22682.810     8751.486        7.505        2.909      303.099       99.330        0.107      339.167       12.311      856.899
06/18/2013  23:47:00     -357.297     -162.577      -19.933      151.232      119.798       74.513    22871.010    14351.642     5552.132        9.862        2.139      392.546       74.009        0.036      339.162       12.305      856.897
06/18/2013  23:48:00     -292.526       -6.387      -13.789      171.452      120.498       82.763    29395.746    14519.650     6849.675        6.827        2.538      292.595       80.757        0.076      339.137       12.261      856.894
06/18/2013  23:49:00     -269.609       -0.040       -3.700      179.782      106.770       72.857    32321.740    11399.911     5308.150        6.086        2.451      269.609       86.104        0.102      339.104       12.207      856.917
06/18/2013  23:50:00     -225.152     -106.001       -2.930      124.858      170.465       75.717    15589.457    29058.157     5732.993        5.615        2.519      248.857       75.672        0.092      339.103       12.204      856.916
06/18/2013  23:51:00     -247.002      -58.309        0.307      138.740       90.392       68.701    19248.911     8170.661     4719.866        4.827        1.607      253.791       78.224        0.095      339.085       12.174      856.921
06/18/2013  23:52:00     -238.084      -30.595       -8.629      152.986       83.424       47.907    23404.713     6959.536     2295.054        4.517        1.633      240.042       62.793        0.068      339.056       12.125      856.917
06/18/2013  23:53:00     -294.674      -24.516        1.066      115.976      115.211       70.948    13450.487    13273.569     5033.680        5.959        1.588      295.692       61.552        0.043      339.058       12.129      856.899
06/18/2013  23:54:00     -213.592      -20.729        5.701      164.748      110.980       72.035    27141.908    12316.502     5189.102        4.536        2.232      214.595       86.607        0.163      339.016       12.058      856.902
06/18/2013  23:55:00     -242.144      -63.826      -11.156      135.628      106.150       60.216    18395.022    11267.787     3625.926        4.805        1.664      250.414       65.074        0.068      339.045       12.107      856.913
06/18/2013  23:56:00     -138.672      -72.324       -5.784      128.528       93.450       61.927    16519.333     8732.813     3834.984        2.678        1.454      156.399       61.719        0.156      339.059       12.132      856.904
06/18/2013  23:57:00     -421.358      -61.100      -23.500      168.473      141.780       70.919    28383.004    20101.705     5029.555       11.766        2.676      425.765       77.513        0.033      339.023       12.070      856.890
06/18/2013  23:58:00     -349.949     -112.200      -15.971      178.124      118.397       74.389    31728.312    14017.831     5533.695        9.328        2.564      367.496       80.049        0.047      339.014       12.056      856.868
06/18/2013  23:59:00     -319.935     -102.993       -9.146      198.216      146.033       72.773    39289.670    21325.723     5295.890        8.947        3.296      336.104       86.726        0.067      339.022       12.068      856.870
